<?xml version='1.0' encoding='UTF-8'?><gpx version="1.1" creator="JPX - https://github.com/jenetics/jpx" xmlns="http://www.topografix.com/GPX/1/1"><trk><trkseg><trkpt lat="44.184902" lon="12.1149498"><ele>29.000000000000004</ele><time>2026-04-19T07:30:09.42Z</time></trkpt><trkpt lat="44.1848773" lon="12.1150355"><ele>29.0</ele><time>2026-04-19T07:30:13.376Z</time></trkpt><trkpt lat="44.1848535" lon="12.1151226"><ele>29.000000000000004</ele><time>2026-04-19T07:30:16.423Z</time></trkpt><trkpt lat="44.1848263" lon="12.1152023"><ele>29.000000000000004</ele><time>2026-04-19T07:30:19.42Z</time></trkpt><trkpt lat="44.1847959" lon="12.1152915"><ele>29.0</ele><time>2026-04-19T07:30:23.433Z</time></trkpt><trkpt lat="44.1848353" lon="12.1153635"><ele>29.000000000000004</ele><time>2026-04-19T07:30:28.36Z</time></trkpt><trkpt lat="44.1848985" lon="12.1153919"><ele>29.000000000000004</ele><time>2026-04-19T07:30:31.419Z</time></trkpt><trkpt lat="44.1849708" lon="12.1154523"><ele>28.999999999999996</ele><time>2026-04-19T07:30:34.42Z</time></trkpt><trkpt lat="44.1849461" lon="12.1155653"><ele>29.0</ele><time>2026-04-19T07:30:37.42Z</time></trkpt><trkpt lat="44.1849564" lon="12.1156523"><ele>29.0</ele><time>2026-04-19T07:30:40.18Z</time></trkpt><trkpt lat="44.1850283" lon="12.1157005"><ele>29.0</ele><time>2026-04-19T07:30:43.449Z</time></trkpt><trkpt lat="44.1851064" lon="12.1157606"><ele>28.999999999999996</ele><time>2026-04-19T07:30:46.42Z</time></trkpt><trkpt lat="44.1851835" lon="12.1158244"><ele>29.0</ele><time>2026-04-19T07:30:49.443Z</time></trkpt><trkpt lat="44.1852515" lon="12.1158827"><ele>29.166666666666664</ele><time>2026-04-19T07:30:52.419Z</time></trkpt><trkpt lat="44.1853194" lon="12.1159372"><ele>29.333333333333332</ele><time>2026-04-19T07:30:55.42Z</time></trkpt><trkpt lat="44.1853135" lon="12.1160355"><ele>29.5</ele><time>2026-04-19T07:30:58.42Z</time></trkpt><trkpt lat="44.185272" lon="12.1161134"><ele>29.666666666666664</ele><time>2026-04-19T07:31:00.42Z</time></trkpt><trkpt lat="44.1852507" lon="12.1162012"><ele>29.833333333333332</ele><time>2026-04-19T07:31:02.448Z</time></trkpt><trkpt lat="44.1852136" lon="12.1163198"><ele>30.0</ele><time>2026-04-19T07:31:05.281Z</time></trkpt><trkpt lat="44.1851843" lon="12.1164111"><ele>30.0</ele><time>2026-04-19T07:31:07.426Z</time></trkpt><trkpt lat="44.1851755" lon="12.1165041"><ele>30.0</ele><time>2026-04-19T07:31:10.419Z</time></trkpt><trkpt lat="44.1852249" lon="12.1165663"><ele>30.0</ele><time>2026-04-19T07:31:14.319Z</time></trkpt><trkpt lat="44.1853098" lon="12.1166139"><ele>30.0</ele><time>2026-04-19T07:31:16.419Z</time></trkpt><trkpt lat="44.1853765" lon="12.1166623"><ele>30.0</ele><time>2026-04-19T07:31:18.42Z</time></trkpt><trkpt lat="44.1854434" lon="12.1167172"><ele>30.0</ele><time>2026-04-19T07:31:20.322Z</time></trkpt><trkpt lat="44.1855215" lon="12.1167803"><ele>29.857142857142858</ele><time>2026-04-19T07:31:22.419Z</time></trkpt><trkpt lat="44.1855884" lon="12.1168292"><ele>29.714285714285715</ele><time>2026-04-19T07:31:24.42Z</time></trkpt><trkpt lat="44.185637" lon="12.116886"><ele>29.571428571428573</ele><time>2026-04-19T07:31:26.425Z</time></trkpt><trkpt lat="44.1856158" lon="12.1169893"><ele>29.42857142857143</ele><time>2026-04-19T07:31:29.402Z</time></trkpt><trkpt lat="44.1855705" lon="12.1170533"><ele>29.285714285714285</ele><time>2026-04-19T07:31:31.42Z</time></trkpt><trkpt lat="44.1855365" lon="12.1171767"><ele>29.142857142857146</ele><time>2026-04-19T07:31:34.419Z</time></trkpt><trkpt lat="44.1855118" lon="12.1172623"><ele>29.000000000000004</ele><time>2026-04-19T07:31:36.419Z</time></trkpt><trkpt lat="44.1854757" lon="12.1173804"><ele>28.833333333333332</ele><time>2026-04-19T07:31:39.429Z</time></trkpt><trkpt lat="44.1854517" lon="12.1174632"><ele>28.666666666666664</ele><time>2026-04-19T07:31:41.442Z</time></trkpt><trkpt lat="44.1854227" lon="12.1175481"><ele>28.5</ele><time>2026-04-19T07:31:43.648Z</time></trkpt><trkpt lat="44.1854046" lon="12.1176741"><ele>28.333333333333336</ele><time>2026-04-19T07:31:47.919Z</time></trkpt><trkpt lat="44.1853906" lon="12.1178008"><ele>28.166666666666668</ele><time>2026-04-19T07:31:50.436Z</time></trkpt><trkpt lat="44.1853462" lon="12.1178884"><ele>28.0</ele><time>2026-04-19T07:31:52.419Z</time></trkpt><trkpt lat="44.1852952" lon="12.1179707"><ele>28.000000000000004</ele><time>2026-04-19T07:31:54.42Z</time></trkpt><trkpt lat="44.1852479" lon="12.1180506"><ele>28.0</ele><time>2026-04-19T07:31:56.429Z</time></trkpt><trkpt lat="44.1851917" lon="12.11815"><ele>28.0</ele><time>2026-04-19T07:31:59.419Z</time></trkpt><trkpt lat="44.1851405" lon="12.1182466"><ele>28.0</ele><time>2026-04-19T07:32:02.3Z</time></trkpt><trkpt lat="44.1851009" lon="12.1183224"><ele>28.000000000000004</ele><time>2026-04-19T07:32:04.42Z</time></trkpt><trkpt lat="44.1850483" lon="12.11842"><ele>28.0</ele><time>2026-04-19T07:32:07.356Z</time></trkpt><trkpt lat="44.1850067" lon="12.1184967"><ele>28.166666666666668</ele><time>2026-04-19T07:32:09.356Z</time></trkpt><trkpt lat="44.1849633" lon="12.11857"><ele>28.333333333333336</ele><time>2026-04-19T07:32:11.356Z</time></trkpt><trkpt lat="44.18491" lon="12.1186633"><ele>28.5</ele><time>2026-04-19T07:32:14.355Z</time></trkpt><trkpt lat="44.1848683" lon="12.118735"><ele>28.666666666666664</ele><time>2026-04-19T07:32:16.355Z</time></trkpt><trkpt lat="44.1848517" lon="12.1188217"><ele>28.833333333333332</ele><time>2026-04-19T07:32:18.356Z</time></trkpt><trkpt lat="44.1848317" lon="12.1189417"><ele>29.0</ele><time>2026-04-19T07:32:21.355Z</time></trkpt><trkpt lat="44.1847933" lon="12.11906"><ele>28.833333333333332</ele><time>2026-04-19T07:32:24.356Z</time></trkpt><trkpt lat="44.1847617" lon="12.1191483"><ele>28.666666666666664</ele><time>2026-04-19T07:32:26.356Z</time></trkpt><trkpt lat="44.1847033" lon="12.1192367"><ele>28.5</ele><time>2026-04-19T07:32:29.355Z</time></trkpt><trkpt lat="44.1846633" lon="12.1193533"><ele>28.333333333333336</ele><time>2026-04-19T07:32:32.355Z</time></trkpt><trkpt lat="44.1846267" lon="12.1194367"><ele>28.166666666666668</ele><time>2026-04-19T07:32:34.355Z</time></trkpt><trkpt lat="44.18459" lon="12.1195183"><ele>28.0</ele><time>2026-04-19T07:32:36.355Z</time></trkpt><trkpt lat="44.18456" lon="12.119605"><ele>28.000000000000004</ele><time>2026-04-19T07:32:38.356Z</time></trkpt><trkpt lat="44.18453" lon="12.1196967"><ele>28.0</ele><time>2026-04-19T07:32:40.355Z</time></trkpt><trkpt lat="44.1844983" lon="12.1197817"><ele>28.0</ele><time>2026-04-19T07:32:42.356Z</time></trkpt><trkpt lat="44.1844667" lon="12.1199"><ele>28.0</ele><time>2026-04-19T07:32:45.355Z</time></trkpt><trkpt lat="44.1844267" lon="12.1199933"><ele>28.000000000000004</ele><time>2026-04-19T07:32:48.355Z</time></trkpt><trkpt lat="44.1843933" lon="12.1200883"><ele>28.0</ele><time>2026-04-19T07:32:52.356Z</time></trkpt><trkpt lat="44.184355" lon="12.1201783"><ele>28.000000000000004</ele><time>2026-04-19T07:32:56.356Z</time></trkpt><trkpt lat="44.1843267" lon="12.1202633"><ele>28.0</ele><time>2026-04-19T07:32:59.356Z</time></trkpt><trkpt lat="44.184335" lon="12.1203683"><ele>28.0</ele><time>2026-04-19T07:33:03.356Z</time></trkpt><trkpt lat="44.18438" lon="12.1204533"><ele>28.0</ele><time>2026-04-19T07:33:07.355Z</time></trkpt><trkpt lat="44.184385" lon="12.120565"><ele>28.000000000000004</ele><time>2026-04-19T07:33:10.355Z</time></trkpt><trkpt lat="44.18441" lon="12.1206817"><ele>28.0</ele><time>2026-04-19T07:33:13.356Z</time></trkpt><trkpt lat="44.1844" lon="12.1207967"><ele>28.333333333333336</ele><time>2026-04-19T07:33:16.355Z</time></trkpt><trkpt lat="44.1843783" lon="12.12092"><ele>28.666666666666668</ele><time>2026-04-19T07:33:19.356Z</time></trkpt><trkpt lat="44.1843367" lon="12.12104"><ele>29.0</ele><time>2026-04-19T07:33:22.356Z</time></trkpt><trkpt lat="44.184305" lon="12.12112"><ele>29.333333333333336</ele><time>2026-04-19T07:33:24.356Z</time></trkpt><trkpt lat="44.18426" lon="12.12123"><ele>29.666666666666668</ele><time>2026-04-19T07:33:27.356Z</time></trkpt><trkpt lat="44.1842283" lon="12.1213117"><ele>30.0</ele><time>2026-04-19T07:33:29.356Z</time></trkpt><trkpt lat="44.18419" lon="12.1214067"><ele>30.0</ele><time>2026-04-19T07:33:31.355Z</time></trkpt><trkpt lat="44.184145" lon="12.1215217"><ele>30.0</ele><time>2026-04-19T07:33:34.356Z</time></trkpt><trkpt lat="44.1841017" lon="12.12163"><ele>30.0</ele><time>2026-04-19T07:33:37.356Z</time></trkpt><trkpt lat="44.18406" lon="12.121735"><ele>30.0</ele><time>2026-04-19T07:33:40.356Z</time></trkpt><trkpt lat="44.1840933" lon="12.121825"><ele>30.0</ele><time>2026-04-19T07:33:44.355Z</time></trkpt><trkpt lat="44.184185" lon="12.12187"><ele>30.0</ele><time>2026-04-19T07:33:47.356Z</time></trkpt><trkpt lat="44.1842433" lon="12.1219033"><ele>30.166666666666668</ele><time>2026-04-19T07:33:49.355Z</time></trkpt><trkpt lat="44.1843333" lon="12.1219617"><ele>30.333333333333336</ele><time>2026-04-19T07:33:52.355Z</time></trkpt><trkpt lat="44.1844033" lon="12.122025"><ele>30.5</ele><time>2026-04-19T07:33:54.356Z</time></trkpt><trkpt lat="44.18447" lon="12.1220567"><ele>30.666666666666668</ele><time>2026-04-19T07:33:56.356Z</time></trkpt><trkpt lat="44.1845267" lon="12.1220967"><ele>30.833333333333336</ele><time>2026-04-19T07:33:58.355Z</time></trkpt><trkpt lat="44.1846" lon="12.122165"><ele>31.0</ele><time>2026-04-19T07:34:01.356Z</time></trkpt><trkpt lat="44.1846617" lon="12.1222267"><ele>31.000000000000004</ele><time>2026-04-19T07:34:03.356Z</time></trkpt><trkpt lat="44.184745" lon="12.1222967"><ele>31.0</ele><time>2026-04-19T07:34:05.356Z</time></trkpt><trkpt lat="44.184825" lon="12.1223617"><ele>31.0</ele><time>2026-04-19T07:34:07.356Z</time></trkpt><trkpt lat="44.1849" lon="12.122405"><ele>31.0</ele><time>2026-04-19T07:34:09.356Z</time></trkpt><trkpt lat="44.1849767" lon="12.1224517"><ele>31.000000000000004</ele><time>2026-04-19T07:34:11.355Z</time></trkpt><trkpt lat="44.18506" lon="12.1225067"><ele>31.0</ele><time>2026-04-19T07:34:13.356Z</time></trkpt><trkpt lat="44.1851367" lon="12.1225667"><ele>31.000000000000004</ele><time>2026-04-19T07:34:15.355Z</time></trkpt><trkpt lat="44.185215" lon="12.1226283"><ele>31.0</ele><time>2026-04-19T07:34:17.355Z</time></trkpt><trkpt lat="44.18528" lon="12.1226983"><ele>31.0</ele><time>2026-04-19T07:34:19.355Z</time></trkpt><trkpt lat="44.185365" lon="12.12277"><ele>31.0</ele><time>2026-04-19T07:34:21.356Z</time></trkpt><trkpt lat="44.18542" lon="12.122835"><ele>31.000000000000004</ele><time>2026-04-19T07:34:23.356Z</time></trkpt><trkpt lat="44.1854683" lon="12.1229333"><ele>31.0</ele><time>2026-04-19T07:34:25.356Z</time></trkpt><trkpt lat="44.185505" lon="12.1230317"><ele>31.000000000000004</ele><time>2026-04-19T07:34:27.355Z</time></trkpt><trkpt lat="44.1855217" lon="12.12312"><ele>31.0</ele><time>2026-04-19T07:34:29.356Z</time></trkpt><trkpt lat="44.1855133" lon="12.1232183"><ele>31.0</ele><time>2026-04-19T07:34:31.356Z</time></trkpt><trkpt lat="44.1854967" lon="12.1233167"><ele>31.0</ele><time>2026-04-19T07:34:33.355Z</time></trkpt><trkpt lat="44.1854933" lon="12.1234483"><ele>31.000000000000004</ele><time>2026-04-19T07:34:36.356Z</time></trkpt><trkpt lat="44.1855183" lon="12.1235433"><ele>31.0</ele><time>2026-04-19T07:34:38.355Z</time></trkpt><trkpt lat="44.1855767" lon="12.12361"><ele>31.000000000000004</ele><time>2026-04-19T07:34:40.355Z</time></trkpt><trkpt lat="44.18565" lon="12.1236683"><ele>31.0</ele><time>2026-04-19T07:34:42.355Z</time></trkpt><trkpt lat="44.1857267" lon="12.123715"><ele>31.0</ele><time>2026-04-19T07:34:44.355Z</time></trkpt><trkpt lat="44.1858017" lon="12.1237767"><ele>31.0</ele><time>2026-04-19T07:34:46.356Z</time></trkpt><trkpt lat="44.185875" lon="12.1238483"><ele>31.000000000000004</ele><time>2026-04-19T07:34:48.355Z</time></trkpt><trkpt lat="44.18596" lon="12.12391"><ele>31.0</ele><time>2026-04-19T07:34:50.355Z</time></trkpt><trkpt lat="44.1860467" lon="12.123975"><ele>31.000000000000004</ele><time>2026-04-19T07:34:52.356Z</time></trkpt><trkpt lat="44.1861217" lon="12.1240567"><ele>31.0</ele><time>2026-04-19T07:34:54.356Z</time></trkpt><trkpt lat="44.186195" lon="12.1241267"><ele>31.0</ele><time>2026-04-19T07:34:56.356Z</time></trkpt><trkpt lat="44.18627" lon="12.12419"><ele>31.0</ele><time>2026-04-19T07:34:58.356Z</time></trkpt><trkpt lat="44.1863433" lon="12.1242417"><ele>31.000000000000004</ele><time>2026-04-19T07:35:00.356Z</time></trkpt><trkpt lat="44.1863967" lon="12.1242983"><ele>31.0</ele><time>2026-04-19T07:35:02.355Z</time></trkpt><trkpt lat="44.1864533" lon="12.1243467"><ele>30.833333333333336</ele><time>2026-04-19T07:35:04.355Z</time></trkpt><trkpt lat="44.1865317" lon="12.1244067"><ele>30.666666666666668</ele><time>2026-04-19T07:35:07.356Z</time></trkpt><trkpt lat="44.1866083" lon="12.1244733"><ele>30.5</ele><time>2026-04-19T07:35:10.356Z</time></trkpt><trkpt lat="44.18668" lon="12.1245467"><ele>30.333333333333336</ele><time>2026-04-19T07:35:13.356Z</time></trkpt><trkpt lat="44.1867433" lon="12.1246233"><ele>30.166666666666668</ele><time>2026-04-19T07:35:16.355Z</time></trkpt><trkpt lat="44.1867667" lon="12.124735"><ele>30.0</ele><time>2026-04-19T07:35:19.356Z</time></trkpt><trkpt lat="44.18678" lon="12.1248233"><ele>30.142857142857146</ele><time>2026-04-19T07:35:21.356Z</time></trkpt><trkpt lat="44.1867633" lon="12.1249317"><ele>30.285714285714285</ele><time>2026-04-19T07:35:23.356Z</time></trkpt><trkpt lat="44.1867333" lon="12.1250183"><ele>30.42857142857143</ele><time>2026-04-19T07:35:25.357Z</time></trkpt><trkpt lat="44.1867067" lon="12.1251"><ele>30.571428571428573</ele><time>2026-04-19T07:35:27.356Z</time></trkpt><trkpt lat="44.1866817" lon="12.1251933"><ele>30.714285714285715</ele><time>2026-04-19T07:35:29.356Z</time></trkpt><trkpt lat="44.1866733" lon="12.12529"><ele>30.857142857142858</ele><time>2026-04-19T07:35:31.357Z</time></trkpt><trkpt lat="44.1866733" lon="12.1254183"><ele>31.0</ele><time>2026-04-19T07:35:34.356Z</time></trkpt><trkpt lat="44.18668" lon="12.1255417"><ele>31.0</ele><time>2026-04-19T07:35:37.356Z</time></trkpt><trkpt lat="44.18668" lon="12.1256533"><ele>31.000000000000004</ele><time>2026-04-19T07:35:40.356Z</time></trkpt><trkpt lat="44.1867383" lon="12.1257217"><ele>31.0</ele><time>2026-04-19T07:35:43.356Z</time></trkpt><trkpt lat="44.186815" lon="12.125765"><ele>31.0</ele><time>2026-04-19T07:35:46.357Z</time></trkpt><trkpt lat="44.18689" lon="12.125805"><ele>31.000000000000004</ele><time>2026-04-19T07:35:49.356Z</time></trkpt><trkpt lat="44.18695" lon="12.1258367"><ele>31.0</ele><time>2026-04-19T07:35:52.356Z</time></trkpt><trkpt lat="44.18701" lon="12.1258717"><ele>31.0</ele><time>2026-04-19T07:35:58.356Z</time></trkpt><trkpt lat="44.18707" lon="12.125935"><ele>31.0</ele><time>2026-04-19T07:39:56.356Z</time></trkpt><trkpt lat="44.187135" lon="12.12598"><ele>31.000000000000004</ele><time>2026-04-19T07:40:00.357Z</time></trkpt><trkpt lat="44.1871183" lon="12.125885"><ele>31.0</ele><time>2026-04-19T07:40:07.357Z</time></trkpt><trkpt lat="44.1870267" lon="12.12588"><ele>31.0</ele><time>2026-04-19T07:40:10.356Z</time></trkpt><trkpt lat="44.1869633" lon="12.125865"><ele>31.000000000000004</ele><time>2026-04-19T07:40:12.357Z</time></trkpt><trkpt lat="44.1868967" lon="12.1258633"><ele>31.0</ele><time>2026-04-19T07:40:14.356Z</time></trkpt><trkpt lat="44.18683" lon="12.1258283"><ele>31.0</ele><time>2026-04-19T07:40:16.357Z</time></trkpt><trkpt lat="44.1867767" lon="12.12578"><ele>31.000000000000004</ele><time>2026-04-19T07:40:18.357Z</time></trkpt><trkpt lat="44.1866983" lon="12.1257067"><ele>31.0</ele><time>2026-04-19T07:40:21.357Z</time></trkpt><trkpt lat="44.1866567" lon="12.1255933"><ele>31.0</ele><time>2026-04-19T07:40:24.357Z</time></trkpt><trkpt lat="44.186645" lon="12.125495"><ele>31.0</ele><time>2026-04-19T07:40:26.356Z</time></trkpt><trkpt lat="44.186645" lon="12.1253933"><ele>31.000000000000004</ele><time>2026-04-19T07:40:28.356Z</time></trkpt><trkpt lat="44.1866517" lon="12.12528"><ele>31.0</ele><time>2026-04-19T07:40:30.357Z</time></trkpt><trkpt lat="44.186685" lon="12.1251767"><ele>31.000000000000004</ele><time>2026-04-19T07:40:32.356Z</time></trkpt><trkpt lat="44.1867217" lon="12.125055"><ele>31.0</ele><time>2026-04-19T07:40:34.356Z</time></trkpt><trkpt lat="44.1867533" lon="12.124935"><ele>31.0</ele><time>2026-04-19T07:40:36.357Z</time></trkpt><trkpt lat="44.1867883" lon="12.124825"><ele>31.0</ele><time>2026-04-19T07:40:38.356Z</time></trkpt><trkpt lat="44.1868217" lon="12.12472"><ele>31.000000000000004</ele><time>2026-04-19T07:40:40.356Z</time></trkpt><trkpt lat="44.186855" lon="12.124615"><ele>31.0</ele><time>2026-04-19T07:40:42.357Z</time></trkpt><trkpt lat="44.1869" lon="12.1245067"><ele>30.833333333333336</ele><time>2026-04-19T07:40:44.356Z</time></trkpt><trkpt lat="44.1869383" lon="12.124395"><ele>30.666666666666668</ele><time>2026-04-19T07:40:46.356Z</time></trkpt><trkpt lat="44.1869733" lon="12.1242867"><ele>30.5</ele><time>2026-04-19T07:40:48.357Z</time></trkpt><trkpt lat="44.1870167" lon="12.124175"><ele>30.333333333333336</ele><time>2026-04-19T07:40:50.356Z</time></trkpt><trkpt lat="44.1870533" lon="12.12406"><ele>30.166666666666668</ele><time>2026-04-19T07:40:52.357Z</time></trkpt><trkpt lat="44.1870883" lon="12.1239417"><ele>30.0</ele><time>2026-04-19T07:40:54.356Z</time></trkpt><trkpt lat="44.1871333" lon="12.1238317"><ele>30.0</ele><time>2026-04-19T07:40:56.357Z</time></trkpt><trkpt lat="44.1871717" lon="12.1237217"><ele>30.0</ele><time>2026-04-19T07:40:58.357Z</time></trkpt><trkpt lat="44.18721" lon="12.1236017"><ele>30.0</ele><time>2026-04-19T07:41:00.357Z</time></trkpt><trkpt lat="44.1872483" lon="12.1234917"><ele>30.0</ele><time>2026-04-19T07:41:02.357Z</time></trkpt><trkpt lat="44.1872867" lon="12.12338"><ele>30.0</ele><time>2026-04-19T07:41:04.357Z</time></trkpt><trkpt lat="44.1873167" lon="12.12328"><ele>30.0</ele><time>2026-04-19T07:41:06.356Z</time></trkpt><trkpt lat="44.187355" lon="12.1231717"><ele>30.0</ele><time>2026-04-19T07:41:08.356Z</time></trkpt><trkpt lat="44.1873933" lon="12.1230683"><ele>30.0</ele><time>2026-04-19T07:41:10.357Z</time></trkpt><trkpt lat="44.187435" lon="12.122965"><ele>30.0</ele><time>2026-04-19T07:41:12.357Z</time></trkpt><trkpt lat="44.1874767" lon="12.1228633"><ele>30.0</ele><time>2026-04-19T07:41:14.357Z</time></trkpt><trkpt lat="44.187515" lon="12.122765"><ele>30.0</ele><time>2026-04-19T07:41:16.357Z</time></trkpt><trkpt lat="44.1875467" lon="12.12267"><ele>30.0</ele><time>2026-04-19T07:41:18.356Z</time></trkpt><trkpt lat="44.18758" lon="12.122565"><ele>30.0</ele><time>2026-04-19T07:41:20.357Z</time></trkpt><trkpt lat="44.1876167" lon="12.1224533"><ele>30.0</ele><time>2026-04-19T07:41:22.356Z</time></trkpt><trkpt lat="44.1876533" lon="12.1223483"><ele>30.0</ele><time>2026-04-19T07:41:24.357Z</time></trkpt><trkpt lat="44.1876933" lon="12.1222467"><ele>30.0</ele><time>2026-04-19T07:41:26.357Z</time></trkpt><trkpt lat="44.1877317" lon="12.122155"><ele>30.0</ele><time>2026-04-19T07:41:28.356Z</time></trkpt><trkpt lat="44.1877783" lon="12.1220533"><ele>30.0</ele><time>2026-04-19T07:41:30.356Z</time></trkpt><trkpt lat="44.1878267" lon="12.1219667"><ele>30.0</ele><time>2026-04-19T07:41:32.357Z</time></trkpt><trkpt lat="44.1878783" lon="12.12189"><ele>30.0</ele><time>2026-04-19T07:41:34.357Z</time></trkpt><trkpt lat="44.187915" lon="12.1218067"><ele>30.0</ele><time>2026-04-19T07:41:37.356Z</time></trkpt><trkpt lat="44.1879683" lon="12.1217067"><ele>30.0</ele><time>2026-04-19T07:41:41.356Z</time></trkpt><trkpt lat="44.1879967" lon="12.121585"><ele>30.0</ele><time>2026-04-19T07:41:44.356Z</time></trkpt><trkpt lat="44.1880017" lon="12.12147"><ele>30.0</ele><time>2026-04-19T07:41:47.357Z</time></trkpt><trkpt lat="44.1880217" lon="12.1213633"><ele>30.0</ele><time>2026-04-19T07:41:50.356Z</time></trkpt><trkpt lat="44.1880617" lon="12.12126"><ele>30.0</ele><time>2026-04-19T07:41:53.356Z</time></trkpt><trkpt lat="44.1880883" lon="12.1211783"><ele>30.0</ele><time>2026-04-19T07:41:55.357Z</time></trkpt><trkpt lat="44.1881167" lon="12.121095"><ele>30.0</ele><time>2026-04-19T07:41:57.357Z</time></trkpt><trkpt lat="44.18815" lon="12.12102"><ele>30.0</ele><time>2026-04-19T07:41:59.356Z</time></trkpt><trkpt lat="44.188185" lon="12.1209417"><ele>30.0</ele><time>2026-04-19T07:42:01.356Z</time></trkpt><trkpt lat="44.1882217" lon="12.120855"><ele>30.0</ele><time>2026-04-19T07:42:03.357Z</time></trkpt><trkpt lat="44.1882667" lon="12.1207733"><ele>29.833333333333332</ele><time>2026-04-19T07:42:05.357Z</time></trkpt><trkpt lat="44.1883117" lon="12.1206933"><ele>29.666666666666664</ele><time>2026-04-19T07:42:07.356Z</time></trkpt><trkpt lat="44.1883533" lon="12.1205967"><ele>29.5</ele><time>2026-04-19T07:42:09.356Z</time></trkpt><trkpt lat="44.1884" lon="12.1205083"><ele>29.333333333333332</ele><time>2026-04-19T07:42:11.357Z</time></trkpt><trkpt lat="44.1884467" lon="12.12042"><ele>29.166666666666664</ele><time>2026-04-19T07:42:13.356Z</time></trkpt><trkpt lat="44.188495" lon="12.1203283"><ele>29.0</ele><time>2026-04-19T07:42:15.357Z</time></trkpt><trkpt lat="44.1885417" lon="12.1202417"><ele>28.999999999999996</ele><time>2026-04-19T07:42:17.357Z</time></trkpt><trkpt lat="44.1885917" lon="12.1201483"><ele>29.0</ele><time>2026-04-19T07:42:19.356Z</time></trkpt><trkpt lat="44.1886433" lon="12.120065"><ele>29.0</ele><time>2026-04-19T07:42:21.357Z</time></trkpt><trkpt lat="44.1886933" lon="12.1199783"><ele>29.0</ele><time>2026-04-19T07:42:23.357Z</time></trkpt><trkpt lat="44.188745" lon="12.1198983"><ele>28.999999999999996</ele><time>2026-04-19T07:42:25.357Z</time></trkpt><trkpt lat="44.1888" lon="12.1198183"><ele>29.0</ele><time>2026-04-19T07:42:27.356Z</time></trkpt><trkpt lat="44.1888617" lon="12.1197417"><ele>28.833333333333332</ele><time>2026-04-19T07:42:29.357Z</time></trkpt><trkpt lat="44.1889233" lon="12.1196683"><ele>28.666666666666664</ele><time>2026-04-19T07:42:31.357Z</time></trkpt><trkpt lat="44.188985" lon="12.1195917"><ele>28.5</ele><time>2026-04-19T07:42:33.356Z</time></trkpt><trkpt lat="44.1890417" lon="12.1195133"><ele>28.333333333333336</ele><time>2026-04-19T07:42:35.356Z</time></trkpt><trkpt lat="44.18911" lon="12.11944"><ele>28.166666666666668</ele><time>2026-04-19T07:42:37.356Z</time></trkpt><trkpt lat="44.1891733" lon="12.1193533"><ele>28.0</ele><time>2026-04-19T07:42:39.356Z</time></trkpt><trkpt lat="44.1892317" lon="12.119265"><ele>27.666666666666668</ele><time>2026-04-19T07:42:41.357Z</time></trkpt><trkpt lat="44.1892917" lon="12.1191917"><ele>27.333333333333336</ele><time>2026-04-19T07:42:43.356Z</time></trkpt><trkpt lat="44.1893467" lon="12.1191217"><ele>27.0</ele><time>2026-04-19T07:42:45.357Z</time></trkpt><trkpt lat="44.1894" lon="12.1190483"><ele>26.666666666666664</ele><time>2026-04-19T07:42:47.356Z</time></trkpt><trkpt lat="44.18945" lon="12.1189733"><ele>26.333333333333332</ele><time>2026-04-19T07:42:49.356Z</time></trkpt><trkpt lat="44.1894983" lon="12.118895"><ele>26.0</ele><time>2026-04-19T07:42:51.357Z</time></trkpt><trkpt lat="44.1895517" lon="12.1188167"><ele>25.999999999999996</ele><time>2026-04-19T07:42:53.357Z</time></trkpt><trkpt lat="44.189615" lon="12.1187733"><ele>26.0</ele><time>2026-04-19T07:42:55.356Z</time></trkpt><trkpt lat="44.1896767" lon="12.11882"><ele>26.0</ele><time>2026-04-19T07:42:57.357Z</time></trkpt><trkpt lat="44.189745" lon="12.1188967"><ele>26.0</ele><time>2026-04-19T07:42:59.356Z</time></trkpt><trkpt lat="44.1898033" lon="12.1189483"><ele>25.999999999999996</ele><time>2026-04-19T07:43:01.357Z</time></trkpt><trkpt lat="44.1898817" lon="12.1190267"><ele>26.0</ele><time>2026-04-19T07:43:04.357Z</time></trkpt><trkpt lat="44.1899417" lon="12.1190933"><ele>26.142857142857142</ele><time>2026-04-19T07:43:07.357Z</time></trkpt><trkpt lat="44.190005" lon="12.1191167"><ele>26.28571428571429</ele><time>2026-04-19T07:43:10.356Z</time></trkpt><trkpt lat="44.1900683" lon="12.1190667"><ele>26.42857142857143</ele><time>2026-04-19T07:43:13.356Z</time></trkpt><trkpt lat="44.19009" lon="12.1189817"><ele>26.57142857142857</ele><time>2026-04-19T07:43:15.357Z</time></trkpt><trkpt lat="44.190115" lon="12.1189"><ele>26.714285714285715</ele><time>2026-04-19T07:43:17.356Z</time></trkpt><trkpt lat="44.19014" lon="12.1188033"><ele>26.857142857142858</ele><time>2026-04-19T07:43:19.356Z</time></trkpt><trkpt lat="44.190165" lon="12.1187017"><ele>27.0</ele><time>2026-04-19T07:43:21.357Z</time></trkpt><trkpt lat="44.190195" lon="12.1186017"><ele>26.833333333333332</ele><time>2026-04-19T07:43:23.357Z</time></trkpt><trkpt lat="44.1902317" lon="12.1185067"><ele>26.666666666666664</ele><time>2026-04-19T07:43:25.357Z</time></trkpt><trkpt lat="44.1902667" lon="12.11841"><ele>26.5</ele><time>2026-04-19T07:43:27.356Z</time></trkpt><trkpt lat="44.1903133" lon="12.1183133"><ele>26.333333333333332</ele><time>2026-04-19T07:43:29.356Z</time></trkpt><trkpt lat="44.19035" lon="12.11821"><ele>26.166666666666664</ele><time>2026-04-19T07:43:31.357Z</time></trkpt><trkpt lat="44.190385" lon="12.1181033"><ele>26.0</ele><time>2026-04-19T07:43:33.356Z</time></trkpt><trkpt lat="44.1904167" lon="12.1179983"><ele>25.999999999999996</ele><time>2026-04-19T07:43:35.357Z</time></trkpt><trkpt lat="44.1904483" lon="12.1179"><ele>26.0</ele><time>2026-04-19T07:43:37.356Z</time></trkpt><trkpt lat="44.190475" lon="12.1178067"><ele>26.0</ele><time>2026-04-19T07:43:39.356Z</time></trkpt><trkpt lat="44.1905133" lon="12.117725"><ele>26.0</ele><time>2026-04-19T07:43:41.357Z</time></trkpt><trkpt lat="44.1905467" lon="12.1176067"><ele>25.999999999999996</ele><time>2026-04-19T07:43:44.357Z</time></trkpt><trkpt lat="44.1905767" lon="12.117485"><ele>26.0</ele><time>2026-04-19T07:43:47.357Z</time></trkpt><trkpt lat="44.19059" lon="12.1173867"><ele>25.999999999999996</ele><time>2026-04-19T07:43:49.357Z</time></trkpt><trkpt lat="44.1906183" lon="12.1172967"><ele>26.0</ele><time>2026-04-19T07:43:51.356Z</time></trkpt><trkpt lat="44.1906667" lon="12.1172033"><ele>26.0</ele><time>2026-04-19T07:43:53.356Z</time></trkpt><trkpt lat="44.19071" lon="12.1170983"><ele>26.0</ele><time>2026-04-19T07:43:55.356Z</time></trkpt><trkpt lat="44.1907383" lon="12.11699"><ele>25.999999999999996</ele><time>2026-04-19T07:43:57.356Z</time></trkpt><trkpt lat="44.19077" lon="12.116875"><ele>26.0</ele><time>2026-04-19T07:43:59.356Z</time></trkpt><trkpt lat="44.1908033" lon="12.116765"><ele>25.999999999999996</ele><time>2026-04-19T07:44:01.356Z</time></trkpt><trkpt lat="44.1908383" lon="12.1166567"><ele>26.0</ele><time>2026-04-19T07:44:03.356Z</time></trkpt><trkpt lat="44.1908783" lon="12.11655"><ele>26.0</ele><time>2026-04-19T07:44:05.357Z</time></trkpt><trkpt lat="44.1909217" lon="12.1164417"><ele>26.0</ele><time>2026-04-19T07:44:07.356Z</time></trkpt><trkpt lat="44.1909533" lon="12.1163383"><ele>25.999999999999996</ele><time>2026-04-19T07:44:09.357Z</time></trkpt><trkpt lat="44.190985" lon="12.11623"><ele>26.0</ele><time>2026-04-19T07:44:11.357Z</time></trkpt><trkpt lat="44.1910167" lon="12.1161317"><ele>26.0</ele><time>2026-04-19T07:44:13.356Z</time></trkpt><trkpt lat="44.19105" lon="12.1160383"><ele>26.0</ele><time>2026-04-19T07:44:15.356Z</time></trkpt><trkpt lat="44.1910933" lon="12.1159683"><ele>26.0</ele><time>2026-04-19T07:44:17.357Z</time></trkpt><trkpt lat="44.191155" lon="12.115945"><ele>26.0</ele><time>2026-04-19T07:44:19.356Z</time></trkpt><trkpt lat="44.1912283" lon="12.1159483"><ele>26.0</ele><time>2026-04-19T07:44:21.356Z</time></trkpt><trkpt lat="44.1913083" lon="12.1159283"><ele>26.0</ele><time>2026-04-19T07:44:23.357Z</time></trkpt><trkpt lat="44.1913833" lon="12.1158717"><ele>26.0</ele><time>2026-04-19T07:44:25.356Z</time></trkpt><trkpt lat="44.19145" lon="12.1157867"><ele>25.6</ele><time>2026-04-19T07:44:27.356Z</time></trkpt><trkpt lat="44.1915017" lon="12.1156767"><ele>25.200000000000003</ele><time>2026-04-19T07:44:29.356Z</time></trkpt><trkpt lat="44.1915583" lon="12.1155733"><ele>24.799999999999997</ele><time>2026-04-19T07:44:31.357Z</time></trkpt><trkpt lat="44.1916067" lon="12.1154683"><ele>24.4</ele><time>2026-04-19T07:44:33.357Z</time></trkpt><trkpt lat="44.191655" lon="12.1153667"><ele>24.0</ele><time>2026-04-19T07:44:35.357Z</time></trkpt><trkpt lat="44.1917067" lon="12.1152667"><ele>24.0</ele><time>2026-04-19T07:44:37.356Z</time></trkpt><trkpt lat="44.191765" lon="12.1151783"><ele>24.0</ele><time>2026-04-19T07:44:39.357Z</time></trkpt><trkpt lat="44.1918167" lon="12.115085"><ele>24.0</ele><time>2026-04-19T07:44:41.356Z</time></trkpt><trkpt lat="44.1918617" lon="12.114985"><ele>24.0</ele><time>2026-04-19T07:44:43.357Z</time></trkpt><trkpt lat="44.1918967" lon="12.1148767"><ele>24.0</ele><time>2026-04-19T07:44:45.357Z</time></trkpt><trkpt lat="44.191935" lon="12.1147717"><ele>24.0</ele><time>2026-04-19T07:44:47.357Z</time></trkpt><trkpt lat="44.1919717" lon="12.114665"><ele>24.166666666666668</ele><time>2026-04-19T07:44:49.357Z</time></trkpt><trkpt lat="44.1920117" lon="12.1145633"><ele>24.333333333333336</ele><time>2026-04-19T07:44:51.356Z</time></trkpt><trkpt lat="44.1920483" lon="12.114455"><ele>24.5</ele><time>2026-04-19T07:44:53.357Z</time></trkpt><trkpt lat="44.1920933" lon="12.1143567"><ele>24.666666666666668</ele><time>2026-04-19T07:44:55.356Z</time></trkpt><trkpt lat="44.1921233" lon="12.11425"><ele>24.833333333333336</ele><time>2026-04-19T07:44:57.356Z</time></trkpt><trkpt lat="44.192155" lon="12.1141383"><ele>25.0</ele><time>2026-04-19T07:44:59.356Z</time></trkpt><trkpt lat="44.1921883" lon="12.1140283"><ele>25.000000000000004</ele><time>2026-04-19T07:45:01.357Z</time></trkpt><trkpt lat="44.1922283" lon="12.1139217"><ele>25.0</ele><time>2026-04-19T07:45:03.357Z</time></trkpt><trkpt lat="44.1922733" lon="12.1138117"><ele>25.0</ele><time>2026-04-19T07:45:05.356Z</time></trkpt><trkpt lat="44.1923117" lon="12.1137083"><ele>25.0</ele><time>2026-04-19T07:45:07.356Z</time></trkpt><trkpt lat="44.1923433" lon="12.1136117"><ele>25.000000000000004</ele><time>2026-04-19T07:45:09.356Z</time></trkpt><trkpt lat="44.1923767" lon="12.11353"><ele>25.0</ele><time>2026-04-19T07:45:11.357Z</time></trkpt><trkpt lat="44.1924117" lon="12.11344"><ele>25.166666666666668</ele><time>2026-04-19T07:45:13.356Z</time></trkpt><trkpt lat="44.19245" lon="12.113355"><ele>25.333333333333336</ele><time>2026-04-19T07:45:15.357Z</time></trkpt><trkpt lat="44.1925017" lon="12.1132783"><ele>25.5</ele><time>2026-04-19T07:45:17.356Z</time></trkpt><trkpt lat="44.1925933" lon="12.1132833"><ele>25.666666666666664</ele><time>2026-04-19T07:45:20.357Z</time></trkpt><trkpt lat="44.19266" lon="12.1133283"><ele>25.833333333333332</ele><time>2026-04-19T07:45:22.357Z</time></trkpt><trkpt lat="44.1927183" lon="12.1133817"><ele>26.0</ele><time>2026-04-19T07:45:24.356Z</time></trkpt><trkpt lat="44.1927817" lon="12.1134317"><ele>26.0</ele><time>2026-04-19T07:45:26.357Z</time></trkpt><trkpt lat="44.1928683" lon="12.1134367"><ele>26.0</ele><time>2026-04-19T07:45:29.356Z</time></trkpt><trkpt lat="44.1929133" lon="12.11336"><ele>26.0</ele><time>2026-04-19T07:45:31.357Z</time></trkpt><trkpt lat="44.1929533" lon="12.1132667"><ele>26.0</ele><time>2026-04-19T07:45:33.357Z</time></trkpt><trkpt lat="44.1930017" lon="12.113145"><ele>26.0</ele><time>2026-04-19T07:45:35.356Z</time></trkpt><trkpt lat="44.193075" lon="12.1129567"><ele>25.8</ele><time>2026-04-19T07:45:38.356Z</time></trkpt><trkpt lat="44.1931217" lon="12.1128317"><ele>25.6</ele><time>2026-04-19T07:45:40.357Z</time></trkpt><trkpt lat="44.1931617" lon="12.1126983"><ele>25.4</ele><time>2026-04-19T07:45:42.357Z</time></trkpt><trkpt lat="44.1932017" lon="12.1125567"><ele>25.2</ele><time>2026-04-19T07:45:44.357Z</time></trkpt><trkpt lat="44.1932417" lon="12.1124667"><ele>25.0</ele><time>2026-04-19T07:45:45.357Z</time></trkpt><trkpt lat="44.1932817" lon="12.1123783"><ele>24.833333333333336</ele><time>2026-04-19T07:45:46.357Z</time></trkpt><trkpt lat="44.1933417" lon="12.1122517"><ele>24.666666666666668</ele><time>2026-04-19T07:45:48.357Z</time></trkpt><trkpt lat="44.1933783" lon="12.1121267"><ele>24.5</ele><time>2026-04-19T07:45:50.356Z</time></trkpt><trkpt lat="44.193385" lon="12.112015"><ele>24.333333333333336</ele><time>2026-04-19T07:45:52.357Z</time></trkpt><trkpt lat="44.19337" lon="12.1119167"><ele>24.166666666666668</ele><time>2026-04-19T07:45:54.356Z</time></trkpt><trkpt lat="44.1933433" lon="12.1118233"><ele>24.0</ele><time>2026-04-19T07:45:56.356Z</time></trkpt><trkpt lat="44.19333" lon="12.111735"><ele>24.0</ele><time>2026-04-19T07:45:58.357Z</time></trkpt><trkpt lat="44.1933017" lon="12.1116167"><ele>24.0</ele><time>2026-04-19T07:46:01.356Z</time></trkpt><trkpt lat="44.1932933" lon="12.111495"><ele>24.0</ele><time>2026-04-19T07:46:04.357Z</time></trkpt><trkpt lat="44.1933017" lon="12.111375"><ele>24.0</ele><time>2026-04-19T07:46:07.357Z</time></trkpt><trkpt lat="44.1933133" lon="12.1112467"><ele>24.0</ele><time>2026-04-19T07:46:10.357Z</time></trkpt><trkpt lat="44.1933233" lon="12.1111583"><ele>24.0</ele><time>2026-04-19T07:46:12.357Z</time></trkpt><trkpt lat="44.193335" lon="12.111065"><ele>23.999999999999996</ele><time>2026-04-19T07:46:14.356Z</time></trkpt><trkpt lat="44.1933433" lon="12.1109633"><ele>24.0</ele><time>2026-04-19T07:46:16.357Z</time></trkpt><trkpt lat="44.1933533" lon="12.110865"><ele>24.0</ele><time>2026-04-19T07:46:18.356Z</time></trkpt><trkpt lat="44.1933683" lon="12.11076"><ele>24.0</ele><time>2026-04-19T07:46:20.357Z</time></trkpt><trkpt lat="44.19339" lon="12.1106583"><ele>24.0</ele><time>2026-04-19T07:46:22.356Z</time></trkpt><trkpt lat="44.1934117" lon="12.1105617"><ele>23.999999999999996</ele><time>2026-04-19T07:46:24.357Z</time></trkpt><trkpt lat="44.19344" lon="12.11047"><ele>24.0</ele><time>2026-04-19T07:46:26.357Z</time></trkpt><trkpt lat="44.1934733" lon="12.1103783"><ele>24.285714285714285</ele><time>2026-04-19T07:46:28.356Z</time></trkpt><trkpt lat="44.1935033" lon="12.11029"><ele>24.57142857142857</ele><time>2026-04-19T07:46:30.356Z</time></trkpt><trkpt lat="44.1934917" lon="12.1101983"><ele>24.857142857142854</ele><time>2026-04-19T07:46:32.356Z</time></trkpt><trkpt lat="44.193495" lon="12.1101067"><ele>25.142857142857142</ele><time>2026-04-19T07:46:34.356Z</time></trkpt><trkpt lat="44.1935283" lon="12.1100233"><ele>25.42857142857143</ele><time>2026-04-19T07:46:36.357Z</time></trkpt><trkpt lat="44.1935467" lon="12.10993"><ele>25.71428571428571</ele><time>2026-04-19T07:46:38.356Z</time></trkpt><trkpt lat="44.1935767" lon="12.1098383"><ele>26.0</ele><time>2026-04-19T07:46:40.357Z</time></trkpt><trkpt lat="44.1936117" lon="12.10975"><ele>26.0</ele><time>2026-04-19T07:46:42.356Z</time></trkpt><trkpt lat="44.1936583" lon="12.10967"><ele>26.0</ele><time>2026-04-19T07:46:44.356Z</time></trkpt><trkpt lat="44.1937" lon="12.1095917"><ele>26.0</ele><time>2026-04-19T07:46:46.356Z</time></trkpt><trkpt lat="44.19374" lon="12.1095083"><ele>26.0</ele><time>2026-04-19T07:46:48.357Z</time></trkpt><trkpt lat="44.1937567" lon="12.10941"><ele>26.0</ele><time>2026-04-19T07:46:50.357Z</time></trkpt><trkpt lat="44.19378" lon="12.10931"><ele>26.0</ele><time>2026-04-19T07:46:52.356Z</time></trkpt><trkpt lat="44.1938067" lon="12.10921"><ele>26.0</ele><time>2026-04-19T07:46:54.357Z</time></trkpt><trkpt lat="44.1938383" lon="12.1091083"><ele>25.833333333333332</ele><time>2026-04-19T07:46:56.356Z</time></trkpt><trkpt lat="44.19388" lon="12.1090133"><ele>25.666666666666664</ele><time>2026-04-19T07:46:58.357Z</time></trkpt><trkpt lat="44.19392" lon="12.1089133"><ele>25.5</ele><time>2026-04-19T07:47:00.357Z</time></trkpt><trkpt lat="44.193955" lon="12.1088133"><ele>25.333333333333336</ele><time>2026-04-19T07:47:02.356Z</time></trkpt><trkpt lat="44.1939883" lon="12.108715"><ele>25.166666666666668</ele><time>2026-04-19T07:47:04.357Z</time></trkpt><trkpt lat="44.1940283" lon="12.1086267"><ele>25.0</ele><time>2026-04-19T07:47:06.357Z</time></trkpt><trkpt lat="44.194065" lon="12.1085367"><ele>25.28571428571429</ele><time>2026-04-19T07:47:08.356Z</time></trkpt><trkpt lat="44.19411" lon="12.10846"><ele>25.571428571428573</ele><time>2026-04-19T07:47:10.356Z</time></trkpt><trkpt lat="44.1941467" lon="12.108375"><ele>25.857142857142858</ele><time>2026-04-19T07:47:12.357Z</time></trkpt><trkpt lat="44.1941817" lon="12.108285"><ele>26.142857142857146</ele><time>2026-04-19T07:47:14.357Z</time></trkpt><trkpt lat="44.194215" lon="12.108195"><ele>26.428571428571427</ele><time>2026-04-19T07:47:16.357Z</time></trkpt><trkpt lat="44.194245" lon="12.1081083"><ele>26.714285714285715</ele><time>2026-04-19T07:47:18.356Z</time></trkpt><trkpt lat="44.1942783" lon="12.1080183"><ele>27.0</ele><time>2026-04-19T07:47:20.357Z</time></trkpt><trkpt lat="44.1943167" lon="12.1079167"><ele>27.0</ele><time>2026-04-19T07:47:22.356Z</time></trkpt><trkpt lat="44.1943533" lon="12.1078183"><ele>27.0</ele><time>2026-04-19T07:47:24.356Z</time></trkpt><trkpt lat="44.1943883" lon="12.1077267"><ele>27.0</ele><time>2026-04-19T07:47:26.357Z</time></trkpt><trkpt lat="44.1944233" lon="12.107635"><ele>27.0</ele><time>2026-04-19T07:47:28.356Z</time></trkpt><trkpt lat="44.1944533" lon="12.1075367"><ele>27.0</ele><time>2026-04-19T07:47:30.357Z</time></trkpt><trkpt lat="44.19448" lon="12.107435"><ele>27.0</ele><time>2026-04-19T07:47:32.357Z</time></trkpt><trkpt lat="44.19453" lon="12.1073467"><ele>27.0</ele><time>2026-04-19T07:47:34.357Z</time></trkpt><trkpt lat="44.1945767" lon="12.10725"><ele>27.0</ele><time>2026-04-19T07:47:36.357Z</time></trkpt><trkpt lat="44.19461" lon="12.1071617"><ele>27.0</ele><time>2026-04-19T07:47:38.357Z</time></trkpt><trkpt lat="44.1946383" lon="12.1070633"><ele>27.0</ele><time>2026-04-19T07:47:40.356Z</time></trkpt><trkpt lat="44.1946767" lon="12.1069767"><ele>27.0</ele><time>2026-04-19T07:47:42.356Z</time></trkpt><trkpt lat="44.1947167" lon="12.1068767"><ele>27.0</ele><time>2026-04-19T07:47:44.356Z</time></trkpt><trkpt lat="44.1947517" lon="12.1067817"><ele>27.0</ele><time>2026-04-19T07:47:46.357Z</time></trkpt><trkpt lat="44.1947967" lon="12.1066867"><ele>27.0</ele><time>2026-04-19T07:47:48.356Z</time></trkpt><trkpt lat="44.1948417" lon="12.1065917"><ele>27.0</ele><time>2026-04-19T07:47:50.357Z</time></trkpt><trkpt lat="44.1948833" lon="12.1065033"><ele>27.0</ele><time>2026-04-19T07:47:52.357Z</time></trkpt><trkpt lat="44.1949217" lon="12.10641"><ele>27.0</ele><time>2026-04-19T07:47:54.356Z</time></trkpt><trkpt lat="44.1949583" lon="12.1063183"><ele>27.0</ele><time>2026-04-19T07:47:56.356Z</time></trkpt><trkpt lat="44.195005" lon="12.1062267"><ele>27.0</ele><time>2026-04-19T07:47:58.357Z</time></trkpt><trkpt lat="44.1950417" lon="12.1061317"><ele>27.0</ele><time>2026-04-19T07:48:00.357Z</time></trkpt><trkpt lat="44.195075" lon="12.1060417"><ele>27.0</ele><time>2026-04-19T07:48:02.356Z</time></trkpt><trkpt lat="44.1951117" lon="12.105955"><ele>27.0</ele><time>2026-04-19T07:48:04.357Z</time></trkpt><trkpt lat="44.1951433" lon="12.10586"><ele>27.0</ele><time>2026-04-19T07:48:06.356Z</time></trkpt><trkpt lat="44.1951833" lon="12.105775"><ele>27.0</ele><time>2026-04-19T07:48:08.357Z</time></trkpt><trkpt lat="44.1952217" lon="12.1056833"><ele>27.0</ele><time>2026-04-19T07:48:10.357Z</time></trkpt><trkpt lat="44.1952633" lon="12.1055867"><ele>27.0</ele><time>2026-04-19T07:48:12.357Z</time></trkpt><trkpt lat="44.195305" lon="12.1054867"><ele>27.0</ele><time>2026-04-19T07:48:14.357Z</time></trkpt><trkpt lat="44.1953417" lon="12.1053883"><ele>27.0</ele><time>2026-04-19T07:48:16.357Z</time></trkpt><trkpt lat="44.1953817" lon="12.1052967"><ele>27.0</ele><time>2026-04-19T07:48:18.357Z</time></trkpt><trkpt lat="44.19542" lon="12.1051983"><ele>27.0</ele><time>2026-04-19T07:48:20.356Z</time></trkpt><trkpt lat="44.1954617" lon="12.1051033"><ele>27.0</ele><time>2026-04-19T07:48:22.356Z</time></trkpt><trkpt lat="44.1955" lon="12.1050083"><ele>26.833333333333332</ele><time>2026-04-19T07:48:24.356Z</time></trkpt><trkpt lat="44.195545" lon="12.1049117"><ele>26.666666666666664</ele><time>2026-04-19T07:48:26.357Z</time></trkpt><trkpt lat="44.195585" lon="12.1048117"><ele>26.5</ele><time>2026-04-19T07:48:28.356Z</time></trkpt><trkpt lat="44.19562" lon="12.104725"><ele>26.333333333333332</ele><time>2026-04-19T07:48:30.357Z</time></trkpt><trkpt lat="44.1956617" lon="12.1046367"><ele>26.166666666666664</ele><time>2026-04-19T07:48:32.357Z</time></trkpt><trkpt lat="44.1957067" lon="12.1045317"><ele>26.0</ele><time>2026-04-19T07:48:34.356Z</time></trkpt><trkpt lat="44.1957467" lon="12.1044433"><ele>26.166666666666664</ele><time>2026-04-19T07:48:36.357Z</time></trkpt><trkpt lat="44.19579" lon="12.1043467"><ele>26.333333333333332</ele><time>2026-04-19T07:48:38.356Z</time></trkpt><trkpt lat="44.195835" lon="12.1042617"><ele>26.5</ele><time>2026-04-19T07:48:40.357Z</time></trkpt><trkpt lat="44.1958767" lon="12.10418"><ele>26.666666666666664</ele><time>2026-04-19T07:48:42.356Z</time></trkpt><trkpt lat="44.1959117" lon="12.1040917"><ele>26.833333333333332</ele><time>2026-04-19T07:48:44.357Z</time></trkpt><trkpt lat="44.1959433" lon="12.1040033"><ele>27.0</ele><time>2026-04-19T07:48:46.357Z</time></trkpt><trkpt lat="44.19598" lon="12.1039017"><ele>27.0</ele><time>2026-04-19T07:48:48.356Z</time></trkpt><trkpt lat="44.1960133" lon="12.1038117"><ele>27.0</ele><time>2026-04-19T07:48:50.357Z</time></trkpt><trkpt lat="44.1960483" lon="12.1037267"><ele>27.0</ele><time>2026-04-19T07:48:52.357Z</time></trkpt><trkpt lat="44.196085" lon="12.1036417"><ele>27.0</ele><time>2026-04-19T07:48:54.356Z</time></trkpt><trkpt lat="44.1961233" lon="12.10354"><ele>27.0</ele><time>2026-04-19T07:48:56.356Z</time></trkpt><trkpt lat="44.1961683" lon="12.1034283"><ele>27.0</ele><time>2026-04-19T07:48:58.357Z</time></trkpt><trkpt lat="44.196205" lon="12.1033483"><ele>27.0</ele><time>2026-04-19T07:49:00.356Z</time></trkpt><trkpt lat="44.1962433" lon="12.1032533"><ele>27.0</ele><time>2026-04-19T07:49:02.357Z</time></trkpt><trkpt lat="44.196275" lon="12.1031517"><ele>27.0</ele><time>2026-04-19T07:49:04.356Z</time></trkpt><trkpt lat="44.1963117" lon="12.103065"><ele>27.0</ele><time>2026-04-19T07:49:06.356Z</time></trkpt><trkpt lat="44.1963433" lon="12.102975"><ele>27.0</ele><time>2026-04-19T07:49:08.356Z</time></trkpt><trkpt lat="44.1963733" lon="12.1028867"><ele>27.0</ele><time>2026-04-19T07:49:10.357Z</time></trkpt><trkpt lat="44.196405" lon="12.102795"><ele>27.0</ele><time>2026-04-19T07:49:12.356Z</time></trkpt><trkpt lat="44.1964383" lon="12.1027017"><ele>27.0</ele><time>2026-04-19T07:49:14.356Z</time></trkpt><trkpt lat="44.196475" lon="12.1026017"><ele>27.0</ele><time>2026-04-19T07:49:16.357Z</time></trkpt><trkpt lat="44.196515" lon="12.1025117"><ele>27.0</ele><time>2026-04-19T07:49:18.357Z</time></trkpt><trkpt lat="44.19655" lon="12.10242"><ele>27.0</ele><time>2026-04-19T07:49:20.357Z</time></trkpt><trkpt lat="44.19659" lon="12.102325"><ele>27.0</ele><time>2026-04-19T07:49:22.357Z</time></trkpt><trkpt lat="44.19662" lon="12.1022383"><ele>27.0</ele><time>2026-04-19T07:49:24.357Z</time></trkpt><trkpt lat="44.1966533" lon="12.1021133"><ele>27.0</ele><time>2026-04-19T07:49:27.356Z</time></trkpt><trkpt lat="44.196685" lon="12.1020283"><ele>27.0</ele><time>2026-04-19T07:49:29.356Z</time></trkpt><trkpt lat="44.1967233" lon="12.1019383"><ele>27.0</ele><time>2026-04-19T07:49:31.357Z</time></trkpt><trkpt lat="44.196755" lon="12.10185"><ele>27.0</ele><time>2026-04-19T07:49:33.357Z</time></trkpt><trkpt lat="44.196795" lon="12.101755"><ele>27.0</ele><time>2026-04-19T07:49:35.356Z</time></trkpt><trkpt lat="44.19683" lon="12.1016583"><ele>27.0</ele><time>2026-04-19T07:49:37.356Z</time></trkpt><trkpt lat="44.19686" lon="12.1015567"><ele>27.0</ele><time>2026-04-19T07:49:39.356Z</time></trkpt><trkpt lat="44.1968967" lon="12.1014483"><ele>27.0</ele><time>2026-04-19T07:49:41.357Z</time></trkpt><trkpt lat="44.1969283" lon="12.1013467"><ele>27.0</ele><time>2026-04-19T07:49:43.357Z</time></trkpt><trkpt lat="44.1969667" lon="12.101245"><ele>27.0</ele><time>2026-04-19T07:49:45.357Z</time></trkpt><trkpt lat="44.1970167" lon="12.10114"><ele>27.0</ele><time>2026-04-19T07:49:47.358Z</time></trkpt><trkpt lat="44.197055" lon="12.1010417"><ele>27.0</ele><time>2026-04-19T07:49:49.358Z</time></trkpt><trkpt lat="44.197095" lon="12.1009467"><ele>27.0</ele><time>2026-04-19T07:49:51.358Z</time></trkpt><trkpt lat="44.1971317" lon="12.10085"><ele>27.0</ele><time>2026-04-19T07:49:53.357Z</time></trkpt><trkpt lat="44.1971683" lon="12.100765"><ele>27.0</ele><time>2026-04-19T07:49:55.357Z</time></trkpt><trkpt lat="44.1972083" lon="12.1006633"><ele>27.0</ele><time>2026-04-19T07:49:57.358Z</time></trkpt><trkpt lat="44.19725" lon="12.1005717"><ele>27.0</ele><time>2026-04-19T07:49:59.358Z</time></trkpt><trkpt lat="44.1972867" lon="12.1004817"><ele>27.0</ele><time>2026-04-19T07:50:01.358Z</time></trkpt><trkpt lat="44.1973283" lon="12.1003917"><ele>27.0</ele><time>2026-04-19T07:50:03.357Z</time></trkpt><trkpt lat="44.197385" lon="12.10031"><ele>27.0</ele><time>2026-04-19T07:50:05.358Z</time></trkpt><trkpt lat="44.1974383" lon="12.1002133"><ele>27.0</ele><time>2026-04-19T07:50:07.358Z</time></trkpt><trkpt lat="44.1974833" lon="12.1001117"><ele>27.0</ele><time>2026-04-19T07:50:09.357Z</time></trkpt><trkpt lat="44.1975267" lon="12.0999983"><ele>27.0</ele><time>2026-04-19T07:50:11.358Z</time></trkpt><trkpt lat="44.1975683" lon="12.099875"><ele>27.0</ele><time>2026-04-19T07:50:13.358Z</time></trkpt><trkpt lat="44.1976233" lon="12.0997617"><ele>26.833333333333332</ele><time>2026-04-19T07:50:15.358Z</time></trkpt><trkpt lat="44.197665" lon="12.0996533"><ele>26.666666666666664</ele><time>2026-04-19T07:50:17.357Z</time></trkpt><trkpt lat="44.197715" lon="12.099565"><ele>26.5</ele><time>2026-04-19T07:50:19.357Z</time></trkpt><trkpt lat="44.1977617" lon="12.0994683"><ele>26.333333333333332</ele><time>2026-04-19T07:50:21.357Z</time></trkpt><trkpt lat="44.197805" lon="12.0993817"><ele>26.166666666666664</ele><time>2026-04-19T07:50:23.358Z</time></trkpt><trkpt lat="44.19784" lon="12.0992767"><ele>26.0</ele><time>2026-04-19T07:50:25.357Z</time></trkpt><trkpt lat="44.1978667" lon="12.0991683"><ele>25.999999999999996</ele><time>2026-04-19T07:50:27.357Z</time></trkpt><trkpt lat="44.19789" lon="12.09906"><ele>26.0</ele><time>2026-04-19T07:50:29.358Z</time></trkpt><trkpt lat="44.19792" lon="12.09896"><ele>26.0</ele><time>2026-04-19T07:50:31.357Z</time></trkpt><trkpt lat="44.197955" lon="12.098865"><ele>26.0</ele><time>2026-04-19T07:50:33.358Z</time></trkpt><trkpt lat="44.19799" lon="12.09877"><ele>25.999999999999996</ele><time>2026-04-19T07:50:35.358Z</time></trkpt><trkpt lat="44.19804" lon="12.0986783"><ele>26.0</ele><time>2026-04-19T07:50:37.358Z</time></trkpt><trkpt lat="44.1980867" lon="12.098585"><ele>25.999999999999996</ele><time>2026-04-19T07:50:39.358Z</time></trkpt><trkpt lat="44.1981317" lon="12.09849"><ele>26.0</ele><time>2026-04-19T07:50:41.357Z</time></trkpt><trkpt lat="44.1981733" lon="12.0983917"><ele>26.0</ele><time>2026-04-19T07:50:43.358Z</time></trkpt><trkpt lat="44.1982133" lon="12.0983033"><ele>26.0</ele><time>2026-04-19T07:50:45.358Z</time></trkpt><trkpt lat="44.1982583" lon="12.0982033"><ele>25.999999999999996</ele><time>2026-04-19T07:50:47.357Z</time></trkpt><trkpt lat="44.1983117" lon="12.0980983"><ele>26.0</ele><time>2026-04-19T07:50:49.358Z</time></trkpt><trkpt lat="44.1983733" lon="12.0980083"><ele>25.999999999999996</ele><time>2026-04-19T07:50:51.357Z</time></trkpt><trkpt lat="44.1984233" lon="12.097915"><ele>26.0</ele><time>2026-04-19T07:50:53.358Z</time></trkpt><trkpt lat="44.1984667" lon="12.09781"><ele>26.0</ele><time>2026-04-19T07:50:55.357Z</time></trkpt><trkpt lat="44.1985067" lon="12.0977067"><ele>26.0</ele><time>2026-04-19T07:50:57.357Z</time></trkpt><trkpt lat="44.1985433" lon="12.0975967"><ele>25.999999999999996</ele><time>2026-04-19T07:50:59.358Z</time></trkpt><trkpt lat="44.1985833" lon="12.0974883"><ele>26.0</ele><time>2026-04-19T07:51:01.358Z</time></trkpt><trkpt lat="44.1986317" lon="12.09738"><ele>25.8</ele><time>2026-04-19T07:51:03.357Z</time></trkpt><trkpt lat="44.198685" lon="12.0972667"><ele>25.6</ele><time>2026-04-19T07:51:05.357Z</time></trkpt><trkpt lat="44.1987333" lon="12.09715"><ele>25.4</ele><time>2026-04-19T07:51:07.358Z</time></trkpt><trkpt lat="44.198785" lon="12.0970417"><ele>25.2</ele><time>2026-04-19T07:51:09.357Z</time></trkpt><trkpt lat="44.19883" lon="12.0969383"><ele>25.0</ele><time>2026-04-19T07:51:11.358Z</time></trkpt><trkpt lat="44.198875" lon="12.0968383"><ele>25.000000000000004</ele><time>2026-04-19T07:51:13.358Z</time></trkpt><trkpt lat="44.1989133" lon="12.096745"><ele>25.0</ele><time>2026-04-19T07:51:15.358Z</time></trkpt><trkpt lat="44.1989433" lon="12.0966383"><ele>25.0</ele><time>2026-04-19T07:51:17.357Z</time></trkpt><trkpt lat="44.198975" lon="12.0965317"><ele>25.0</ele><time>2026-04-19T07:51:19.358Z</time></trkpt><trkpt lat="44.19901" lon="12.0964217"><ele>25.000000000000004</ele><time>2026-04-19T07:51:21.357Z</time></trkpt><trkpt lat="44.199045" lon="12.0963217"><ele>25.0</ele><time>2026-04-19T07:51:23.357Z</time></trkpt><trkpt lat="44.1990783" lon="12.09622"><ele>24.833333333333336</ele><time>2026-04-19T07:51:25.358Z</time></trkpt><trkpt lat="44.1991133" lon="12.0961083"><ele>24.666666666666668</ele><time>2026-04-19T07:51:27.358Z</time></trkpt><trkpt lat="44.1991517" lon="12.0960033"><ele>24.5</ele><time>2026-04-19T07:51:29.357Z</time></trkpt><trkpt lat="44.19919" lon="12.0958967"><ele>24.333333333333336</ele><time>2026-04-19T07:51:31.358Z</time></trkpt><trkpt lat="44.1992267" lon="12.0958033"><ele>24.166666666666668</ele><time>2026-04-19T07:51:33.358Z</time></trkpt><trkpt lat="44.199275" lon="12.09571"><ele>24.0</ele><time>2026-04-19T07:51:35.358Z</time></trkpt><trkpt lat="44.1993333" lon="12.0956117"><ele>24.4</ele><time>2026-04-19T07:51:37.357Z</time></trkpt><trkpt lat="44.1993983" lon="12.095525"><ele>24.799999999999997</ele><time>2026-04-19T07:51:39.357Z</time></trkpt><trkpt lat="44.1994817" lon="12.0954633"><ele>25.200000000000003</ele><time>2026-04-19T07:51:41.358Z</time></trkpt><trkpt lat="44.19958" lon="12.095425"><ele>25.6</ele><time>2026-04-19T07:51:43.358Z</time></trkpt><trkpt lat="44.1996733" lon="12.0954017"><ele>26.0</ele><time>2026-04-19T07:51:45.358Z</time></trkpt><trkpt lat="44.1997633" lon="12.0954"><ele>25.833333333333332</ele><time>2026-04-19T07:51:47.358Z</time></trkpt><trkpt lat="44.199845" lon="12.0953933"><ele>25.666666666666664</ele><time>2026-04-19T07:51:49.358Z</time></trkpt><trkpt lat="44.1999217" lon="12.0953733"><ele>25.5</ele><time>2026-04-19T07:51:51.357Z</time></trkpt><trkpt lat="44.1999967" lon="12.0953333"><ele>25.333333333333336</ele><time>2026-04-19T07:51:53.358Z</time></trkpt><trkpt lat="44.20007" lon="12.0953067"><ele>25.166666666666668</ele><time>2026-04-19T07:51:55.358Z</time></trkpt><trkpt lat="44.2001433" lon="12.0953133"><ele>25.0</ele><time>2026-04-19T07:51:57.358Z</time></trkpt><trkpt lat="44.2002133" lon="12.0953317"><ele>25.000000000000004</ele><time>2026-04-19T07:51:59.358Z</time></trkpt><trkpt lat="44.2002817" lon="12.09528"><ele>25.0</ele><time>2026-04-19T07:52:03.358Z</time></trkpt><trkpt lat="44.2003117" lon="12.0951767"><ele>25.0</ele><time>2026-04-19T07:52:06.357Z</time></trkpt><trkpt lat="44.2003317" lon="12.095085"><ele>25.0</ele><time>2026-04-19T07:52:08.357Z</time></trkpt><trkpt lat="44.200325" lon="12.0949883"><ele>25.0</ele><time>2026-04-19T07:52:10.358Z</time></trkpt><trkpt lat="44.2002817" lon="12.0949133"><ele>25.000000000000004</ele><time>2026-04-19T07:52:12.358Z</time></trkpt><trkpt lat="44.2002367" lon="12.0948283"><ele>25.0</ele><time>2026-04-19T07:52:14.357Z</time></trkpt><trkpt lat="44.2001983" lon="12.09474"><ele>25.000000000000004</ele><time>2026-04-19T07:52:16.358Z</time></trkpt><trkpt lat="44.2001717" lon="12.09464"><ele>25.0</ele><time>2026-04-19T07:52:18.358Z</time></trkpt><trkpt lat="44.200155" lon="12.0945383"><ele>25.0</ele><time>2026-04-19T07:52:20.357Z</time></trkpt><trkpt lat="44.2001467" lon="12.0944367"><ele>25.0</ele><time>2026-04-19T07:52:22.357Z</time></trkpt><trkpt lat="44.2001417" lon="12.094335"><ele>25.0</ele><time>2026-04-19T07:52:24.357Z</time></trkpt><trkpt lat="44.2001467" lon="12.09423"><ele>25.000000000000004</ele><time>2026-04-19T07:52:26.358Z</time></trkpt><trkpt lat="44.2001633" lon="12.09413"><ele>25.0</ele><time>2026-04-19T07:52:28.357Z</time></trkpt><trkpt lat="44.2001917" lon="12.0940283"><ele>25.000000000000004</ele><time>2026-04-19T07:52:30.358Z</time></trkpt><trkpt lat="44.200225" lon="12.0939333"><ele>25.0</ele><time>2026-04-19T07:52:32.358Z</time></trkpt><trkpt lat="44.200255" lon="12.09384"><ele>25.0</ele><time>2026-04-19T07:52:34.358Z</time></trkpt><trkpt lat="44.2002867" lon="12.0937483"><ele>25.0</ele><time>2026-04-19T07:52:36.358Z</time></trkpt><trkpt lat="44.2003283" lon="12.0936583"><ele>25.000000000000004</ele><time>2026-04-19T07:52:38.358Z</time></trkpt><trkpt lat="44.2003667" lon="12.0935517"><ele>25.0</ele><time>2026-04-19T07:52:40.358Z</time></trkpt><trkpt lat="44.2003933" lon="12.09345"><ele>25.000000000000004</ele><time>2026-04-19T07:52:42.358Z</time></trkpt><trkpt lat="44.200425" lon="12.0933333"><ele>25.0</ele><time>2026-04-19T07:52:44.358Z</time></trkpt><trkpt lat="44.2004483" lon="12.09323"><ele>25.0</ele><time>2026-04-19T07:52:46.358Z</time></trkpt><trkpt lat="44.2004833" lon="12.09314"><ele>25.0</ele><time>2026-04-19T07:52:48.358Z</time></trkpt><trkpt lat="44.2005283" lon="12.0930683"><ele>25.000000000000004</ele><time>2026-04-19T07:52:50.358Z</time></trkpt><trkpt lat="44.200585" lon="12.09301"><ele>25.0</ele><time>2026-04-19T07:52:52.358Z</time></trkpt><trkpt lat="44.2006433" lon="12.0929417"><ele>24.666666666666668</ele><time>2026-04-19T07:52:54.358Z</time></trkpt><trkpt lat="44.2006867" lon="12.0928633"><ele>24.333333333333336</ele><time>2026-04-19T07:52:56.358Z</time></trkpt><trkpt lat="44.20072" lon="12.0927717"><ele>24.0</ele><time>2026-04-19T07:52:58.358Z</time></trkpt><trkpt lat="44.2007617" lon="12.0926733"><ele>23.666666666666668</ele><time>2026-04-19T07:53:00.358Z</time></trkpt><trkpt lat="44.2008067" lon="12.0925883"><ele>23.333333333333336</ele><time>2026-04-19T07:53:02.357Z</time></trkpt><trkpt lat="44.2008633" lon="12.0925233"><ele>23.0</ele><time>2026-04-19T07:53:04.357Z</time></trkpt><trkpt lat="44.2009283" lon="12.0924717"><ele>22.42857142857143</ele><time>2026-04-19T07:53:06.357Z</time></trkpt><trkpt lat="44.2009917" lon="12.0924183"><ele>21.857142857142854</ele><time>2026-04-19T07:53:08.357Z</time></trkpt><trkpt lat="44.2010483" lon="12.09234"><ele>21.285714285714285</ele><time>2026-04-19T07:53:10.357Z</time></trkpt><trkpt lat="44.2010817" lon="12.0922567"><ele>20.714285714285715</ele><time>2026-04-19T07:53:12.358Z</time></trkpt><trkpt lat="44.20111" lon="12.09217"><ele>20.142857142857146</ele><time>2026-04-19T07:53:14.357Z</time></trkpt><trkpt lat="44.201155" lon="12.092085"><ele>19.57142857142857</ele><time>2026-04-19T07:53:16.357Z</time></trkpt><trkpt lat="44.2012067" lon="12.092"><ele>19.0</ele><time>2026-04-19T07:53:18.358Z</time></trkpt><trkpt lat="44.20127" lon="12.0919367"><ele>19.0</ele><time>2026-04-19T07:53:20.358Z</time></trkpt><trkpt lat="44.20133" lon="12.09188"><ele>19.0</ele><time>2026-04-19T07:53:22.358Z</time></trkpt><trkpt lat="44.201385" lon="12.0918167"><ele>19.0</ele><time>2026-04-19T07:53:24.358Z</time></trkpt><trkpt lat="44.2014217" lon="12.0917417"><ele>19.0</ele><time>2026-04-19T07:53:26.358Z</time></trkpt><trkpt lat="44.201435" lon="12.0916467"><ele>19.0</ele><time>2026-04-19T07:53:28.357Z</time></trkpt><trkpt lat="44.2014317" lon="12.091545"><ele>19.0</ele><time>2026-04-19T07:53:30.357Z</time></trkpt><trkpt lat="44.2014317" lon="12.0914433"><ele>19.0</ele><time>2026-04-19T07:53:32.358Z</time></trkpt><trkpt lat="44.2014483" lon="12.0913417"><ele>19.166666666666664</ele><time>2026-04-19T07:53:34.357Z</time></trkpt><trkpt lat="44.201485" lon="12.0912583"><ele>19.333333333333332</ele><time>2026-04-19T07:53:36.358Z</time></trkpt><trkpt lat="44.2015317" lon="12.0911767"><ele>19.5</ele><time>2026-04-19T07:53:38.358Z</time></trkpt><trkpt lat="44.2015733" lon="12.091095"><ele>19.666666666666668</ele><time>2026-04-19T07:53:40.358Z</time></trkpt><trkpt lat="44.2016233" lon="12.0910067"><ele>19.833333333333336</ele><time>2026-04-19T07:53:42.358Z</time></trkpt><trkpt lat="44.20167" lon="12.0909183"><ele>20.0</ele><time>2026-04-19T07:53:44.357Z</time></trkpt><trkpt lat="44.2017183" lon="12.0908267"><ele>19.5</ele><time>2026-04-19T07:53:46.358Z</time></trkpt><trkpt lat="44.2017667" lon="12.090735"><ele>19.0</ele><time>2026-04-19T07:53:48.358Z</time></trkpt><trkpt lat="44.20181" lon="12.0906467"><ele>18.5</ele><time>2026-04-19T07:53:50.358Z</time></trkpt><trkpt lat="44.2018517" lon="12.090555"><ele>18.0</ele><time>2026-04-19T07:53:52.357Z</time></trkpt><trkpt lat="44.2018867" lon="12.0904567"><ele>17.5</ele><time>2026-04-19T07:53:54.357Z</time></trkpt><trkpt lat="44.2019233" lon="12.09036"><ele>17.0</ele><time>2026-04-19T07:53:56.358Z</time></trkpt><trkpt lat="44.2019617" lon="12.0902617"><ele>17.0</ele><time>2026-04-19T07:53:58.357Z</time></trkpt><trkpt lat="44.2019983" lon="12.0901667"><ele>17.0</ele><time>2026-04-19T07:54:00.358Z</time></trkpt><trkpt lat="44.2020367" lon="12.09007"><ele>17.0</ele><time>2026-04-19T07:54:02.358Z</time></trkpt><trkpt lat="44.2020767" lon="12.0899683"><ele>17.0</ele><time>2026-04-19T07:54:04.358Z</time></trkpt><trkpt lat="44.2021133" lon="12.0898767"><ele>17.0</ele><time>2026-04-19T07:54:06.357Z</time></trkpt><trkpt lat="44.2021483" lon="12.0897817"><ele>17.0</ele><time>2026-04-19T07:54:08.357Z</time></trkpt><trkpt lat="44.202185" lon="12.0896833"><ele>16.999999999999996</ele><time>2026-04-19T07:54:10.357Z</time></trkpt><trkpt lat="44.2022167" lon="12.08958"><ele>17.0</ele><time>2026-04-19T07:54:12.358Z</time></trkpt><trkpt lat="44.2022483" lon="12.08948"><ele>17.0</ele><time>2026-04-19T07:54:14.358Z</time></trkpt><trkpt lat="44.2022733" lon="12.0893833"><ele>17.0</ele><time>2026-04-19T07:54:16.358Z</time></trkpt><trkpt lat="44.20229" lon="12.0892917"><ele>17.0</ele><time>2026-04-19T07:54:18.357Z</time></trkpt><trkpt lat="44.2023" lon="12.0892017"><ele>16.999999999999996</ele><time>2026-04-19T07:54:20.357Z</time></trkpt><trkpt lat="44.2023167" lon="12.0891117"><ele>17.0</ele><time>2026-04-19T07:54:22.358Z</time></trkpt><trkpt lat="44.2023417" lon="12.0890233"><ele>18.166666666666668</ele><time>2026-04-19T07:54:24.358Z</time></trkpt><trkpt lat="44.20236" lon="12.088935"><ele>19.333333333333336</ele><time>2026-04-19T07:54:26.357Z</time></trkpt><trkpt lat="44.2023767" lon="12.0888283"><ele>20.5</ele><time>2026-04-19T07:54:28.357Z</time></trkpt><trkpt lat="44.2024017" lon="12.0887133"><ele>21.666666666666668</ele><time>2026-04-19T07:54:30.357Z</time></trkpt><trkpt lat="44.202425" lon="12.0885967"><ele>22.833333333333332</ele><time>2026-04-19T07:54:32.358Z</time></trkpt><trkpt lat="44.2024433" lon="12.0884867"><ele>24.0</ele><time>2026-04-19T07:54:34.358Z</time></trkpt><trkpt lat="44.202475" lon="12.0883783"><ele>24.0</ele><time>2026-04-19T07:54:36.358Z</time></trkpt><trkpt lat="44.2025033" lon="12.0882733"><ele>24.0</ele><time>2026-04-19T07:54:38.358Z</time></trkpt><trkpt lat="44.2025267" lon="12.088175"><ele>24.0</ele><time>2026-04-19T07:54:40.358Z</time></trkpt><trkpt lat="44.202555" lon="12.0880883"><ele>24.0</ele><time>2026-04-19T07:54:42.357Z</time></trkpt><trkpt lat="44.2025883" lon="12.087955"><ele>24.0</ele><time>2026-04-19T07:54:45.357Z</time></trkpt><trkpt lat="44.2026083" lon="12.087865"><ele>24.0</ele><time>2026-04-19T07:54:47.358Z</time></trkpt><trkpt lat="44.2026383" lon="12.0877767"><ele>23.857142857142854</ele><time>2026-04-19T07:54:49.358Z</time></trkpt><trkpt lat="44.202675" lon="12.087685"><ele>23.714285714285715</ele><time>2026-04-19T07:54:51.358Z</time></trkpt><trkpt lat="44.202715" lon="12.0875917"><ele>23.57142857142857</ele><time>2026-04-19T07:54:53.357Z</time></trkpt><trkpt lat="44.20275" lon="12.0875017"><ele>23.428571428571427</ele><time>2026-04-19T07:54:55.357Z</time></trkpt><trkpt lat="44.202785" lon="12.087415"><ele>23.285714285714285</ele><time>2026-04-19T07:54:57.357Z</time></trkpt><trkpt lat="44.2028167" lon="12.087335"><ele>23.142857142857142</ele><time>2026-04-19T07:54:59.357Z</time></trkpt><trkpt lat="44.2028517" lon="12.0872533"><ele>23.0</ele><time>2026-04-19T07:55:01.357Z</time></trkpt><trkpt lat="44.20289" lon="12.087165"><ele>22.166666666666668</ele><time>2026-04-19T07:55:03.357Z</time></trkpt><trkpt lat="44.2029317" lon="12.0870767"><ele>21.333333333333336</ele><time>2026-04-19T07:55:05.357Z</time></trkpt><trkpt lat="44.2029683" lon="12.08698"><ele>20.5</ele><time>2026-04-19T07:55:07.357Z</time></trkpt><trkpt lat="44.203005" lon="12.0868817"><ele>19.666666666666668</ele><time>2026-04-19T07:55:09.358Z</time></trkpt><trkpt lat="44.2030433" lon="12.0867867"><ele>18.833333333333332</ele><time>2026-04-19T07:55:11.358Z</time></trkpt><trkpt lat="44.2030817" lon="12.0866933"><ele>18.0</ele><time>2026-04-19T07:55:13.357Z</time></trkpt><trkpt lat="44.2031217" lon="12.0866033"><ele>18.333333333333332</ele><time>2026-04-19T07:55:15.357Z</time></trkpt><trkpt lat="44.20316" lon="12.0865083"><ele>18.666666666666668</ele><time>2026-04-19T07:55:17.358Z</time></trkpt><trkpt lat="44.2032" lon="12.086415"><ele>19.0</ele><time>2026-04-19T07:55:19.358Z</time></trkpt><trkpt lat="44.2032417" lon="12.0863217"><ele>19.333333333333336</ele><time>2026-04-19T07:55:21.357Z</time></trkpt><trkpt lat="44.20328" lon="12.0862267"><ele>19.666666666666668</ele><time>2026-04-19T07:55:23.357Z</time></trkpt><trkpt lat="44.2033183" lon="12.086145"><ele>20.0</ele><time>2026-04-19T07:55:25.357Z</time></trkpt><trkpt lat="44.2033567" lon="12.086065"><ele>20.0</ele><time>2026-04-19T07:55:27.357Z</time></trkpt><trkpt lat="44.2033883" lon="12.0859767"><ele>20.0</ele><time>2026-04-19T07:55:29.358Z</time></trkpt><trkpt lat="44.2034283" lon="12.0858833"><ele>20.0</ele><time>2026-04-19T07:55:31.357Z</time></trkpt><trkpt lat="44.2034667" lon="12.0857883"><ele>20.0</ele><time>2026-04-19T07:55:33.357Z</time></trkpt><trkpt lat="44.2035059" lon="12.0856869"><ele>20.0</ele><time>2026-04-19T07:55:35.45Z</time></trkpt><trkpt lat="44.2035539" lon="12.0855695"><ele>20.0</ele><time>2026-04-19T07:55:38.357Z</time></trkpt><trkpt lat="44.203589" lon="12.0854822"><ele>20.5</ele><time>2026-04-19T07:55:40.379Z</time></trkpt><trkpt lat="44.2036182" lon="12.0853921"><ele>21.0</ele><time>2026-04-19T07:55:42.411Z</time></trkpt><trkpt lat="44.2036494" lon="12.0853038"><ele>21.5</ele><time>2026-04-19T07:55:44.358Z</time></trkpt><trkpt lat="44.2036866" lon="12.0852141"><ele>22.0</ele><time>2026-04-19T07:55:46.373Z</time></trkpt><trkpt lat="44.2037216" lon="12.0851256"><ele>22.5</ele><time>2026-04-19T07:55:48.405Z</time></trkpt><trkpt lat="44.2037661" lon="12.0850293"><ele>23.0</ele><time>2026-04-19T07:55:50.371Z</time></trkpt><trkpt lat="44.2038119" lon="12.0849247"><ele>23.333333333333336</ele><time>2026-04-19T07:55:52.368Z</time></trkpt><trkpt lat="44.2038617" lon="12.084825"><ele>23.666666666666668</ele><time>2026-04-19T07:55:54.358Z</time></trkpt><trkpt lat="44.2038933" lon="12.0847417"><ele>24.0</ele><time>2026-04-19T07:55:56.358Z</time></trkpt><trkpt lat="44.203945" lon="12.08463"><ele>24.333333333333336</ele><time>2026-04-19T07:55:59.357Z</time></trkpt><trkpt lat="44.203975" lon="12.0845483"><ele>24.666666666666668</ele><time>2026-04-19T07:56:01.357Z</time></trkpt><trkpt lat="44.2040083" lon="12.0844583"><ele>25.0</ele><time>2026-04-19T07:56:03.357Z</time></trkpt><trkpt lat="44.2040483" lon="12.0843683"><ele>25.166666666666668</ele><time>2026-04-19T07:56:05.358Z</time></trkpt><trkpt lat="44.204085" lon="12.0842883"><ele>25.333333333333336</ele><time>2026-04-19T07:56:07.357Z</time></trkpt><trkpt lat="44.20412" lon="12.084205"><ele>25.5</ele><time>2026-04-19T07:56:09.357Z</time></trkpt><trkpt lat="44.2041733" lon="12.08409"><ele>25.666666666666664</ele><time>2026-04-19T07:56:12.357Z</time></trkpt><trkpt lat="44.2042167" lon="12.08401"><ele>25.833333333333332</ele><time>2026-04-19T07:56:14.358Z</time></trkpt><trkpt lat="44.20428" lon="12.08395"><ele>26.0</ele><time>2026-04-19T07:56:17.358Z</time></trkpt><trkpt lat="44.2043383" lon="12.0838867"><ele>25.999999999999996</ele><time>2026-04-19T07:56:20.358Z</time></trkpt><trkpt lat="44.2044217" lon="12.083865"><ele>26.0</ele><time>2026-04-19T07:56:23.357Z</time></trkpt><trkpt lat="44.204495" lon="12.0838683"><ele>26.0</ele><time>2026-04-19T07:56:26.358Z</time></trkpt><trkpt lat="44.204595" lon="12.0838767"><ele>26.0</ele><time>2026-04-19T07:57:31.357Z</time></trkpt><trkpt lat="44.2046383" lon="12.08381"><ele>25.999999999999996</ele><time>2026-04-19T07:57:36.358Z</time></trkpt><trkpt lat="44.204685" lon="12.083725"><ele>26.0</ele><time>2026-04-19T07:57:39.358Z</time></trkpt><trkpt lat="44.2046567" lon="12.0836167"><ele>26.0</ele><time>2026-04-19T07:57:42.358Z</time></trkpt><trkpt lat="44.2046317" lon="12.0835283"><ele>26.0</ele><time>2026-04-19T07:57:45.358Z</time></trkpt><trkpt lat="44.204605" lon="12.0834383"><ele>26.0</ele><time>2026-04-19T07:57:48.358Z</time></trkpt><trkpt lat="44.204585" lon="12.083355"><ele>26.0</ele><time>2026-04-19T07:57:51.358Z</time></trkpt><trkpt lat="44.20458" lon="12.083235"><ele>26.0</ele><time>2026-04-19T07:57:55.357Z</time></trkpt><trkpt lat="44.2045883" lon="12.0831333"><ele>26.0</ele><time>2026-04-19T07:57:58.357Z</time></trkpt><trkpt lat="44.2046183" lon="12.0830467"><ele>26.0</ele><time>2026-04-19T07:58:01.357Z</time></trkpt><trkpt lat="44.2046517" lon="12.0829567"><ele>25.999999999999996</ele><time>2026-04-19T07:58:04.357Z</time></trkpt><trkpt lat="44.204695" lon="12.0828783"><ele>26.0</ele><time>2026-04-19T07:58:07.357Z</time></trkpt><trkpt lat="44.2047417" lon="12.082795"><ele>26.0</ele><time>2026-04-19T07:58:10.357Z</time></trkpt><trkpt lat="44.2047833" lon="12.0827133"><ele>26.0</ele><time>2026-04-19T07:58:13.357Z</time></trkpt><trkpt lat="44.2048183" lon="12.0826117"><ele>25.999999999999996</ele><time>2026-04-19T07:58:16.358Z</time></trkpt><trkpt lat="44.2048567" lon="12.0825117"><ele>26.0</ele><time>2026-04-19T07:58:19.358Z</time></trkpt><trkpt lat="44.2048933" lon="12.0824283"><ele>25.999999999999996</ele><time>2026-04-19T07:58:21.357Z</time></trkpt><trkpt lat="44.2049317" lon="12.082335"><ele>26.0</ele><time>2026-04-19T07:58:23.358Z</time></trkpt><trkpt lat="44.2049667" lon="12.08224"><ele>26.0</ele><time>2026-04-19T07:58:25.357Z</time></trkpt><trkpt lat="44.205" lon="12.0821367"><ele>26.0</ele><time>2026-04-19T07:58:27.358Z</time></trkpt><trkpt lat="44.2050417" lon="12.082045"><ele>25.999999999999996</ele><time>2026-04-19T07:58:29.358Z</time></trkpt><trkpt lat="44.20508" lon="12.0819433"><ele>26.0</ele><time>2026-04-19T07:58:31.358Z</time></trkpt><trkpt lat="44.2051167" lon="12.0818483"><ele>25.999999999999996</ele><time>2026-04-19T07:58:33.358Z</time></trkpt><trkpt lat="44.2051533" lon="12.081755"><ele>26.0</ele><time>2026-04-19T07:58:35.357Z</time></trkpt><trkpt lat="44.2051883" lon="12.0816683"><ele>26.0</ele><time>2026-04-19T07:58:37.357Z</time></trkpt><trkpt lat="44.20523" lon="12.0815783"><ele>26.0</ele><time>2026-04-19T07:58:39.357Z</time></trkpt><trkpt lat="44.2052817" lon="12.08146"><ele>25.999999999999996</ele><time>2026-04-19T07:58:42.358Z</time></trkpt><trkpt lat="44.2053283" lon="12.0813617"><ele>26.0</ele><time>2026-04-19T07:58:44.358Z</time></trkpt><trkpt lat="44.2053833" lon="12.0812833"><ele>25.999999999999996</ele><time>2026-04-19T07:58:46.358Z</time></trkpt><trkpt lat="44.2054367" lon="12.0811983"><ele>26.0</ele><time>2026-04-19T07:58:48.358Z</time></trkpt><trkpt lat="44.2054717" lon="12.0810933"><ele>26.0</ele><time>2026-04-19T07:58:50.357Z</time></trkpt><trkpt lat="44.2055" lon="12.0809867"><ele>26.0</ele><time>2026-04-19T07:58:52.358Z</time></trkpt><trkpt lat="44.2055367" lon="12.080915"><ele>25.999999999999996</ele><time>2026-04-19T07:58:54.358Z</time></trkpt><trkpt lat="44.2055833" lon="12.0808"><ele>26.0</ele><time>2026-04-19T07:58:56.357Z</time></trkpt><trkpt lat="44.2056317" lon="12.0806833"><ele>25.833333333333332</ele><time>2026-04-19T07:58:58.358Z</time></trkpt><trkpt lat="44.20567" lon="12.0805683"><ele>25.666666666666664</ele><time>2026-04-19T07:59:00.357Z</time></trkpt><trkpt lat="44.2057083" lon="12.0804667"><ele>25.5</ele><time>2026-04-19T07:59:02.358Z</time></trkpt><trkpt lat="44.205745" lon="12.0803717"><ele>25.333333333333336</ele><time>2026-04-19T07:59:04.357Z</time></trkpt><trkpt lat="44.2057883" lon="12.0802783"><ele>25.166666666666668</ele><time>2026-04-19T07:59:06.357Z</time></trkpt><trkpt lat="44.2058183" lon="12.0801833"><ele>25.0</ele><time>2026-04-19T07:59:08.358Z</time></trkpt><trkpt lat="44.20585" lon="12.0800967"><ele>25.000000000000004</ele><time>2026-04-19T07:59:10.357Z</time></trkpt><trkpt lat="44.205895" lon="12.0799967"><ele>25.0</ele><time>2026-04-19T07:59:12.358Z</time></trkpt><trkpt lat="44.2059383" lon="12.079895"><ele>25.0</ele><time>2026-04-19T07:59:14.357Z</time></trkpt><trkpt lat="44.2059767" lon="12.079785"><ele>25.0</ele><time>2026-04-19T07:59:16.358Z</time></trkpt><trkpt lat="44.20601" lon="12.0796883"><ele>25.000000000000004</ele><time>2026-04-19T07:59:18.357Z</time></trkpt><trkpt lat="44.2060383" lon="12.079595"><ele>25.0</ele><time>2026-04-19T07:59:20.358Z</time></trkpt><trkpt lat="44.2060767" lon="12.079495"><ele>25.000000000000004</ele><time>2026-04-19T07:59:22.358Z</time></trkpt><trkpt lat="44.2061233" lon="12.0793917"><ele>25.0</ele><time>2026-04-19T07:59:24.358Z</time></trkpt><trkpt lat="44.206175" lon="12.0792817"><ele>25.0</ele><time>2026-04-19T07:59:26.358Z</time></trkpt><trkpt lat="44.2062167" lon="12.0791717"><ele>25.0</ele><time>2026-04-19T07:59:28.358Z</time></trkpt><trkpt lat="44.20626" lon="12.07907"><ele>25.000000000000004</ele><time>2026-04-19T07:59:30.357Z</time></trkpt><trkpt lat="44.20631" lon="12.078965"><ele>25.0</ele><time>2026-04-19T07:59:32.358Z</time></trkpt><trkpt lat="44.20635" lon="12.0788633"><ele>25.000000000000004</ele><time>2026-04-19T07:59:34.358Z</time></trkpt><trkpt lat="44.2063933" lon="12.0787683"><ele>25.0</ele><time>2026-04-19T07:59:36.358Z</time></trkpt><trkpt lat="44.2064367" lon="12.0786483"><ele>25.0</ele><time>2026-04-19T07:59:38.358Z</time></trkpt><trkpt lat="44.2064733" lon="12.0785517"><ele>25.0</ele><time>2026-04-19T07:59:40.358Z</time></trkpt><trkpt lat="44.2065133" lon="12.0784617"><ele>25.000000000000004</ele><time>2026-04-19T07:59:42.357Z</time></trkpt><trkpt lat="44.206555" lon="12.0783717"><ele>25.0</ele><time>2026-04-19T07:59:44.357Z</time></trkpt><trkpt lat="44.2065933" lon="12.0782783"><ele>25.166666666666668</ele><time>2026-04-19T07:59:46.358Z</time></trkpt><trkpt lat="44.2066317" lon="12.0781767"><ele>25.333333333333336</ele><time>2026-04-19T07:59:48.358Z</time></trkpt><trkpt lat="44.206675" lon="12.0780733"><ele>25.5</ele><time>2026-04-19T07:59:50.357Z</time></trkpt><trkpt lat="44.2067133" lon="12.0779783"><ele>25.666666666666664</ele><time>2026-04-19T07:59:52.358Z</time></trkpt><trkpt lat="44.2067533" lon="12.0778867"><ele>25.833333333333332</ele><time>2026-04-19T07:59:54.357Z</time></trkpt><trkpt lat="44.20679" lon="12.0777883"><ele>26.0</ele><time>2026-04-19T07:59:56.358Z</time></trkpt><trkpt lat="44.206845" lon="12.0776933"><ele>25.999999999999996</ele><time>2026-04-19T07:59:58.358Z</time></trkpt><trkpt lat="44.2069133" lon="12.0776133"><ele>26.0</ele><time>2026-04-19T08:00:00.357Z</time></trkpt><trkpt lat="44.2069967" lon="12.07755"><ele>26.0</ele><time>2026-04-19T08:00:02.357Z</time></trkpt><trkpt lat="44.20707" lon="12.07749"><ele>26.0</ele><time>2026-04-19T08:00:04.358Z</time></trkpt><trkpt lat="44.2071433" lon="12.077455"><ele>25.999999999999996</ele><time>2026-04-19T08:00:06.358Z</time></trkpt><trkpt lat="44.2072083" lon="12.07741"><ele>26.0</ele><time>2026-04-19T08:00:08.357Z</time></trkpt><trkpt lat="44.2072017" lon="12.0772783"><ele>26.0</ele><time>2026-04-19T08:00:11.357Z</time></trkpt><trkpt lat="44.20719" lon="12.0771767"><ele>26.0</ele><time>2026-04-19T08:00:13.357Z</time></trkpt><trkpt lat="44.2071817" lon="12.07708"><ele>26.0</ele><time>2026-04-19T08:00:15.357Z</time></trkpt><trkpt lat="44.2071767" lon="12.07698"><ele>26.0</ele><time>2026-04-19T08:00:17.357Z</time></trkpt><trkpt lat="44.207185" lon="12.0768817"><ele>26.0</ele><time>2026-04-19T08:00:19.358Z</time></trkpt><trkpt lat="44.20721" lon="12.076785"><ele>26.0</ele><time>2026-04-19T08:00:21.358Z</time></trkpt><trkpt lat="44.20724" lon="12.0766917"><ele>26.0</ele><time>2026-04-19T08:00:23.358Z</time></trkpt><trkpt lat="44.2072767" lon="12.0766"><ele>25.999999999999996</ele><time>2026-04-19T08:00:25.357Z</time></trkpt><trkpt lat="44.2073117" lon="12.0765133"><ele>26.0</ele><time>2026-04-19T08:00:27.357Z</time></trkpt><trkpt lat="44.2073483" lon="12.0764217"><ele>26.0</ele><time>2026-04-19T08:00:29.358Z</time></trkpt><trkpt lat="44.207395" lon="12.0763167"><ele>26.0</ele><time>2026-04-19T08:00:31.357Z</time></trkpt><trkpt lat="44.2074383" lon="12.0762167"><ele>25.999999999999996</ele><time>2026-04-19T08:00:33.357Z</time></trkpt><trkpt lat="44.207485" lon="12.076115"><ele>26.0</ele><time>2026-04-19T08:00:35.358Z</time></trkpt><trkpt lat="44.2075267" lon="12.0760167"><ele>25.666666666666664</ele><time>2026-04-19T08:00:37.358Z</time></trkpt><trkpt lat="44.2075633" lon="12.07592"><ele>25.333333333333332</ele><time>2026-04-19T08:00:39.358Z</time></trkpt><trkpt lat="44.2075983" lon="12.0758217"><ele>25.0</ele><time>2026-04-19T08:00:41.357Z</time></trkpt><trkpt lat="44.2076433" lon="12.075725"><ele>24.666666666666664</ele><time>2026-04-19T08:00:43.358Z</time></trkpt><trkpt lat="44.2076867" lon="12.0756333"><ele>24.333333333333332</ele><time>2026-04-19T08:00:45.358Z</time></trkpt><trkpt lat="44.207735" lon="12.07554"><ele>24.0</ele><time>2026-04-19T08:00:47.357Z</time></trkpt><trkpt lat="44.2077817" lon="12.0754367"><ele>24.0</ele><time>2026-04-19T08:00:49.358Z</time></trkpt><trkpt lat="44.2078217" lon="12.0753333"><ele>24.0</ele><time>2026-04-19T08:00:51.358Z</time></trkpt><trkpt lat="44.2078583" lon="12.075225"><ele>24.0</ele><time>2026-04-19T08:00:53.358Z</time></trkpt><trkpt lat="44.2079083" lon="12.0751283"><ele>24.0</ele><time>2026-04-19T08:00:55.357Z</time></trkpt><trkpt lat="44.2079517" lon="12.075035"><ele>24.0</ele><time>2026-04-19T08:00:57.358Z</time></trkpt><trkpt lat="44.2079833" lon="12.07495"><ele>24.0</ele><time>2026-04-19T08:00:59.357Z</time></trkpt><trkpt lat="44.2080133" lon="12.0748567"><ele>24.0</ele><time>2026-04-19T08:01:01.358Z</time></trkpt><trkpt lat="44.2080483" lon="12.0747567"><ele>24.0</ele><time>2026-04-19T08:01:03.357Z</time></trkpt><trkpt lat="44.208085" lon="12.0746467"><ele>24.0</ele><time>2026-04-19T08:01:05.358Z</time></trkpt><trkpt lat="44.2081267" lon="12.0745517"><ele>24.0</ele><time>2026-04-19T08:01:07.357Z</time></trkpt><trkpt lat="44.2081683" lon="12.0744533"><ele>24.0</ele><time>2026-04-19T08:01:09.358Z</time></trkpt><trkpt lat="44.208215" lon="12.07436"><ele>24.0</ele><time>2026-04-19T08:01:11.357Z</time></trkpt><trkpt lat="44.20825" lon="12.07426"><ele>24.0</ele><time>2026-04-19T08:01:13.357Z</time></trkpt><trkpt lat="44.20829" lon="12.074155"><ele>24.0</ele><time>2026-04-19T08:01:15.358Z</time></trkpt><trkpt lat="44.2083333" lon="12.0740533"><ele>24.0</ele><time>2026-04-19T08:01:17.357Z</time></trkpt><trkpt lat="44.2083667" lon="12.0739567"><ele>24.0</ele><time>2026-04-19T08:01:19.358Z</time></trkpt><trkpt lat="44.2084067" lon="12.0738633"><ele>24.0</ele><time>2026-04-19T08:01:21.358Z</time></trkpt><trkpt lat="44.2084417" lon="12.0737767"><ele>24.0</ele><time>2026-04-19T08:01:23.358Z</time></trkpt><trkpt lat="44.2084783" lon="12.0736883"><ele>24.0</ele><time>2026-04-19T08:01:25.357Z</time></trkpt><trkpt lat="44.20852" lon="12.0735933"><ele>24.0</ele><time>2026-04-19T08:01:27.357Z</time></trkpt><trkpt lat="44.208565" lon="12.073495"><ele>24.0</ele><time>2026-04-19T08:01:29.358Z</time></trkpt><trkpt lat="44.2086" lon="12.0733967"><ele>24.0</ele><time>2026-04-19T08:01:31.358Z</time></trkpt><trkpt lat="44.2086383" lon="12.0732967"><ele>24.0</ele><time>2026-04-19T08:01:33.358Z</time></trkpt><trkpt lat="44.2086733" lon="12.0732"><ele>24.0</ele><time>2026-04-19T08:01:35.358Z</time></trkpt><trkpt lat="44.2087067" lon="12.07311"><ele>24.166666666666668</ele><time>2026-04-19T08:01:37.358Z</time></trkpt><trkpt lat="44.2087483" lon="12.073025"><ele>24.333333333333336</ele><time>2026-04-19T08:01:39.358Z</time></trkpt><trkpt lat="44.2087883" lon="12.0729383"><ele>24.5</ele><time>2026-04-19T08:01:41.357Z</time></trkpt><trkpt lat="44.2088267" lon="12.0728433"><ele>24.666666666666668</ele><time>2026-04-19T08:01:43.358Z</time></trkpt><trkpt lat="44.20887" lon="12.0727417"><ele>24.833333333333336</ele><time>2026-04-19T08:01:45.358Z</time></trkpt><trkpt lat="44.20891" lon="12.0726383"><ele>25.0</ele><time>2026-04-19T08:01:47.357Z</time></trkpt><trkpt lat="44.20895" lon="12.0725433"><ele>24.666666666666668</ele><time>2026-04-19T08:01:49.358Z</time></trkpt><trkpt lat="44.2090067" lon="12.07246"><ele>24.333333333333336</ele><time>2026-04-19T08:01:51.358Z</time></trkpt><trkpt lat="44.2090417" lon="12.0723617"><ele>24.0</ele><time>2026-04-19T08:01:53.357Z</time></trkpt><trkpt lat="44.2090767" lon="12.0722617"><ele>23.666666666666668</ele><time>2026-04-19T08:01:55.358Z</time></trkpt><trkpt lat="44.20912" lon="12.0721567"><ele>23.333333333333336</ele><time>2026-04-19T08:01:57.359Z</time></trkpt><trkpt lat="44.2091667" lon="12.0720633"><ele>23.0</ele><time>2026-04-19T08:01:59.358Z</time></trkpt><trkpt lat="44.209205" lon="12.0719633"><ele>22.833333333333336</ele><time>2026-04-19T08:02:01.359Z</time></trkpt><trkpt lat="44.209245" lon="12.0718617"><ele>22.666666666666668</ele><time>2026-04-19T08:02:03.358Z</time></trkpt><trkpt lat="44.2092783" lon="12.0717617"><ele>22.5</ele><time>2026-04-19T08:02:05.359Z</time></trkpt><trkpt lat="44.2093217" lon="12.0716567"><ele>22.333333333333332</ele><time>2026-04-19T08:02:07.359Z</time></trkpt><trkpt lat="44.209365" lon="12.0715583"><ele>22.166666666666664</ele><time>2026-04-19T08:02:09.359Z</time></trkpt><trkpt lat="44.2094067" lon="12.0714583"><ele>22.0</ele><time>2026-04-19T08:02:11.358Z</time></trkpt><trkpt lat="44.20945" lon="12.07136"><ele>22.0</ele><time>2026-04-19T08:02:13.359Z</time></trkpt><trkpt lat="44.2094917" lon="12.0712617"><ele>22.0</ele><time>2026-04-19T08:02:15.359Z</time></trkpt><trkpt lat="44.2095333" lon="12.07116"><ele>22.0</ele><time>2026-04-19T08:02:17.359Z</time></trkpt><trkpt lat="44.2095733" lon="12.07107"><ele>22.0</ele><time>2026-04-19T08:02:19.359Z</time></trkpt><trkpt lat="44.2096117" lon="12.07098"><ele>22.0</ele><time>2026-04-19T08:02:21.358Z</time></trkpt><trkpt lat="44.209645" lon="12.070885"><ele>22.0</ele><time>2026-04-19T08:02:23.359Z</time></trkpt><trkpt lat="44.20968" lon="12.070795"><ele>22.0</ele><time>2026-04-19T08:02:25.358Z</time></trkpt><trkpt lat="44.2097183" lon="12.0707"><ele>22.0</ele><time>2026-04-19T08:02:27.359Z</time></trkpt><trkpt lat="44.2097533" lon="12.0706133"><ele>22.0</ele><time>2026-04-19T08:02:29.359Z</time></trkpt><trkpt lat="44.2097933" lon="12.0705317"><ele>22.0</ele><time>2026-04-19T08:02:31.358Z</time></trkpt><trkpt lat="44.2098417" lon="12.070425"><ele>22.0</ele><time>2026-04-19T08:02:34.358Z</time></trkpt><trkpt lat="44.2098917" lon="12.0703233"><ele>22.0</ele><time>2026-04-19T08:02:37.358Z</time></trkpt><trkpt lat="44.2099717" lon="12.070255"><ele>22.0</ele><time>2026-04-19T08:02:40.359Z</time></trkpt><trkpt lat="44.2100567" lon="12.0702333"><ele>22.0</ele><time>2026-04-19T08:02:43.358Z</time></trkpt><trkpt lat="44.2101417" lon="12.07022"><ele>22.0</ele><time>2026-04-19T08:02:46.358Z</time></trkpt><trkpt lat="44.210205" lon="12.0702433"><ele>22.0</ele><time>2026-04-19T08:02:52.359Z</time></trkpt><trkpt lat="44.21025" lon="12.070175"><ele>22.0</ele><time>2026-04-19T08:02:58.359Z</time></trkpt><trkpt lat="44.210265" lon="12.07008"><ele>22.0</ele><time>2026-04-19T08:03:04.359Z</time></trkpt><trkpt lat="44.2102983" lon="12.0699933"><ele>22.0</ele><time>2026-04-19T08:03:08.359Z</time></trkpt><trkpt lat="44.2103183" lon="12.0698883"><ele>22.333333333333332</ele><time>2026-04-19T08:03:12.359Z</time></trkpt><trkpt lat="44.2103483" lon="12.0697933"><ele>22.666666666666664</ele><time>2026-04-19T08:03:15.358Z</time></trkpt><trkpt lat="44.2102983" lon="12.0697067"><ele>23.0</ele><time>2026-04-19T08:03:19.359Z</time></trkpt><trkpt lat="44.21026" lon="12.06961"><ele>23.333333333333332</ele><time>2026-04-19T08:03:23.358Z</time></trkpt><trkpt lat="44.2102517" lon="12.0695217"><ele>23.666666666666668</ele><time>2026-04-19T08:03:26.358Z</time></trkpt><trkpt lat="44.2102467" lon="12.0693983"><ele>24.0</ele><time>2026-04-19T08:03:31.363Z</time></trkpt><trkpt lat="44.210285" lon="12.0692983"><ele>24.0</ele><time>2026-04-19T08:03:34.362Z</time></trkpt><trkpt lat="44.2103317" lon="12.0692083"><ele>24.0</ele><time>2026-04-19T08:03:37.362Z</time></trkpt><trkpt lat="44.2103733" lon="12.0691067"><ele>24.0</ele><time>2026-04-19T08:03:40.362Z</time></trkpt><trkpt lat="44.210405" lon="12.0690117"><ele>24.0</ele><time>2026-04-19T08:03:43.362Z</time></trkpt><trkpt lat="44.2104433" lon="12.0689133"><ele>24.0</ele><time>2026-04-19T08:03:46.363Z</time></trkpt><trkpt lat="44.210485" lon="12.0688083"><ele>24.0</ele><time>2026-04-19T08:03:49.363Z</time></trkpt><trkpt lat="44.2105317" lon="12.0687217"><ele>24.333333333333332</ele><time>2026-04-19T08:03:52.362Z</time></trkpt><trkpt lat="44.2105817" lon="12.068615"><ele>24.666666666666664</ele><time>2026-04-19T08:03:55.362Z</time></trkpt><trkpt lat="44.21062" lon="12.0685233"><ele>25.0</ele><time>2026-04-19T08:03:57.363Z</time></trkpt><trkpt lat="44.21066" lon="12.068435"><ele>25.333333333333332</ele><time>2026-04-19T08:03:59.362Z</time></trkpt><trkpt lat="44.2106967" lon="12.06834"><ele>25.666666666666664</ele><time>2026-04-19T08:04:01.363Z</time></trkpt><trkpt lat="44.2107367" lon="12.0682533"><ele>26.0</ele><time>2026-04-19T08:04:03.363Z</time></trkpt><trkpt lat="44.210775" lon="12.0681633"><ele>26.0</ele><time>2026-04-19T08:04:05.363Z</time></trkpt><trkpt lat="44.2108167" lon="12.0680717"><ele>26.0</ele><time>2026-04-19T08:04:07.362Z</time></trkpt><trkpt lat="44.210855" lon="12.067985"><ele>26.0</ele><time>2026-04-19T08:04:09.363Z</time></trkpt><trkpt lat="44.2108883" lon="12.0678983"><ele>26.0</ele><time>2026-04-19T08:04:11.363Z</time></trkpt><trkpt lat="44.2109267" lon="12.067815"><ele>26.0</ele><time>2026-04-19T08:04:13.362Z</time></trkpt><trkpt lat="44.2109633" lon="12.0677333"><ele>26.0</ele><time>2026-04-19T08:04:15.362Z</time></trkpt><trkpt lat="44.211" lon="12.06765"><ele>26.0</ele><time>2026-04-19T08:04:17.363Z</time></trkpt><trkpt lat="44.21103" lon="12.0675583"><ele>26.0</ele><time>2026-04-19T08:04:19.362Z</time></trkpt><trkpt lat="44.2110667" lon="12.0674717"><ele>26.0</ele><time>2026-04-19T08:04:21.363Z</time></trkpt><trkpt lat="44.2111067" lon="12.0673833"><ele>26.0</ele><time>2026-04-19T08:04:23.362Z</time></trkpt><trkpt lat="44.2111367" lon="12.0672967"><ele>26.0</ele><time>2026-04-19T08:04:25.363Z</time></trkpt><trkpt lat="44.2111683" lon="12.0672067"><ele>26.0</ele><time>2026-04-19T08:04:27.363Z</time></trkpt><trkpt lat="44.2112033" lon="12.0671317"><ele>26.0</ele><time>2026-04-19T08:04:29.363Z</time></trkpt><trkpt lat="44.2112417" lon="12.0670467"><ele>26.0</ele><time>2026-04-19T08:04:31.363Z</time></trkpt><trkpt lat="44.21128" lon="12.0669583"><ele>25.833333333333332</ele><time>2026-04-19T08:04:33.363Z</time></trkpt><trkpt lat="44.2113167" lon="12.06686"><ele>25.666666666666664</ele><time>2026-04-19T08:04:35.363Z</time></trkpt><trkpt lat="44.21136" lon="12.066775"><ele>25.5</ele><time>2026-04-19T08:04:37.363Z</time></trkpt><trkpt lat="44.2113983" lon="12.0666833"><ele>25.333333333333336</ele><time>2026-04-19T08:04:39.363Z</time></trkpt><trkpt lat="44.2114367" lon="12.066595"><ele>25.166666666666668</ele><time>2026-04-19T08:04:41.363Z</time></trkpt><trkpt lat="44.2114783" lon="12.066505"><ele>25.0</ele><time>2026-04-19T08:04:43.363Z</time></trkpt><trkpt lat="44.2115167" lon="12.0664033"><ele>25.000000000000004</ele><time>2026-04-19T08:04:45.362Z</time></trkpt><trkpt lat="44.2115567" lon="12.0663017"><ele>25.0</ele><time>2026-04-19T08:04:47.363Z</time></trkpt><trkpt lat="44.211595" lon="12.0661983"><ele>25.0</ele><time>2026-04-19T08:04:49.363Z</time></trkpt><trkpt lat="44.2116317" lon="12.0661017"><ele>25.0</ele><time>2026-04-19T08:04:51.363Z</time></trkpt><trkpt lat="44.2116667" lon="12.066005"><ele>25.000000000000004</ele><time>2026-04-19T08:04:53.362Z</time></trkpt><trkpt lat="44.21171" lon="12.0658917"><ele>25.0</ele><time>2026-04-19T08:04:55.363Z</time></trkpt><trkpt lat="44.2117483" lon="12.065795"><ele>25.000000000000004</ele><time>2026-04-19T08:04:57.363Z</time></trkpt><trkpt lat="44.211795" lon="12.0657033"><ele>25.0</ele><time>2026-04-19T08:04:59.363Z</time></trkpt><trkpt lat="44.211825" lon="12.0656117"><ele>25.0</ele><time>2026-04-19T08:05:01.363Z</time></trkpt><trkpt lat="44.211865" lon="12.0655133"><ele>25.0</ele><time>2026-04-19T08:05:03.362Z</time></trkpt><trkpt lat="44.2119067" lon="12.0654267"><ele>25.000000000000004</ele><time>2026-04-19T08:05:05.363Z</time></trkpt><trkpt lat="44.2119417" lon="12.0653383"><ele>25.0</ele><time>2026-04-19T08:05:07.362Z</time></trkpt><trkpt lat="44.2119817" lon="12.0652533"><ele>25.000000000000004</ele><time>2026-04-19T08:05:09.362Z</time></trkpt><trkpt lat="44.2120117" lon="12.0651633"><ele>25.0</ele><time>2026-04-19T08:05:11.363Z</time></trkpt><trkpt lat="44.2120417" lon="12.0650767"><ele>25.0</ele><time>2026-04-19T08:05:13.362Z</time></trkpt><trkpt lat="44.2120717" lon="12.06499"><ele>25.0</ele><time>2026-04-19T08:05:15.363Z</time></trkpt><trkpt lat="44.2121133" lon="12.064905"><ele>25.0</ele><time>2026-04-19T08:05:17.363Z</time></trkpt><trkpt lat="44.2121483" lon="12.0648233"><ele>25.000000000000004</ele><time>2026-04-19T08:05:19.362Z</time></trkpt><trkpt lat="44.2121783" lon="12.0647433"><ele>25.0</ele><time>2026-04-19T08:05:21.362Z</time></trkpt><trkpt lat="44.2122183" lon="12.0646617"><ele>25.000000000000004</ele><time>2026-04-19T08:05:23.362Z</time></trkpt><trkpt lat="44.2122567" lon="12.06458"><ele>25.0</ele><time>2026-04-19T08:05:25.363Z</time></trkpt><trkpt lat="44.2122933" lon="12.064505"><ele>25.0</ele><time>2026-04-19T08:05:27.363Z</time></trkpt><trkpt lat="44.2123417" lon="12.0644033"><ele>25.0</ele><time>2026-04-19T08:05:30.362Z</time></trkpt><trkpt lat="44.2123817" lon="12.0643017"><ele>25.000000000000004</ele><time>2026-04-19T08:05:33.363Z</time></trkpt><trkpt lat="44.212435" lon="12.0642183"><ele>25.0</ele><time>2026-04-19T08:05:36.362Z</time></trkpt><trkpt lat="44.2125033" lon="12.0641383"><ele>25.000000000000004</ele><time>2026-04-19T08:05:39.362Z</time></trkpt><trkpt lat="44.21255" lon="12.0640467"><ele>25.0</ele><time>2026-04-19T08:05:42.363Z</time></trkpt><trkpt lat="44.21259" lon="12.0639517"><ele>25.0</ele><time>2026-04-19T08:05:45.363Z</time></trkpt><trkpt lat="44.21265" lon="12.06388"><ele>25.0</ele><time>2026-04-19T08:05:48.363Z</time></trkpt><trkpt lat="44.21272" lon="12.0638583"><ele>25.000000000000004</ele><time>2026-04-19T08:05:51.363Z</time></trkpt><trkpt lat="44.2127817" lon="12.063815"><ele>25.0</ele><time>2026-04-19T08:05:58.363Z</time></trkpt><trkpt lat="44.21276" lon="12.0637217"><ele>25.000000000000004</ele><time>2026-04-19T08:06:02.363Z</time></trkpt><trkpt lat="44.21276" lon="12.0636317"><ele>25.0</ele><time>2026-04-19T08:06:06.363Z</time></trkpt><trkpt lat="44.2127867" lon="12.0635433"><ele>25.0</ele><time>2026-04-19T08:06:10.363Z</time></trkpt><trkpt lat="44.2128233" lon="12.0634617"><ele>25.0</ele><time>2026-04-19T08:06:15.363Z</time></trkpt><trkpt lat="44.21284" lon="12.06337"><ele>25.0</ele><time>2026-04-19T08:07:01.363Z</time></trkpt><trkpt lat="44.2128333" lon="12.0632583"><ele>25.000000000000004</ele><time>2026-04-19T08:07:05.363Z</time></trkpt><trkpt lat="44.21287" lon="12.0631533"><ele>25.0</ele><time>2026-04-19T08:07:08.362Z</time></trkpt><trkpt lat="44.212905" lon="12.06304"><ele>25.000000000000004</ele><time>2026-04-19T08:07:11.362Z</time></trkpt><trkpt lat="44.21294" lon="12.062925"><ele>25.0</ele><time>2026-04-19T08:07:14.362Z</time></trkpt><trkpt lat="44.2129967" lon="12.0628233"><ele>25.0</ele><time>2026-04-19T08:07:17.362Z</time></trkpt><trkpt lat="44.2130283" lon="12.0627433"><ele>25.0</ele><time>2026-04-19T08:07:19.363Z</time></trkpt><trkpt lat="44.2130583" lon="12.0626583"><ele>25.000000000000004</ele><time>2026-04-19T08:07:21.363Z</time></trkpt><trkpt lat="44.21308" lon="12.0625717"><ele>25.0</ele><time>2026-04-19T08:07:23.362Z</time></trkpt><trkpt lat="44.2131067" lon="12.0624817"><ele>25.000000000000004</ele><time>2026-04-19T08:07:25.362Z</time></trkpt><trkpt lat="44.21314" lon="12.0623867"><ele>25.0</ele><time>2026-04-19T08:07:27.363Z</time></trkpt><trkpt lat="44.2131817" lon="12.0623017"><ele>25.0</ele><time>2026-04-19T08:07:29.363Z</time></trkpt><trkpt lat="44.2132167" lon="12.062215"><ele>25.0</ele><time>2026-04-19T08:07:31.363Z</time></trkpt><trkpt lat="44.2132533" lon="12.062125"><ele>25.0</ele><time>2026-04-19T08:07:33.363Z</time></trkpt><trkpt lat="44.21329" lon="12.06203"><ele>25.000000000000004</ele><time>2026-04-19T08:07:35.362Z</time></trkpt><trkpt lat="44.2133317" lon="12.0619417"><ele>25.0</ele><time>2026-04-19T08:07:37.363Z</time></trkpt><trkpt lat="44.21337" lon="12.0618583"><ele>25.000000000000004</ele><time>2026-04-19T08:07:39.362Z</time></trkpt><trkpt lat="44.2134083" lon="12.0617717"><ele>25.0</ele><time>2026-04-19T08:07:41.362Z</time></trkpt><trkpt lat="44.2134467" lon="12.0616883"><ele>25.0</ele><time>2026-04-19T08:07:43.362Z</time></trkpt><trkpt lat="44.2134817" lon="12.0616033"><ele>25.0</ele><time>2026-04-19T08:07:45.362Z</time></trkpt><trkpt lat="44.21352" lon="12.06151"><ele>25.000000000000004</ele><time>2026-04-19T08:07:47.362Z</time></trkpt><trkpt lat="44.2135633" lon="12.061415"><ele>25.0</ele><time>2026-04-19T08:07:49.363Z</time></trkpt><trkpt lat="44.2135917" lon="12.0613117"><ele>25.142857142857146</ele><time>2026-04-19T08:07:51.363Z</time></trkpt><trkpt lat="44.213625" lon="12.0612233"><ele>25.285714285714285</ele><time>2026-04-19T08:07:53.363Z</time></trkpt><trkpt lat="44.2136567" lon="12.0611383"><ele>25.42857142857143</ele><time>2026-04-19T08:07:55.363Z</time></trkpt><trkpt lat="44.2136917" lon="12.0610417"><ele>25.571428571428573</ele><time>2026-04-19T08:07:57.362Z</time></trkpt><trkpt lat="44.2137283" lon="12.0609517"><ele>25.714285714285715</ele><time>2026-04-19T08:07:59.363Z</time></trkpt><trkpt lat="44.2137667" lon="12.0608617"><ele>25.857142857142858</ele><time>2026-04-19T08:08:01.363Z</time></trkpt><trkpt lat="44.213805" lon="12.0607717"><ele>26.0</ele><time>2026-04-19T08:08:03.362Z</time></trkpt><trkpt lat="44.2138417" lon="12.0606867"><ele>26.0</ele><time>2026-04-19T08:08:05.362Z</time></trkpt><trkpt lat="44.2138767" lon="12.0606017"><ele>26.0</ele><time>2026-04-19T08:08:07.363Z</time></trkpt><trkpt lat="44.2139167" lon="12.06052"><ele>26.0</ele><time>2026-04-19T08:08:09.362Z</time></trkpt><trkpt lat="44.213955" lon="12.0604367"><ele>26.0</ele><time>2026-04-19T08:08:11.363Z</time></trkpt><trkpt lat="44.213985" lon="12.0603583"><ele>26.0</ele><time>2026-04-19T08:08:13.362Z</time></trkpt><trkpt lat="44.214025" lon="12.0602667"><ele>26.0</ele><time>2026-04-19T08:08:15.362Z</time></trkpt><trkpt lat="44.214065" lon="12.0601833"><ele>26.0</ele><time>2026-04-19T08:08:17.363Z</time></trkpt><trkpt lat="44.2141017" lon="12.0601017"><ele>26.0</ele><time>2026-04-19T08:08:19.363Z</time></trkpt><trkpt lat="44.2141467" lon="12.0599917"><ele>26.0</ele><time>2026-04-19T08:08:22.362Z</time></trkpt><trkpt lat="44.2141883" lon="12.059885"><ele>26.0</ele><time>2026-04-19T08:08:25.363Z</time></trkpt><trkpt lat="44.2142167" lon="12.0598017"><ele>26.0</ele><time>2026-04-19T08:08:27.363Z</time></trkpt><trkpt lat="44.21425" lon="12.059725"><ele>26.0</ele><time>2026-04-19T08:08:29.363Z</time></trkpt><trkpt lat="44.214285" lon="12.0596467"><ele>26.0</ele><time>2026-04-19T08:08:31.363Z</time></trkpt><trkpt lat="44.214325" lon="12.059565"><ele>26.0</ele><time>2026-04-19T08:08:33.362Z</time></trkpt><trkpt lat="44.214365" lon="12.05948"><ele>25.999999999999996</ele><time>2026-04-19T08:08:35.363Z</time></trkpt><trkpt lat="44.2144033" lon="12.0593867"><ele>26.0</ele><time>2026-04-19T08:08:37.362Z</time></trkpt><trkpt lat="44.2144367" lon="12.0593017"><ele>26.0</ele><time>2026-04-19T08:08:39.362Z</time></trkpt><trkpt lat="44.2144717" lon="12.0592267"><ele>26.0</ele><time>2026-04-19T08:08:41.363Z</time></trkpt><trkpt lat="44.21452" lon="12.0591167"><ele>25.999999999999996</ele><time>2026-04-19T08:08:44.363Z</time></trkpt><trkpt lat="44.21454" lon="12.0590317"><ele>26.0</ele><time>2026-04-19T08:08:46.362Z</time></trkpt><trkpt lat="44.2145783" lon="12.0589233"><ele>25.833333333333332</ele><time>2026-04-19T08:08:49.363Z</time></trkpt><trkpt lat="44.214605" lon="12.0588317"><ele>25.666666666666664</ele><time>2026-04-19T08:08:52.362Z</time></trkpt><trkpt lat="44.2146467" lon="12.0587267"><ele>25.5</ele><time>2026-04-19T08:08:55.363Z</time></trkpt><trkpt lat="44.214695" lon="12.0586167"><ele>25.333333333333336</ele><time>2026-04-19T08:08:58.363Z</time></trkpt><trkpt lat="44.21473" lon="12.05854"><ele>25.166666666666668</ele><time>2026-04-19T08:09:00.362Z</time></trkpt><trkpt lat="44.2147717" lon="12.0584683"><ele>25.0</ele><time>2026-04-19T08:09:02.362Z</time></trkpt><trkpt lat="44.2148167" lon="12.0583717"><ele>25.000000000000004</ele><time>2026-04-19T08:09:05.362Z</time></trkpt><trkpt lat="44.21486" lon="12.0582633"><ele>25.0</ele><time>2026-04-19T08:09:08.363Z</time></trkpt><trkpt lat="44.2148883" lon="12.0581783"><ele>25.0</ele><time>2026-04-19T08:09:10.362Z</time></trkpt><trkpt lat="44.2149283" lon="12.0580917"><ele>25.0</ele><time>2026-04-19T08:09:12.363Z</time></trkpt><trkpt lat="44.2149667" lon="12.0580067"><ele>25.000000000000004</ele><time>2026-04-19T08:09:14.363Z</time></trkpt><trkpt lat="44.215005" lon="12.0579167"><ele>25.0</ele><time>2026-04-19T08:09:16.363Z</time></trkpt><trkpt lat="44.2150433" lon="12.05783"><ele>25.000000000000004</ele><time>2026-04-19T08:09:18.363Z</time></trkpt><trkpt lat="44.2150817" lon="12.0577433"><ele>25.0</ele><time>2026-04-19T08:09:20.363Z</time></trkpt><trkpt lat="44.2151133" lon="12.0576583"><ele>25.0</ele><time>2026-04-19T08:09:22.363Z</time></trkpt><trkpt lat="44.2151483" lon="12.0575717"><ele>25.0</ele><time>2026-04-19T08:09:24.363Z</time></trkpt><trkpt lat="44.21519" lon="12.0574867"><ele>25.0</ele><time>2026-04-19T08:09:26.362Z</time></trkpt><trkpt lat="44.215225" lon="12.0574033"><ele>25.000000000000004</ele><time>2026-04-19T08:09:28.363Z</time></trkpt><trkpt lat="44.215265" lon="12.0572883"><ele>25.0</ele><time>2026-04-19T08:09:31.362Z</time></trkpt><trkpt lat="44.215295" lon="12.0572033"><ele>25.000000000000004</ele><time>2026-04-19T08:09:33.363Z</time></trkpt><trkpt lat="44.2153267" lon="12.0571"><ele>25.0</ele><time>2026-04-19T08:09:36.363Z</time></trkpt><trkpt lat="44.2153667" lon="12.057015"><ele>25.0</ele><time>2026-04-19T08:09:39.363Z</time></trkpt><trkpt lat="44.2154033" lon="12.0569133"><ele>25.0</ele><time>2026-04-19T08:09:42.363Z</time></trkpt><trkpt lat="44.2154417" lon="12.056825"><ele>25.0</ele><time>2026-04-19T08:09:45.363Z</time></trkpt><trkpt lat="44.215475" lon="12.05674"><ele>25.000000000000004</ele><time>2026-04-19T08:09:48.363Z</time></trkpt><trkpt lat="44.2155033" lon="12.0566533"><ele>25.0</ele><time>2026-04-19T08:09:53.362Z</time></trkpt><trkpt lat="44.2155583" lon="12.0565167"><ele>25.166666666666668</ele><time>2026-04-19T08:11:03.363Z</time></trkpt><trkpt lat="44.215605" lon="12.0564233"><ele>25.333333333333336</ele><time>2026-04-19T08:11:07.363Z</time></trkpt><trkpt lat="44.2156383" lon="12.05632"><ele>25.5</ele><time>2026-04-19T08:11:10.363Z</time></trkpt><trkpt lat="44.2156833" lon="12.05622"><ele>25.666666666666664</ele><time>2026-04-19T08:11:13.363Z</time></trkpt><trkpt lat="44.2157383" lon="12.0561067"><ele>25.833333333333332</ele><time>2026-04-19T08:11:16.362Z</time></trkpt><trkpt lat="44.2157683" lon="12.05602"><ele>26.0</ele><time>2026-04-19T08:11:18.363Z</time></trkpt><trkpt lat="44.2158" lon="12.0559383"><ele>26.0</ele><time>2026-04-19T08:11:20.362Z</time></trkpt><trkpt lat="44.2158367" lon="12.0558633"><ele>26.0</ele><time>2026-04-19T08:11:22.362Z</time></trkpt><trkpt lat="44.215885" lon="12.0557917"><ele>26.0</ele><time>2026-04-19T08:11:24.363Z</time></trkpt><trkpt lat="44.2159217" lon="12.055715"><ele>26.0</ele><time>2026-04-19T08:11:26.363Z</time></trkpt><trkpt lat="44.2159567" lon="12.05564"><ele>26.0</ele><time>2026-04-19T08:11:28.363Z</time></trkpt><trkpt lat="44.2159883" lon="12.0555583"><ele>26.0</ele><time>2026-04-19T08:11:30.362Z</time></trkpt><trkpt lat="44.2160217" lon="12.0554783"><ele>26.0</ele><time>2026-04-19T08:11:32.362Z</time></trkpt><trkpt lat="44.2160533" lon="12.0553917"><ele>26.0</ele><time>2026-04-19T08:11:34.362Z</time></trkpt><trkpt lat="44.21609" lon="12.0553067"><ele>26.0</ele><time>2026-04-19T08:11:36.362Z</time></trkpt><trkpt lat="44.216125" lon="12.0552167"><ele>26.0</ele><time>2026-04-19T08:11:38.363Z</time></trkpt><trkpt lat="44.2161633" lon="12.0551333"><ele>26.0</ele><time>2026-04-19T08:11:40.363Z</time></trkpt><trkpt lat="44.2161967" lon="12.055055"><ele>26.0</ele><time>2026-04-19T08:11:42.362Z</time></trkpt><trkpt lat="44.21623" lon="12.054975"><ele>26.0</ele><time>2026-04-19T08:11:44.363Z</time></trkpt><trkpt lat="44.2162633" lon="12.0548933"><ele>26.0</ele><time>2026-04-19T08:11:46.362Z</time></trkpt><trkpt lat="44.2162967" lon="12.0548117"><ele>26.142857142857142</ele><time>2026-04-19T08:11:48.362Z</time></trkpt><trkpt lat="44.2163183" lon="12.05471"><ele>26.28571428571429</ele><time>2026-04-19T08:11:50.362Z</time></trkpt><trkpt lat="44.2163533" lon="12.0546217"><ele>26.42857142857143</ele><time>2026-04-19T08:11:52.363Z</time></trkpt><trkpt lat="44.2163967" lon="12.0545433"><ele>26.57142857142857</ele><time>2026-04-19T08:11:54.362Z</time></trkpt><trkpt lat="44.21644" lon="12.0544783"><ele>26.714285714285715</ele><time>2026-04-19T08:11:56.363Z</time></trkpt><trkpt lat="44.2164933" lon="12.0543717"><ele>26.857142857142858</ele><time>2026-04-19T08:11:59.362Z</time></trkpt><trkpt lat="44.21653" lon="12.054295"><ele>27.0</ele><time>2026-04-19T08:12:01.363Z</time></trkpt><trkpt lat="44.2165583" lon="12.054215"><ele>27.142857142857142</ele><time>2026-04-19T08:12:03.362Z</time></trkpt><trkpt lat="44.2165733" lon="12.0541217"><ele>27.285714285714285</ele><time>2026-04-19T08:12:05.362Z</time></trkpt><trkpt lat="44.2166" lon="12.0540267"><ele>27.42857142857143</ele><time>2026-04-19T08:12:07.363Z</time></trkpt><trkpt lat="44.2166317" lon="12.0539383"><ele>27.57142857142857</ele><time>2026-04-19T08:12:09.363Z</time></trkpt><trkpt lat="44.2166683" lon="12.0538517"><ele>27.714285714285715</ele><time>2026-04-19T08:12:11.363Z</time></trkpt><trkpt lat="44.2167033" lon="12.0537717"><ele>27.857142857142858</ele><time>2026-04-19T08:12:13.362Z</time></trkpt><trkpt lat="44.2167383" lon="12.0536933"><ele>28.0</ele><time>2026-04-19T08:12:15.363Z</time></trkpt><trkpt lat="44.216775" lon="12.05358"><ele>28.000000000000004</ele><time>2026-04-19T08:12:18.362Z</time></trkpt><trkpt lat="44.216815" lon="12.0534633"><ele>28.0</ele><time>2026-04-19T08:12:21.363Z</time></trkpt><trkpt lat="44.2168633" lon="12.053345"><ele>28.0</ele><time>2026-04-19T08:12:24.363Z</time></trkpt><trkpt lat="44.2169" lon="12.0532717"><ele>28.0</ele><time>2026-04-19T08:12:26.362Z</time></trkpt><trkpt lat="44.2169417" lon="12.0531917"><ele>28.000000000000004</ele><time>2026-04-19T08:12:28.362Z</time></trkpt><trkpt lat="44.2169733" lon="12.0531083"><ele>28.0</ele><time>2026-04-19T08:12:30.363Z</time></trkpt><trkpt lat="44.2170217" lon="12.0530067"><ele>28.0</ele><time>2026-04-19T08:12:33.363Z</time></trkpt><trkpt lat="44.2170617" lon="12.0529217"><ele>28.0</ele><time>2026-04-19T08:12:36.363Z</time></trkpt><trkpt lat="44.217125" lon="12.05287"><ele>28.0</ele><time>2026-04-19T08:12:41.363Z</time></trkpt><trkpt lat="44.2171467" lon="12.05277"><ele>28.0</ele><time>2026-04-19T08:12:45.363Z</time></trkpt><trkpt lat="44.217155" lon="12.052675"><ele>28.0</ele><time>2026-04-19T08:12:48.363Z</time></trkpt><trkpt lat="44.2171817" lon="12.052595"><ele>28.0</ele><time>2026-04-19T08:12:50.363Z</time></trkpt><trkpt lat="44.2172083" lon="12.052475"><ele>28.0</ele><time>2026-04-19T08:12:53.363Z</time></trkpt><trkpt lat="44.2172567" lon="12.0523633"><ele>28.0</ele><time>2026-04-19T08:12:56.362Z</time></trkpt><trkpt lat="44.2173083" lon="12.0522533"><ele>28.0</ele><time>2026-04-19T08:12:59.363Z</time></trkpt><trkpt lat="44.2173467" lon="12.052175"><ele>28.0</ele><time>2026-04-19T08:13:01.363Z</time></trkpt><trkpt lat="44.2173883" lon="12.0520933"><ele>28.0</ele><time>2026-04-19T08:13:03.362Z</time></trkpt><trkpt lat="44.21743" lon="12.0520117"><ele>28.0</ele><time>2026-04-19T08:13:05.363Z</time></trkpt><trkpt lat="44.2174683" lon="12.0519317"><ele>28.0</ele><time>2026-04-19T08:13:07.363Z</time></trkpt><trkpt lat="44.217505" lon="12.0518433"><ele>28.0</ele><time>2026-04-19T08:13:09.363Z</time></trkpt><trkpt lat="44.2175383" lon="12.0517667"><ele>27.857142857142858</ele><time>2026-04-19T08:13:11.362Z</time></trkpt><trkpt lat="44.2175817" lon="12.0516967"><ele>27.714285714285715</ele><time>2026-04-19T08:13:13.363Z</time></trkpt><trkpt lat="44.2176283" lon="12.051625"><ele>27.57142857142857</ele><time>2026-04-19T08:13:15.362Z</time></trkpt><trkpt lat="44.2176583" lon="12.0515467"><ele>27.42857142857143</ele><time>2026-04-19T08:13:17.363Z</time></trkpt><trkpt lat="44.217705" lon="12.0514367"><ele>27.285714285714285</ele><time>2026-04-19T08:13:20.363Z</time></trkpt><trkpt lat="44.2177517" lon="12.051325"><ele>27.142857142857142</ele><time>2026-04-19T08:13:23.363Z</time></trkpt><trkpt lat="44.21779" lon="12.0512517"><ele>27.0</ele><time>2026-04-19T08:13:25.362Z</time></trkpt><trkpt lat="44.21784" lon="12.0511983"><ele>26.833333333333332</ele><time>2026-04-19T08:13:27.363Z</time></trkpt><trkpt lat="44.2179183" lon="12.05116"><ele>26.666666666666664</ele><time>2026-04-19T08:13:30.363Z</time></trkpt><trkpt lat="44.2180033" lon="12.051135"><ele>26.5</ele><time>2026-04-19T08:13:33.363Z</time></trkpt><trkpt lat="44.2180767" lon="12.0510983"><ele>26.333333333333332</ele><time>2026-04-19T08:13:36.362Z</time></trkpt><trkpt lat="44.2181217" lon="12.0510083"><ele>26.166666666666664</ele><time>2026-04-19T08:13:39.363Z</time></trkpt><trkpt lat="44.2181583" lon="12.0509083"><ele>26.0</ele><time>2026-04-19T08:13:42.362Z</time></trkpt><trkpt lat="44.2181967" lon="12.0508167"><ele>26.142857142857142</ele><time>2026-04-19T08:13:45.363Z</time></trkpt><trkpt lat="44.21823" lon="12.0507333"><ele>26.28571428571429</ele><time>2026-04-19T08:13:48.363Z</time></trkpt><trkpt lat="44.2182767" lon="12.0506533"><ele>26.42857142857143</ele><time>2026-04-19T08:13:51.363Z</time></trkpt><trkpt lat="44.2183217" lon="12.0505767"><ele>26.57142857142857</ele><time>2026-04-19T08:13:54.362Z</time></trkpt><trkpt lat="44.2183533" lon="12.0504933"><ele>26.714285714285715</ele><time>2026-04-19T08:13:57.363Z</time></trkpt><trkpt lat="44.2183767" lon="12.05041"><ele>26.857142857142858</ele><time>2026-04-19T08:14:00.363Z</time></trkpt><trkpt lat="44.2184167" lon="12.0503367"><ele>27.0</ele><time>2026-04-19T08:14:03.362Z</time></trkpt><trkpt lat="44.2184533" lon="12.0502367"><ele>27.0</ele><time>2026-04-19T08:14:06.363Z</time></trkpt><trkpt lat="44.2184933" lon="12.05012"><ele>27.0</ele><time>2026-04-19T08:14:09.363Z</time></trkpt><trkpt lat="44.2185383" lon="12.0500133"><ele>27.0</ele><time>2026-04-19T08:14:12.363Z</time></trkpt><trkpt lat="44.2185883" lon="12.0499083"><ele>27.0</ele><time>2026-04-19T08:14:15.363Z</time></trkpt><trkpt lat="44.2186417" lon="12.0498167"><ele>27.0</ele><time>2026-04-19T08:14:18.363Z</time></trkpt><trkpt lat="44.2186933" lon="12.0497233"><ele>27.0</ele><time>2026-04-19T08:14:21.363Z</time></trkpt><trkpt lat="44.218735" lon="12.0496133"><ele>27.333333333333332</ele><time>2026-04-19T08:14:24.363Z</time></trkpt><trkpt lat="44.2187567" lon="12.0494983"><ele>27.666666666666664</ele><time>2026-04-19T08:14:27.362Z</time></trkpt><trkpt lat="44.2187767" lon="12.04938"><ele>28.0</ele><time>2026-04-19T08:14:30.362Z</time></trkpt><trkpt lat="44.2188033" lon="12.049275"><ele>28.333333333333332</ele><time>2026-04-19T08:14:33.363Z</time></trkpt><trkpt lat="44.2188217" lon="12.0491833"><ele>28.666666666666664</ele><time>2026-04-19T08:14:36.363Z</time></trkpt><trkpt lat="44.218795" lon="12.0490933"><ele>29.0</ele><time>2026-04-19T08:14:41.363Z</time></trkpt><trkpt lat="44.2188067" lon="12.0489983"><ele>29.166666666666664</ele><time>2026-04-19T08:14:45.363Z</time></trkpt><trkpt lat="44.2188433" lon="12.0489017"><ele>29.333333333333332</ele><time>2026-04-19T08:15:42.363Z</time></trkpt><trkpt lat="44.2188217" lon="12.04881"><ele>29.5</ele><time>2026-04-19T08:15:45.363Z</time></trkpt><trkpt lat="44.2187983" lon="12.0486883"><ele>29.666666666666664</ele><time>2026-04-19T08:15:48.362Z</time></trkpt><trkpt lat="44.2187983" lon="12.0486"><ele>29.833333333333332</ele><time>2026-04-19T08:15:50.363Z</time></trkpt><trkpt lat="44.2188217" lon="12.0484817"><ele>30.0</ele><time>2026-04-19T08:15:53.363Z</time></trkpt><trkpt lat="44.2188483" lon="12.0484017"><ele>30.0</ele><time>2026-04-19T08:15:55.363Z</time></trkpt><trkpt lat="44.2188683" lon="12.0483133"><ele>30.0</ele><time>2026-04-19T08:15:57.363Z</time></trkpt><trkpt lat="44.2189" lon="12.04823"><ele>30.0</ele><time>2026-04-19T08:15:59.363Z</time></trkpt><trkpt lat="44.21894" lon="12.0481533"><ele>30.0</ele><time>2026-04-19T08:16:01.362Z</time></trkpt><trkpt lat="44.2189817" lon="12.0480833"><ele>30.0</ele><time>2026-04-19T08:16:03.363Z</time></trkpt><trkpt lat="44.2190283" lon="12.048"><ele>30.0</ele><time>2026-04-19T08:16:05.362Z</time></trkpt><trkpt lat="44.219075" lon="12.04791"><ele>30.0</ele><time>2026-04-19T08:16:07.363Z</time></trkpt><trkpt lat="44.2191133" lon="12.0478283"><ele>29.857142857142858</ele><time>2026-04-19T08:16:09.363Z</time></trkpt><trkpt lat="44.2191533" lon="12.0477417"><ele>29.714285714285715</ele><time>2026-04-19T08:16:11.363Z</time></trkpt><trkpt lat="44.2191933" lon="12.0476583"><ele>29.571428571428573</ele><time>2026-04-19T08:16:13.362Z</time></trkpt><trkpt lat="44.2192333" lon="12.0475633"><ele>29.42857142857143</ele><time>2026-04-19T08:16:15.363Z</time></trkpt><trkpt lat="44.2192667" lon="12.0474717"><ele>29.285714285714285</ele><time>2026-04-19T08:16:17.363Z</time></trkpt><trkpt lat="44.219295" lon="12.0473783"><ele>29.142857142857146</ele><time>2026-04-19T08:16:19.362Z</time></trkpt><trkpt lat="44.2193283" lon="12.0472883"><ele>29.000000000000004</ele><time>2026-04-19T08:16:21.363Z</time></trkpt><trkpt lat="44.21937" lon="12.0471917"><ele>29.333333333333332</ele><time>2026-04-19T08:16:23.362Z</time></trkpt><trkpt lat="44.2194083" lon="12.0470933"><ele>29.666666666666664</ele><time>2026-04-19T08:16:25.362Z</time></trkpt><trkpt lat="44.21946" lon="12.046995"><ele>30.0</ele><time>2026-04-19T08:16:27.363Z</time></trkpt><trkpt lat="44.219515" lon="12.0469067"><ele>30.333333333333336</ele><time>2026-04-19T08:16:29.362Z</time></trkpt><trkpt lat="44.21956" lon="12.0468133"><ele>30.666666666666668</ele><time>2026-04-19T08:16:31.363Z</time></trkpt><trkpt lat="44.2195983" lon="12.046705"><ele>31.0</ele><time>2026-04-19T08:16:33.363Z</time></trkpt><trkpt lat="44.2196333" lon="12.0465933"><ele>31.000000000000004</ele><time>2026-04-19T08:16:35.363Z</time></trkpt><trkpt lat="44.2196683" lon="12.0464933"><ele>31.0</ele><time>2026-04-19T08:16:37.362Z</time></trkpt><trkpt lat="44.2197067" lon="12.0463933"><ele>31.0</ele><time>2026-04-19T08:16:39.362Z</time></trkpt><trkpt lat="44.2197383" lon="12.0462983"><ele>31.0</ele><time>2026-04-19T08:16:41.362Z</time></trkpt><trkpt lat="44.2197783" lon="12.0462117"><ele>31.000000000000004</ele><time>2026-04-19T08:16:43.363Z</time></trkpt><trkpt lat="44.219825" lon="12.046125"><ele>31.0</ele><time>2026-04-19T08:16:45.363Z</time></trkpt><trkpt lat="44.2198583" lon="12.0460383"><ele>31.0</ele><time>2026-04-19T08:16:47.363Z</time></trkpt><trkpt lat="44.2198783" lon="12.0459367"><ele>31.000000000000004</ele><time>2026-04-19T08:16:49.362Z</time></trkpt><trkpt lat="44.2199117" lon="12.0458483"><ele>31.0</ele><time>2026-04-19T08:16:51.363Z</time></trkpt><trkpt lat="44.2199517" lon="12.045775"><ele>31.0</ele><time>2026-04-19T08:16:53.363Z</time></trkpt><trkpt lat="44.2199817" lon="12.0456817"><ele>31.000000000000004</ele><time>2026-04-19T08:16:55.363Z</time></trkpt><trkpt lat="44.2200083" lon="12.0455967"><ele>31.0</ele><time>2026-04-19T08:16:57.363Z</time></trkpt><trkpt lat="44.2200367" lon="12.045515"><ele>31.0</ele><time>2026-04-19T08:16:59.362Z</time></trkpt><trkpt lat="44.2200717" lon="12.04543"><ele>31.571428571428573</ele><time>2026-04-19T08:17:01.363Z</time></trkpt><trkpt lat="44.2201083" lon="12.04535"><ele>32.142857142857146</ele><time>2026-04-19T08:17:03.362Z</time></trkpt><trkpt lat="44.2201467" lon="12.0452683"><ele>32.714285714285715</ele><time>2026-04-19T08:17:05.363Z</time></trkpt><trkpt lat="44.2201817" lon="12.0451783"><ele>33.285714285714285</ele><time>2026-04-19T08:17:07.363Z</time></trkpt><trkpt lat="44.220215" lon="12.0451017"><ele>33.85714285714286</ele><time>2026-04-19T08:17:09.362Z</time></trkpt><trkpt lat="44.2202683" lon="12.0449967"><ele>34.42857142857143</ele><time>2026-04-19T08:17:12.363Z</time></trkpt><trkpt lat="44.2202983" lon="12.0449083"><ele>35.0</ele><time>2026-04-19T08:17:14.363Z</time></trkpt><trkpt lat="44.2203383" lon="12.0448267"><ele>35.166666666666664</ele><time>2026-04-19T08:17:16.363Z</time></trkpt><trkpt lat="44.2203917" lon="12.0447433"><ele>35.33333333333333</ele><time>2026-04-19T08:17:18.363Z</time></trkpt><trkpt lat="44.2204317" lon="12.044665"><ele>35.5</ele><time>2026-04-19T08:17:20.363Z</time></trkpt><trkpt lat="44.220485" lon="12.0445467"><ele>35.666666666666664</ele><time>2026-04-19T08:17:23.363Z</time></trkpt><trkpt lat="44.2205133" lon="12.0444567"><ele>35.833333333333336</ele><time>2026-04-19T08:17:25.363Z</time></trkpt><trkpt lat="44.22055" lon="12.0443817"><ele>36.0</ele><time>2026-04-19T08:17:27.363Z</time></trkpt><trkpt lat="44.2205883" lon="12.0443083"><ele>36.00000000000001</ele><time>2026-04-19T08:17:29.363Z</time></trkpt><trkpt lat="44.22062" lon="12.044225"><ele>36.0</ele><time>2026-04-19T08:17:31.363Z</time></trkpt><trkpt lat="44.2206417" lon="12.044135"><ele>36.0</ele><time>2026-04-19T08:17:33.363Z</time></trkpt><trkpt lat="44.2206733" lon="12.0440433"><ele>36.0</ele><time>2026-04-19T08:17:35.364Z</time></trkpt><trkpt lat="44.2207067" lon="12.0439417"><ele>36.0</ele><time>2026-04-19T08:17:37.364Z</time></trkpt><trkpt lat="44.2207417" lon="12.0438567"><ele>36.00000000000001</ele><time>2026-04-19T08:17:39.363Z</time></trkpt><trkpt lat="44.2207817" lon="12.0437667"><ele>36.0</ele><time>2026-04-19T08:17:41.364Z</time></trkpt><trkpt lat="44.2208167" lon="12.043665"><ele>35.5</ele><time>2026-04-19T08:17:43.364Z</time></trkpt><trkpt lat="44.2208617" lon="12.043575"><ele>35.0</ele><time>2026-04-19T08:17:45.363Z</time></trkpt><trkpt lat="44.2209083" lon="12.043495"><ele>34.5</ele><time>2026-04-19T08:17:47.363Z</time></trkpt><trkpt lat="44.2209617" lon="12.043415"><ele>34.0</ele><time>2026-04-19T08:17:49.364Z</time></trkpt><trkpt lat="44.221015" lon="12.043335"><ele>33.5</ele><time>2026-04-19T08:17:51.364Z</time></trkpt><trkpt lat="44.2210617" lon="12.04325"><ele>33.0</ele><time>2026-04-19T08:17:53.363Z</time></trkpt><trkpt lat="44.2211" lon="12.0431567"><ele>32.857142857142854</ele><time>2026-04-19T08:17:55.364Z</time></trkpt><trkpt lat="44.2211367" lon="12.0430717"><ele>32.714285714285715</ele><time>2026-04-19T08:17:57.363Z</time></trkpt><trkpt lat="44.221165" lon="12.042985"><ele>32.57142857142857</ele><time>2026-04-19T08:17:59.364Z</time></trkpt><trkpt lat="44.2211983" lon="12.042895"><ele>32.42857142857143</ele><time>2026-04-19T08:18:01.364Z</time></trkpt><trkpt lat="44.2212333" lon="12.0428083"><ele>32.285714285714285</ele><time>2026-04-19T08:18:03.364Z</time></trkpt><trkpt lat="44.2212683" lon="12.04273"><ele>32.14285714285714</ele><time>2026-04-19T08:18:05.364Z</time></trkpt><trkpt lat="44.2212967" lon="12.0426367"><ele>32.0</ele><time>2026-04-19T08:18:07.363Z</time></trkpt><trkpt lat="44.22134" lon="12.0425583"><ele>31.999999999999996</ele><time>2026-04-19T08:18:09.364Z</time></trkpt><trkpt lat="44.22138" lon="12.0424733"><ele>32.0</ele><time>2026-04-19T08:18:11.364Z</time></trkpt><trkpt lat="44.22142" lon="12.042385"><ele>32.0</ele><time>2026-04-19T08:18:13.363Z</time></trkpt><trkpt lat="44.2214583" lon="12.0422983"><ele>32.0</ele><time>2026-04-19T08:18:15.364Z</time></trkpt><trkpt lat="44.2214933" lon="12.042205"><ele>31.999999999999996</ele><time>2026-04-19T08:18:17.364Z</time></trkpt><trkpt lat="44.2215217" lon="12.0420967"><ele>32.0</ele><time>2026-04-19T08:18:19.364Z</time></trkpt><trkpt lat="44.2215583" lon="12.0420083"><ele>32.57142857142857</ele><time>2026-04-19T08:18:21.364Z</time></trkpt><trkpt lat="44.2216017" lon="12.041925"><ele>33.14285714285714</ele><time>2026-04-19T08:18:23.364Z</time></trkpt><trkpt lat="44.2216367" lon="12.04185"><ele>33.714285714285715</ele><time>2026-04-19T08:18:25.364Z</time></trkpt><trkpt lat="44.2216917" lon="12.04177"><ele>34.285714285714285</ele><time>2026-04-19T08:18:27.364Z</time></trkpt><trkpt lat="44.2217333" lon="12.0416717"><ele>34.85714285714286</ele><time>2026-04-19T08:18:29.364Z</time></trkpt><trkpt lat="44.2217717" lon="12.0415833"><ele>35.42857142857143</ele><time>2026-04-19T08:18:31.364Z</time></trkpt><trkpt lat="44.2217967" lon="12.0414967"><ele>36.0</ele><time>2026-04-19T08:18:33.364Z</time></trkpt><trkpt lat="44.2218183" lon="12.04141"><ele>36.142857142857146</ele><time>2026-04-19T08:18:35.363Z</time></trkpt><trkpt lat="44.221835" lon="12.0413117"><ele>36.285714285714285</ele><time>2026-04-19T08:18:37.364Z</time></trkpt><trkpt lat="44.221875" lon="12.041235"><ele>36.42857142857143</ele><time>2026-04-19T08:18:39.364Z</time></trkpt><trkpt lat="44.22192" lon="12.0411667"><ele>36.57142857142857</ele><time>2026-04-19T08:18:41.363Z</time></trkpt><trkpt lat="44.2219567" lon="12.04108"><ele>36.714285714285715</ele><time>2026-04-19T08:18:43.363Z</time></trkpt><trkpt lat="44.22201" lon="12.0409817"><ele>36.85714285714286</ele><time>2026-04-19T08:18:46.364Z</time></trkpt><trkpt lat="44.22206" lon="12.040915"><ele>37.0</ele><time>2026-04-19T08:18:49.364Z</time></trkpt><trkpt lat="44.22212" lon="12.040885"><ele>37.0</ele><time>2026-04-19T08:18:52.363Z</time></trkpt><trkpt lat="44.2221883" lon="12.0408633"><ele>37.0</ele><time>2026-04-19T08:18:55.363Z</time></trkpt><trkpt lat="44.2222633" lon="12.04083"><ele>37.0</ele><time>2026-04-19T08:18:59.364Z</time></trkpt><trkpt lat="44.2223367" lon="12.040805"><ele>37.0</ele><time>2026-04-19T08:19:04.363Z</time></trkpt><trkpt lat="44.2223783" lon="12.040725"><ele>37.0</ele><time>2026-04-19T08:19:08.363Z</time></trkpt><trkpt lat="44.2224267" lon="12.0406517"><ele>37.0</ele><time>2026-04-19T08:19:13.364Z</time></trkpt><trkpt lat="44.2224967" lon="12.0406867"><ele>37.0</ele><time>2026-04-19T08:19:18.364Z</time></trkpt><trkpt lat="44.2225633" lon="12.040735"><ele>37.0</ele><time>2026-04-19T08:19:23.363Z</time></trkpt><trkpt lat="44.2226267" lon="12.0407867"><ele>37.0</ele><time>2026-04-19T08:19:27.363Z</time></trkpt><trkpt lat="44.22268" lon="12.04085"><ele>32.0</ele><time>2026-04-19T08:19:31.364Z</time></trkpt><trkpt lat="44.2227417" lon="12.040915"><ele>32.0</ele><time>2026-04-19T08:19:35.363Z</time></trkpt><trkpt lat="44.2227817" lon="12.0410067"><ele>32.0</ele><time>2026-04-19T08:19:40.364Z</time></trkpt><trkpt lat="44.222825" lon="12.041085"><ele>32.0</ele><time>2026-04-19T08:19:45.363Z</time></trkpt><trkpt lat="44.2228783" lon="12.0411367"><ele>32.0</ele><time>2026-04-19T08:19:50.363Z</time></trkpt></trkseg><trkseg><trkpt lat="44.2229183" lon="12.0384"><ele>40.0</ele><time>2026-04-19T08:49:49.553Z</time></trkpt><trkpt lat="44.2227817" lon="12.0384667"><ele>40.0</ele><time>2026-04-19T08:49:50.554Z</time></trkpt><trkpt lat="44.2228217" lon="12.0383617"><ele>40.0</ele><time>2026-04-19T08:49:54.554Z</time></trkpt><trkpt lat="44.2227367" lon="12.038355"><ele>40.0</ele><time>2026-04-19T08:49:57.554Z</time></trkpt><trkpt lat="44.2226867" lon="12.038295"><ele>40.0</ele><time>2026-04-19T08:50:00.554Z</time></trkpt><trkpt lat="44.222635" lon="12.0382333"><ele>40.0</ele><time>2026-04-19T08:50:01.554Z</time></trkpt><trkpt lat="44.2225717" lon="12.0381883"><ele>39.714285714285715</ele><time>2026-04-19T08:50:04.358Z</time></trkpt><trkpt lat="44.2225" lon="12.03815"><ele>39.42857142857143</ele><time>2026-04-19T08:50:07.358Z</time></trkpt><trkpt lat="44.2224433" lon="12.0380933"><ele>39.14285714285714</ele><time>2026-04-19T08:50:11.358Z</time></trkpt><trkpt lat="44.2224083" lon="12.0380133"><ele>38.85714285714286</ele><time>2026-04-19T08:50:30.357Z</time></trkpt><trkpt lat="44.2223533" lon="12.0379667"><ele>38.57142857142858</ele><time>2026-04-19T08:50:33.357Z</time></trkpt><trkpt lat="44.2222717" lon="12.03793"><ele>38.285714285714285</ele><time>2026-04-19T08:50:36.357Z</time></trkpt><trkpt lat="44.2221983" lon="12.0378917"><ele>38.0</ele><time>2026-04-19T08:50:39.358Z</time></trkpt><trkpt lat="44.2221267" lon="12.0378533"><ele>37.33333333333333</ele><time>2026-04-19T08:50:44.357Z</time></trkpt><trkpt lat="44.2220583" lon="12.0378167"><ele>36.666666666666664</ele><time>2026-04-19T08:50:48.358Z</time></trkpt><trkpt lat="44.2220667" lon="12.0377183"><ele>36.0</ele><time>2026-04-19T08:50:54.357Z</time></trkpt><trkpt lat="44.2221" lon="12.037605"><ele>35.333333333333336</ele><time>2026-04-19T08:50:57.358Z</time></trkpt><trkpt lat="44.2221317" lon="12.03749"><ele>34.66666666666667</ele><time>2026-04-19T08:51:00.358Z</time></trkpt><trkpt lat="44.2221583" lon="12.0373933"><ele>34.0</ele><time>2026-04-19T08:51:04.358Z</time></trkpt><trkpt lat="44.2221133" lon="12.0373117"><ele>33.833333333333336</ele><time>2026-04-19T08:51:11.358Z</time></trkpt><trkpt lat="44.2220417" lon="12.037245"><ele>33.66666666666667</ele><time>2026-04-19T08:51:15.357Z</time></trkpt><trkpt lat="44.2219817" lon="12.0371917"><ele>33.5</ele><time>2026-04-19T08:51:18.358Z</time></trkpt><trkpt lat="44.2218983" lon="12.0371567"><ele>33.333333333333336</ele><time>2026-04-19T08:51:22.358Z</time></trkpt><trkpt lat="44.22183" lon="12.0371233"><ele>33.166666666666664</ele><time>2026-04-19T08:51:25.357Z</time></trkpt><trkpt lat="44.22176" lon="12.0370883"><ele>33.0</ele><time>2026-04-19T08:51:28.358Z</time></trkpt><trkpt lat="44.2216867" lon="12.0370683"><ele>33.0</ele><time>2026-04-19T08:51:33.358Z</time></trkpt><trkpt lat="44.2216983" lon="12.0369667"><ele>33.0</ele><time>2026-04-19T08:51:37.358Z</time></trkpt><trkpt lat="44.2216667" lon="12.0368767"><ele>33.0</ele><time>2026-04-19T08:51:40.358Z</time></trkpt><trkpt lat="44.22163" lon="12.0367917"><ele>33.0</ele><time>2026-04-19T08:51:43.357Z</time></trkpt><trkpt lat="44.2216267" lon="12.0366817"><ele>33.0</ele><time>2026-04-19T08:51:46.358Z</time></trkpt><trkpt lat="44.2216633" lon="12.0365817"><ele>33.0</ele><time>2026-04-19T08:51:49.358Z</time></trkpt><trkpt lat="44.2217217" lon="12.0365"><ele>33.0</ele><time>2026-04-19T08:51:52.357Z</time></trkpt><trkpt lat="44.221785" lon="12.0364133"><ele>33.0</ele><time>2026-04-19T08:51:55.357Z</time></trkpt><trkpt lat="44.2218567" lon="12.0363517"><ele>33.0</ele><time>2026-04-19T08:51:58.358Z</time></trkpt><trkpt lat="44.22192" lon="12.036275"><ele>33.0</ele><time>2026-04-19T08:52:01.358Z</time></trkpt><trkpt lat="44.2219667" lon="12.0362"><ele>33.0</ele><time>2026-04-19T08:52:04.357Z</time></trkpt><trkpt lat="44.2220267" lon="12.03613"><ele>33.0</ele><time>2026-04-19T08:52:08.358Z</time></trkpt><trkpt lat="44.22209" lon="12.0361033"><ele>33.0</ele><time>2026-04-19T08:52:12.358Z</time></trkpt><trkpt lat="44.2221617" lon="12.0361417"><ele>33.0</ele><time>2026-04-19T08:52:17.357Z</time></trkpt><trkpt lat="44.22222" lon="12.0361833"><ele>33.0</ele><time>2026-04-19T08:52:20.357Z</time></trkpt><trkpt lat="44.2222867" lon="12.0362167"><ele>33.0</ele><time>2026-04-19T08:52:23.358Z</time></trkpt><trkpt lat="44.22235" lon="12.0362433"><ele>33.0</ele><time>2026-04-19T08:52:26.358Z</time></trkpt><trkpt lat="44.2224167" lon="12.0362817"><ele>33.0</ele><time>2026-04-19T08:52:29.358Z</time></trkpt><trkpt lat="44.2224867" lon="12.0363267"><ele>33.0</ele><time>2026-04-19T08:52:33.357Z</time></trkpt><trkpt lat="44.2225483" lon="12.0363867"><ele>33.166666666666664</ele><time>2026-04-19T08:52:37.357Z</time></trkpt><trkpt lat="44.2226217" lon="12.0364133"><ele>33.333333333333336</ele><time>2026-04-19T08:52:41.357Z</time></trkpt><trkpt lat="44.2227033" lon="12.0364633"><ele>33.5</ele><time>2026-04-19T08:52:45.357Z</time></trkpt><trkpt lat="44.222765" lon="12.0365083"><ele>33.66666666666667</ele><time>2026-04-19T08:52:48.358Z</time></trkpt><trkpt lat="44.2228133" lon="12.0365867"><ele>33.833333333333336</ele><time>2026-04-19T08:52:51.358Z</time></trkpt><trkpt lat="44.222835" lon="12.0366983"><ele>34.0</ele><time>2026-04-19T08:52:55.358Z</time></trkpt><trkpt lat="44.2228683" lon="12.03679"><ele>34.16666666666667</ele><time>2026-04-19T08:52:58.358Z</time></trkpt><trkpt lat="44.2229183" lon="12.03687"><ele>34.333333333333336</ele><time>2026-04-19T08:53:02.358Z</time></trkpt><trkpt lat="44.2229583" lon="12.0369517"><ele>34.5</ele><time>2026-04-19T08:53:05.358Z</time></trkpt><trkpt lat="44.2230067" lon="12.0370433"><ele>34.666666666666664</ele><time>2026-04-19T08:53:08.358Z</time></trkpt><trkpt lat="44.2230633" lon="12.03714"><ele>34.83333333333333</ele><time>2026-04-19T08:53:11.358Z</time></trkpt><trkpt lat="44.22312" lon="12.0372233"><ele>35.0</ele><time>2026-04-19T08:53:14.358Z</time></trkpt><trkpt lat="44.22318" lon="12.0372983"><ele>35.0</ele><time>2026-04-19T08:53:17.358Z</time></trkpt><trkpt lat="44.2232233" lon="12.0373667"><ele>35.0</ele><time>2026-04-19T08:53:20.358Z</time></trkpt><trkpt lat="44.2232733" lon="12.0374367"><ele>35.0</ele><time>2026-04-19T08:53:24.358Z</time></trkpt><trkpt lat="44.2233183" lon="12.0375033"><ele>35.0</ele><time>2026-04-19T08:53:35.358Z</time></trkpt><trkpt lat="44.2232917" lon="12.037625"><ele>35.0</ele><time>2026-04-19T08:54:25.357Z</time></trkpt><trkpt lat="44.2232117" lon="12.0376533"><ele>35.0</ele><time>2026-04-19T08:54:30.358Z</time></trkpt><trkpt lat="44.2231417" lon="12.037715"><ele>35.42857142857143</ele><time>2026-04-19T08:54:34.358Z</time></trkpt><trkpt lat="44.22309" lon="12.0377667"><ele>35.85714285714286</ele><time>2026-04-19T08:54:37.358Z</time></trkpt><trkpt lat="44.22304" lon="12.03784"><ele>36.285714285714285</ele><time>2026-04-19T08:54:40.357Z</time></trkpt><trkpt lat="44.2229883" lon="12.0379133"><ele>36.714285714285715</ele><time>2026-04-19T08:54:43.357Z</time></trkpt><trkpt lat="44.2229267" lon="12.0379817"><ele>37.142857142857146</ele><time>2026-04-19T08:54:47.357Z</time></trkpt><trkpt lat="44.222885" lon="12.0380517"><ele>37.57142857142857</ele><time>2026-04-19T08:54:55.357Z</time></trkpt><trkpt lat="44.2228367" lon="12.038115"><ele>38.0</ele><time>2026-04-19T08:55:04.358Z</time></trkpt><trkpt lat="44.222785" lon="12.0381983"><ele>38.0</ele><time>2026-04-19T08:55:08.358Z</time></trkpt><trkpt lat="44.2227533" lon="12.0382783"><ele>38.0</ele><time>2026-04-19T08:55:13.357Z</time></trkpt><trkpt lat="44.2228" lon="12.0383767"><ele>38.0</ele><time>2026-04-19T08:55:45.358Z</time></trkpt><trkpt lat="44.22286" lon="12.0384633"><ele>38.0</ele><time>2026-04-19T08:55:47.358Z</time></trkpt><trkpt lat="44.2228883" lon="12.0385717"><ele>38.0</ele><time>2026-04-19T08:55:50.357Z</time></trkpt><trkpt lat="44.2228867" lon="12.0386917"><ele>38.0</ele><time>2026-04-19T08:55:53.358Z</time></trkpt><trkpt lat="44.2228767" lon="12.0387817"><ele>38.33333333333333</ele><time>2026-04-19T08:55:56.357Z</time></trkpt><trkpt lat="44.222845" lon="12.03887"><ele>38.666666666666664</ele><time>2026-04-19T08:55:59.358Z</time></trkpt><trkpt lat="44.2228833" lon="12.0390167"><ele>39.0</ele><time>2026-04-19T08:56:02.357Z</time></trkpt><trkpt lat="44.222925" lon="12.0390867"><ele>39.333333333333336</ele><time>2026-04-19T08:56:05.357Z</time></trkpt><trkpt lat="44.2229783" lon="12.039145"><ele>39.66666666666667</ele><time>2026-04-19T08:56:09.358Z</time></trkpt><trkpt lat="44.2230517" lon="12.039165"><ele>40.0</ele><time>2026-04-19T08:56:12.357Z</time></trkpt><trkpt lat="44.2231233" lon="12.0392033"><ele>40.0</ele><time>2026-04-19T08:56:15.357Z</time></trkpt><trkpt lat="44.223185" lon="12.0392467"><ele>40.0</ele><time>2026-04-19T08:56:18.357Z</time></trkpt><trkpt lat="44.2232283" lon="12.0393233"><ele>40.0</ele><time>2026-04-19T08:56:21.357Z</time></trkpt><trkpt lat="44.223235" lon="12.0394167"><ele>40.0</ele><time>2026-04-19T08:56:24.357Z</time></trkpt><trkpt lat="44.2232133" lon="12.0395133"><ele>40.0</ele><time>2026-04-19T08:56:28.358Z</time></trkpt><trkpt lat="44.22319" lon="12.03961"><ele>40.0</ele><time>2026-04-19T08:56:32.358Z</time></trkpt><trkpt lat="44.2231533" lon="12.0396817"><ele>40.0</ele><time>2026-04-19T08:56:35.358Z</time></trkpt><trkpt lat="44.2231433" lon="12.039775"><ele>40.0</ele><time>2026-04-19T08:56:44.357Z</time></trkpt><trkpt lat="44.2230867" lon="12.03982"><ele>40.0</ele><time>2026-04-19T08:56:51.357Z</time></trkpt><trkpt lat="44.2230233" lon="12.03986"><ele>40.0</ele><time>2026-04-19T08:56:55.357Z</time></trkpt><trkpt lat="44.22296" lon="12.039885"><ele>40.0</ele><time>2026-04-19T08:56:58.357Z</time></trkpt><trkpt lat="44.22289" lon="12.0399017"><ele>40.0</ele><time>2026-04-19T08:57:01.357Z</time></trkpt><trkpt lat="44.2228417" lon="12.0399617"><ele>40.0</ele><time>2026-04-19T08:57:08.357Z</time></trkpt><trkpt lat="44.2227833" lon="12.0400783"><ele>40.0</ele><time>2026-04-19T08:57:13.358Z</time></trkpt><trkpt lat="44.222735" lon="12.04016"><ele>37.0</ele><time>2026-04-19T08:57:15.357Z</time></trkpt><trkpt lat="44.22265" lon="12.0402"><ele>37.0</ele><time>2026-04-19T08:57:18.358Z</time></trkpt><trkpt lat="44.222595" lon="12.04025"><ele>37.0</ele><time>2026-04-19T08:57:25.357Z</time></trkpt><trkpt lat="44.222535" lon="12.0402067"><ele>37.0</ele><time>2026-04-19T08:57:53.357Z</time></trkpt><trkpt lat="44.22247" lon="12.0402567"><ele>37.0</ele><time>2026-04-19T08:57:57.358Z</time></trkpt><trkpt lat="44.2224" lon="12.0402783"><ele>37.0</ele><time>2026-04-19T08:58:00.357Z</time></trkpt><trkpt lat="44.2223283" lon="12.0402933"><ele>37.0</ele><time>2026-04-19T08:58:04.358Z</time></trkpt></trkseg><trkseg><trkpt lat="44.2231433" lon="12.0412283"><ele>32.0</ele><time>2026-04-19T09:25:27.353Z</time></trkpt><trkpt lat="44.2232067" lon="12.0412467"><ele>31.999999999999996</ele><time>2026-04-19T09:25:39.353Z</time></trkpt><trkpt lat="44.223255" lon="12.0413183"><ele>32.0</ele><time>2026-04-19T09:25:46.353Z</time></trkpt><trkpt lat="44.2233117" lon="12.0413683"><ele>32.0</ele><time>2026-04-19T09:25:52.353Z</time></trkpt><trkpt lat="44.2233617" lon="12.0414217"><ele>31.999999999999996</ele><time>2026-04-19T09:25:58.352Z</time></trkpt><trkpt lat="44.223425" lon="12.041465"><ele>32.0</ele><time>2026-04-19T09:26:04.353Z</time></trkpt><trkpt lat="44.2234783" lon="12.0415233"><ele>32.0</ele><time>2026-04-19T09:26:10.353Z</time></trkpt><trkpt lat="44.22352" lon="12.04159"><ele>32.0</ele><time>2026-04-19T09:26:16.353Z</time></trkpt><trkpt lat="44.2235767" lon="12.0416283"><ele>31.999999999999996</ele><time>2026-04-19T09:26:23.352Z</time></trkpt><trkpt lat="44.2236083" lon="12.04171"><ele>32.0</ele><time>2026-04-19T09:26:30.353Z</time></trkpt><trkpt lat="44.2236683" lon="12.0417483"><ele>32.0</ele><time>2026-04-19T09:26:37.353Z</time></trkpt><trkpt lat="44.2237333" lon="12.0417717"><ele>31.999999999999996</ele><time>2026-04-19T09:26:46.352Z</time></trkpt><trkpt lat="44.2238083" lon="12.0418067"><ele>32.0</ele><time>2026-04-19T09:26:52.352Z</time></trkpt><trkpt lat="44.2238717" lon="12.0418117"><ele>32.0</ele><time>2026-04-19T09:27:00.353Z</time></trkpt><trkpt lat="44.2239383" lon="12.0418467"><ele>32.285714285714285</ele><time>2026-04-19T09:27:07.352Z</time></trkpt><trkpt lat="44.223975" lon="12.041925"><ele>32.57142857142857</ele><time>2026-04-19T09:27:12.352Z</time></trkpt><trkpt lat="44.22399" lon="12.042015"><ele>32.857142857142854</ele><time>2026-04-19T09:27:16.352Z</time></trkpt><trkpt lat="44.2240183" lon="12.0421167"><ele>33.14285714285714</ele><time>2026-04-19T09:27:21.353Z</time></trkpt><trkpt lat="44.22405" lon="12.04222"><ele>33.42857142857143</ele><time>2026-04-19T09:27:25.353Z</time></trkpt><trkpt lat="44.2240867" lon="12.0423083"><ele>33.71428571428571</ele><time>2026-04-19T09:27:29.353Z</time></trkpt><trkpt lat="44.224065" lon="12.04241"><ele>34.0</ele><time>2026-04-19T09:27:34.353Z</time></trkpt><trkpt lat="44.2241083" lon="12.0424883"><ele>34.16666666666667</ele><time>2026-04-19T09:27:40.353Z</time></trkpt><trkpt lat="44.224125" lon="12.0425883"><ele>34.333333333333336</ele><time>2026-04-19T09:27:45.353Z</time></trkpt><trkpt lat="44.2242067" lon="12.0426517"><ele>34.5</ele><time>2026-04-19T09:28:03.352Z</time></trkpt><trkpt lat="44.22424" lon="12.0427367"><ele>34.666666666666664</ele><time>2026-04-19T09:28:09.353Z</time></trkpt><trkpt lat="44.2242633" lon="12.0428267"><ele>34.83333333333333</ele><time>2026-04-19T09:28:15.353Z</time></trkpt><trkpt lat="44.2242883" lon="12.042925"><ele>35.0</ele><time>2026-04-19T09:28:21.353Z</time></trkpt><trkpt lat="44.224315" lon="12.04302"><ele>35.0</ele><time>2026-04-19T09:28:26.351Z</time></trkpt><trkpt lat="44.2243117" lon="12.04311"><ele>35.0</ele><time>2026-04-19T09:28:32.352Z</time></trkpt><trkpt lat="44.2243467" lon="12.0431967"><ele>35.0</ele><time>2026-04-19T09:28:38.352Z</time></trkpt><trkpt lat="44.22435" lon="12.0433083"><ele>35.0</ele><time>2026-04-19T09:28:44.352Z</time></trkpt><trkpt lat="44.2243817" lon="12.0433967"><ele>35.0</ele><time>2026-04-19T09:28:49.351Z</time></trkpt><trkpt lat="44.2244317" lon="12.0434617"><ele>35.0</ele><time>2026-04-19T09:28:56.352Z</time></trkpt><trkpt lat="44.2244917" lon="12.0435167"><ele>35.0</ele><time>2026-04-19T09:29:02.351Z</time></trkpt><trkpt lat="44.224545" lon="12.043565"><ele>35.0</ele><time>2026-04-19T09:29:07.352Z</time></trkpt><trkpt lat="44.2245917" lon="12.0436367"><ele>35.0</ele><time>2026-04-19T09:29:16.351Z</time></trkpt><trkpt lat="44.224635" lon="12.0437033"><ele>35.0</ele><time>2026-04-19T09:29:23.352Z</time></trkpt><trkpt lat="44.224675" lon="12.0437717"><ele>35.0</ele><time>2026-04-19T09:29:30.351Z</time></trkpt><trkpt lat="44.22471" lon="12.0438467"><ele>35.0</ele><time>2026-04-19T09:29:37.351Z</time></trkpt><trkpt lat="44.2247583" lon="12.0439233"><ele>35.0</ele><time>2026-04-19T09:29:44.352Z</time></trkpt><trkpt lat="44.22479" lon="12.044015"><ele>35.0</ele><time>2026-04-19T09:29:51.351Z</time></trkpt><trkpt lat="44.224825" lon="12.0440883"><ele>34.42857142857143</ele><time>2026-04-19T09:29:57.352Z</time></trkpt><trkpt lat="44.2248717" lon="12.0441533"><ele>33.85714285714286</ele><time>2026-04-19T09:30:03.352Z</time></trkpt><trkpt lat="44.2249033" lon="12.0442367"><ele>33.285714285714285</ele><time>2026-04-19T09:30:09.351Z</time></trkpt><trkpt lat="44.2249167" lon="12.0443283"><ele>32.714285714285715</ele><time>2026-04-19T09:30:14.352Z</time></trkpt><trkpt lat="44.2249717" lon="12.0443967"><ele>32.142857142857146</ele><time>2026-04-19T09:30:21.351Z</time></trkpt><trkpt lat="44.2250133" lon="12.0444633"><ele>31.571428571428573</ele><time>2026-04-19T09:30:27.352Z</time></trkpt><trkpt lat="44.2250433" lon="12.0445417"><ele>31.0</ele><time>2026-04-19T09:30:32.352Z</time></trkpt><trkpt lat="44.2250933" lon="12.044615"><ele>31.0</ele><time>2026-04-19T09:30:38.352Z</time></trkpt><trkpt lat="44.2251" lon="12.0447233"><ele>31.000000000000004</ele><time>2026-04-19T09:30:45.352Z</time></trkpt><trkpt lat="44.2251033" lon="12.0448133"><ele>31.0</ele><time>2026-04-19T09:30:50.351Z</time></trkpt><trkpt lat="44.2251467" lon="12.0448833"><ele>31.0</ele><time>2026-04-19T09:30:56.352Z</time></trkpt><trkpt lat="44.2252117" lon="12.0449317"><ele>31.000000000000004</ele><time>2026-04-19T09:31:36.352Z</time></trkpt><trkpt lat="44.2252567" lon="12.0450067"><ele>31.0</ele><time>2026-04-19T09:31:44.351Z</time></trkpt><trkpt lat="44.2253017" lon="12.045075"><ele>31.0</ele><time>2026-04-19T09:31:55.352Z</time></trkpt><trkpt lat="44.2253567" lon="12.04514"><ele>30.857142857142858</ele><time>2026-04-19T09:32:01.352Z</time></trkpt><trkpt lat="44.2253933" lon="12.0452167"><ele>30.714285714285715</ele><time>2026-04-19T09:32:06.352Z</time></trkpt><trkpt lat="44.22544" lon="12.045295"><ele>30.571428571428573</ele><time>2026-04-19T09:32:11.352Z</time></trkpt><trkpt lat="44.2254933" lon="12.0453583"><ele>30.42857142857143</ele><time>2026-04-19T09:32:16.352Z</time></trkpt><trkpt lat="44.2255433" lon="12.0454183"><ele>30.285714285714285</ele><time>2026-04-19T09:32:21.352Z</time></trkpt><trkpt lat="44.2256" lon="12.0454683"><ele>30.142857142857146</ele><time>2026-04-19T09:32:27.352Z</time></trkpt><trkpt lat="44.2256317" lon="12.0455533"><ele>30.0</ele><time>2026-04-19T09:32:32.351Z</time></trkpt><trkpt lat="44.2256667" lon="12.0456317"><ele>29.857142857142858</ele><time>2026-04-19T09:32:38.352Z</time></trkpt><trkpt lat="44.225685" lon="12.0457217"><ele>29.714285714285715</ele><time>2026-04-19T09:32:44.351Z</time></trkpt><trkpt lat="44.2257233" lon="12.0458033"><ele>29.571428571428573</ele><time>2026-04-19T09:32:50.351Z</time></trkpt><trkpt lat="44.2257633" lon="12.0458883"><ele>29.42857142857143</ele><time>2026-04-19T09:32:56.352Z</time></trkpt><trkpt lat="44.22584" lon="12.04588"><ele>29.285714285714285</ele><time>2026-04-19T09:33:07.351Z</time></trkpt><trkpt lat="44.2258933" lon="12.0458033"><ele>29.142857142857146</ele><time>2026-04-19T09:33:10.352Z</time></trkpt><trkpt lat="44.2259317" lon="12.0457283"><ele>29.000000000000004</ele><time>2026-04-19T09:33:13.351Z</time></trkpt><trkpt lat="44.2259883" lon="12.0456683"><ele>28.999999999999996</ele><time>2026-04-19T09:34:13.352Z</time></trkpt><trkpt lat="44.225935" lon="12.04573"><ele>29.0</ele><time>2026-04-19T09:35:10.352Z</time></trkpt><trkpt lat="44.225895" lon="12.0458083"><ele>29.0</ele><time>2026-04-19T09:35:15.352Z</time></trkpt><trkpt lat="44.225945" lon="12.0458833"><ele>29.0</ele><time>2026-04-19T09:35:19.352Z</time></trkpt><trkpt lat="44.2260133" lon="12.04593"><ele>28.999999999999996</ele><time>2026-04-19T09:35:22.352Z</time></trkpt><trkpt lat="44.22612" lon="12.0460417"><ele>29.0</ele><time>2026-04-19T09:36:22.351Z</time></trkpt><trkpt lat="44.22609" lon="12.0461433"><ele>29.000000000000004</ele><time>2026-04-19T09:36:25.35Z</time></trkpt><trkpt lat="44.2260533" lon="12.0462283"><ele>29.0</ele><time>2026-04-19T09:36:27.35Z</time></trkpt><trkpt lat="44.2260217" lon="12.04632"><ele>29.000000000000004</ele><time>2026-04-19T09:36:29.351Z</time></trkpt><trkpt lat="44.2260067" lon="12.0464117"><ele>29.000000000000004</ele><time>2026-04-19T09:36:31.351Z</time></trkpt><trkpt lat="44.2260167" lon="12.046505"><ele>29.0</ele><time>2026-04-19T09:36:33.351Z</time></trkpt><trkpt lat="44.2260517" lon="12.0465883"><ele>29.000000000000004</ele><time>2026-04-19T09:36:35.35Z</time></trkpt><trkpt lat="44.2260933" lon="12.0466767"><ele>29.000000000000004</ele><time>2026-04-19T09:36:37.35Z</time></trkpt><trkpt lat="44.2261317" lon="12.04678"><ele>28.999999999999996</ele><time>2026-04-19T09:36:39.35Z</time></trkpt><trkpt lat="44.2261783" lon="12.0468767"><ele>29.0</ele><time>2026-04-19T09:36:41.351Z</time></trkpt><trkpt lat="44.2262167" lon="12.04697"><ele>29.0</ele><time>2026-04-19T09:36:43.351Z</time></trkpt><trkpt lat="44.22626" lon="12.047075"><ele>29.0</ele><time>2026-04-19T09:36:45.35Z</time></trkpt><trkpt lat="44.226305" lon="12.04718"><ele>28.999999999999996</ele><time>2026-04-19T09:36:47.351Z</time></trkpt><trkpt lat="44.2263483" lon="12.0472917"><ele>29.0</ele><time>2026-04-19T09:36:49.351Z</time></trkpt><trkpt lat="44.2263883" lon="12.0474083"><ele>28.666666666666664</ele><time>2026-04-19T09:36:51.35Z</time></trkpt><trkpt lat="44.2264383" lon="12.0475133"><ele>28.333333333333332</ele><time>2026-04-19T09:36:53.351Z</time></trkpt><trkpt lat="44.2264833" lon="12.0476083"><ele>28.0</ele><time>2026-04-19T09:36:55.351Z</time></trkpt><trkpt lat="44.2265317" lon="12.047705"><ele>27.666666666666664</ele><time>2026-04-19T09:36:57.35Z</time></trkpt><trkpt lat="44.2265833" lon="12.0478083"><ele>27.333333333333332</ele><time>2026-04-19T09:36:59.35Z</time></trkpt><trkpt lat="44.2266417" lon="12.0479167"><ele>27.0</ele><time>2026-04-19T09:37:01.35Z</time></trkpt><trkpt lat="44.2267067" lon="12.0480333"><ele>27.0</ele><time>2026-04-19T09:37:03.35Z</time></trkpt><trkpt lat="44.2267517" lon="12.048145"><ele>27.000000000000004</ele><time>2026-04-19T09:37:05.35Z</time></trkpt><trkpt lat="44.2268017" lon="12.0482467"><ele>27.000000000000004</ele><time>2026-04-19T09:37:07.351Z</time></trkpt><trkpt lat="44.2268417" lon="12.0483583"><ele>27.0</ele><time>2026-04-19T09:37:09.35Z</time></trkpt><trkpt lat="44.226885" lon="12.04849"><ele>27.0</ele><time>2026-04-19T09:37:11.351Z</time></trkpt><trkpt lat="44.226945" lon="12.04859"><ele>26.857142857142858</ele><time>2026-04-19T09:37:13.351Z</time></trkpt><trkpt lat="44.2270133" lon="12.0486667"><ele>26.714285714285715</ele><time>2026-04-19T09:37:15.351Z</time></trkpt><trkpt lat="44.2270583" lon="12.0487483"><ele>26.57142857142857</ele><time>2026-04-19T09:37:17.351Z</time></trkpt><trkpt lat="44.2271" lon="12.0488283"><ele>26.42857142857143</ele><time>2026-04-19T09:37:19.351Z</time></trkpt><trkpt lat="44.2271367" lon="12.0489083"><ele>26.28571428571429</ele><time>2026-04-19T09:37:21.351Z</time></trkpt><trkpt lat="44.2271733" lon="12.0489833"><ele>26.142857142857142</ele><time>2026-04-19T09:37:23.351Z</time></trkpt><trkpt lat="44.2272067" lon="12.0490617"><ele>26.0</ele><time>2026-04-19T09:37:25.351Z</time></trkpt><trkpt lat="44.2272467" lon="12.0491717"><ele>25.833333333333332</ele><time>2026-04-19T09:37:28.351Z</time></trkpt><trkpt lat="44.2272933" lon="12.0492533"><ele>25.666666666666664</ele><time>2026-04-19T09:37:30.35Z</time></trkpt><trkpt lat="44.2273417" lon="12.0493383"><ele>25.5</ele><time>2026-04-19T09:37:32.35Z</time></trkpt><trkpt lat="44.2273883" lon="12.049425"><ele>25.333333333333336</ele><time>2026-04-19T09:37:34.351Z</time></trkpt><trkpt lat="44.2274267" lon="12.0495217"><ele>25.166666666666668</ele><time>2026-04-19T09:37:36.351Z</time></trkpt><trkpt lat="44.2274717" lon="12.0496133"><ele>25.0</ele><time>2026-04-19T09:37:38.351Z</time></trkpt><trkpt lat="44.227515" lon="12.049695"><ele>25.166666666666668</ele><time>2026-04-19T09:37:40.351Z</time></trkpt><trkpt lat="44.22755" lon="12.0497817"><ele>25.333333333333336</ele><time>2026-04-19T09:37:42.35Z</time></trkpt><trkpt lat="44.227575" lon="12.0498733"><ele>25.5</ele><time>2026-04-19T09:37:44.35Z</time></trkpt><trkpt lat="44.2276233" lon="12.04999"><ele>25.666666666666664</ele><time>2026-04-19T09:37:47.35Z</time></trkpt><trkpt lat="44.22766" lon="12.0500683"><ele>25.833333333333332</ele><time>2026-04-19T09:37:49.351Z</time></trkpt><trkpt lat="44.2277033" lon="12.05015"><ele>26.0</ele><time>2026-04-19T09:37:51.351Z</time></trkpt><trkpt lat="44.2277467" lon="12.0502383"><ele>25.999999999999996</ele><time>2026-04-19T09:37:53.351Z</time></trkpt><trkpt lat="44.2277883" lon="12.0503317"><ele>26.0</ele><time>2026-04-19T09:37:55.35Z</time></trkpt><trkpt lat="44.2278317" lon="12.05043"><ele>26.0</ele><time>2026-04-19T09:37:57.351Z</time></trkpt><trkpt lat="44.2278733" lon="12.0505233"><ele>26.0</ele><time>2026-04-19T09:37:59.35Z</time></trkpt><trkpt lat="44.22791" lon="12.05063"><ele>25.999999999999996</ele><time>2026-04-19T09:38:01.351Z</time></trkpt><trkpt lat="44.22795" lon="12.0507383"><ele>26.0</ele><time>2026-04-19T09:38:03.351Z</time></trkpt><trkpt lat="44.2279833" lon="12.0508433"><ele>25.999999999999996</ele><time>2026-04-19T09:38:05.351Z</time></trkpt><trkpt lat="44.2280267" lon="12.0509517"><ele>26.0</ele><time>2026-04-19T09:38:07.351Z</time></trkpt><trkpt lat="44.2280717" lon="12.0510583"><ele>26.0</ele><time>2026-04-19T09:38:09.351Z</time></trkpt><trkpt lat="44.22811" lon="12.05116"><ele>26.0</ele><time>2026-04-19T09:38:11.35Z</time></trkpt><trkpt lat="44.2281383" lon="12.0512533"><ele>25.999999999999996</ele><time>2026-04-19T09:38:13.35Z</time></trkpt><trkpt lat="44.22817" lon="12.051345"><ele>26.0</ele><time>2026-04-19T09:38:15.351Z</time></trkpt><trkpt lat="44.2281967" lon="12.0514333"><ele>25.999999999999996</ele><time>2026-04-19T09:38:17.351Z</time></trkpt><trkpt lat="44.228235" lon="12.0515217"><ele>26.0</ele><time>2026-04-19T09:38:19.35Z</time></trkpt><trkpt lat="44.2282683" lon="12.05162"><ele>26.0</ele><time>2026-04-19T09:38:21.351Z</time></trkpt><trkpt lat="44.228305" lon="12.0517117"><ele>26.0</ele><time>2026-04-19T09:38:23.35Z</time></trkpt><trkpt lat="44.22834" lon="12.0518"><ele>25.999999999999996</ele><time>2026-04-19T09:38:25.351Z</time></trkpt><trkpt lat="44.22838" lon="12.051895"><ele>26.0</ele><time>2026-04-19T09:38:27.351Z</time></trkpt><trkpt lat="44.2284283" lon="12.0519833"><ele>25.71428571428571</ele><time>2026-04-19T09:38:29.351Z</time></trkpt><trkpt lat="44.22847" lon="12.0520633"><ele>25.42857142857143</ele><time>2026-04-19T09:38:31.351Z</time></trkpt><trkpt lat="44.22851" lon="12.052135"><ele>25.142857142857142</ele><time>2026-04-19T09:38:33.351Z</time></trkpt><trkpt lat="44.2285567" lon="12.0521967"><ele>24.857142857142854</ele><time>2026-04-19T09:38:35.351Z</time></trkpt><trkpt lat="44.2286117" lon="12.0522467"><ele>24.57142857142857</ele><time>2026-04-19T09:38:39.351Z</time></trkpt><trkpt lat="44.2286567" lon="12.052325"><ele>24.285714285714285</ele><time>2026-04-19T09:38:42.351Z</time></trkpt><trkpt lat="44.2286817" lon="12.052445"><ele>24.0</ele><time>2026-04-19T09:38:45.35Z</time></trkpt><trkpt lat="44.2287167" lon="12.05254"><ele>24.0</ele><time>2026-04-19T09:38:47.351Z</time></trkpt><trkpt lat="44.2287667" lon="12.0526367"><ele>24.0</ele><time>2026-04-19T09:38:49.351Z</time></trkpt><trkpt lat="44.2288133" lon="12.0527317"><ele>24.0</ele><time>2026-04-19T09:38:51.35Z</time></trkpt><trkpt lat="44.22886" lon="12.05283"><ele>24.0</ele><time>2026-04-19T09:38:53.35Z</time></trkpt><trkpt lat="44.228905" lon="12.05293"><ele>24.0</ele><time>2026-04-19T09:38:55.351Z</time></trkpt><trkpt lat="44.228955" lon="12.05303"><ele>24.0</ele><time>2026-04-19T09:38:57.351Z</time></trkpt><trkpt lat="44.2290083" lon="12.0531233"><ele>24.166666666666668</ele><time>2026-04-19T09:38:59.351Z</time></trkpt><trkpt lat="44.2290567" lon="12.0532167"><ele>24.333333333333336</ele><time>2026-04-19T09:39:01.351Z</time></trkpt><trkpt lat="44.2291083" lon="12.0533"><ele>24.5</ele><time>2026-04-19T09:39:03.35Z</time></trkpt><trkpt lat="44.229155" lon="12.0533717"><ele>24.666666666666668</ele><time>2026-04-19T09:39:05.351Z</time></trkpt><trkpt lat="44.2292367" lon="12.053365"><ele>24.833333333333336</ele><time>2026-04-19T09:39:08.351Z</time></trkpt><trkpt lat="44.2292883" lon="12.0533033"><ele>25.0</ele><time>2026-04-19T09:39:10.351Z</time></trkpt><trkpt lat="44.229335" lon="12.0532067"><ele>25.2</ele><time>2026-04-19T09:39:12.351Z</time></trkpt><trkpt lat="44.2293667" lon="12.05309"><ele>25.4</ele><time>2026-04-19T09:39:14.35Z</time></trkpt><trkpt lat="44.2294083" lon="12.0529767"><ele>25.6</ele><time>2026-04-19T09:39:16.351Z</time></trkpt><trkpt lat="44.2294467" lon="12.0528517"><ele>25.8</ele><time>2026-04-19T09:39:18.351Z</time></trkpt><trkpt lat="44.22949" lon="12.052735"><ele>26.0</ele><time>2026-04-19T09:39:20.351Z</time></trkpt><trkpt lat="44.229545" lon="12.0526333"><ele>26.0</ele><time>2026-04-19T09:39:22.35Z</time></trkpt><trkpt lat="44.2295917" lon="12.0525467"><ele>26.0</ele><time>2026-04-19T09:39:24.35Z</time></trkpt><trkpt lat="44.2296417" lon="12.0524567"><ele>26.0</ele><time>2026-04-19T09:39:26.351Z</time></trkpt><trkpt lat="44.229695" lon="12.05236"><ele>26.0</ele><time>2026-04-19T09:39:28.351Z</time></trkpt><trkpt lat="44.2297433" lon="12.0522567"><ele>26.0</ele><time>2026-04-19T09:39:30.351Z</time></trkpt><trkpt lat="44.229825" lon="12.0521"><ele>25.999999999999996</ele><time>2026-04-19T09:39:33.351Z</time></trkpt><trkpt lat="44.2298633" lon="12.0519917"><ele>26.0</ele><time>2026-04-19T09:39:35.351Z</time></trkpt><trkpt lat="44.229905" lon="12.0518933"><ele>26.0</ele><time>2026-04-19T09:39:37.351Z</time></trkpt><trkpt lat="44.2299417" lon="12.0518133"><ele>26.0</ele><time>2026-04-19T09:39:39.35Z</time></trkpt><trkpt lat="44.2299817" lon="12.0517283"><ele>25.999999999999996</ele><time>2026-04-19T09:39:42.35Z</time></trkpt><trkpt lat="44.229925" lon="12.05166"><ele>26.0</ele><time>2026-04-19T09:39:47.351Z</time></trkpt><trkpt lat="44.2298767" lon="12.0515983"><ele>26.0</ele><time>2026-04-19T09:39:50.351Z</time></trkpt><trkpt lat="44.2298033" lon="12.051545"><ele>26.0</ele><time>2026-04-19T09:39:53.351Z</time></trkpt><trkpt lat="44.2297483" lon="12.05147"><ele>26.0</ele><time>2026-04-19T09:39:56.351Z</time></trkpt><trkpt lat="44.2297433" lon="12.05138"><ele>26.0</ele><time>2026-04-19T09:39:58.351Z</time></trkpt><trkpt lat="44.229765" lon="12.0512933"><ele>26.0</ele><time>2026-04-19T09:40:00.35Z</time></trkpt><trkpt lat="44.2297917" lon="12.05121"><ele>26.0</ele><time>2026-04-19T09:40:02.35Z</time></trkpt><trkpt lat="44.229815" lon="12.0511133"><ele>26.0</ele><time>2026-04-19T09:40:04.351Z</time></trkpt><trkpt lat="44.2298517" lon="12.051015"><ele>25.999999999999996</ele><time>2026-04-19T09:40:06.35Z</time></trkpt><trkpt lat="44.2298833" lon="12.0509083"><ele>26.0</ele><time>2026-04-19T09:40:08.35Z</time></trkpt><trkpt lat="44.229915" lon="12.0508017"><ele>26.0</ele><time>2026-04-19T09:40:10.351Z</time></trkpt><trkpt lat="44.2299433" lon="12.050695"><ele>26.0</ele><time>2026-04-19T09:40:12.35Z</time></trkpt><trkpt lat="44.22996" lon="12.050595"><ele>25.999999999999996</ele><time>2026-04-19T09:40:14.351Z</time></trkpt><trkpt lat="44.2299767" lon="12.050505"><ele>26.0</ele><time>2026-04-19T09:40:16.351Z</time></trkpt><trkpt lat="44.2300033" lon="12.050405"><ele>26.333333333333332</ele><time>2026-04-19T09:40:18.35Z</time></trkpt><trkpt lat="44.2300317" lon="12.0503"><ele>26.666666666666664</ele><time>2026-04-19T09:40:20.35Z</time></trkpt><trkpt lat="44.2300617" lon="12.050195"><ele>27.0</ele><time>2026-04-19T09:40:22.351Z</time></trkpt><trkpt lat="44.2300867" lon="12.05009"><ele>27.333333333333336</ele><time>2026-04-19T09:40:24.351Z</time></trkpt><trkpt lat="44.23012" lon="12.0499983"><ele>27.666666666666668</ele><time>2026-04-19T09:40:26.35Z</time></trkpt><trkpt lat="44.2301517" lon="12.0498967"><ele>28.0</ele><time>2026-04-19T09:40:28.351Z</time></trkpt><trkpt lat="44.2301733" lon="12.0497917"><ele>28.0</ele><time>2026-04-19T09:40:30.351Z</time></trkpt><trkpt lat="44.2301983" lon="12.04969"><ele>28.0</ele><time>2026-04-19T09:40:32.35Z</time></trkpt><trkpt lat="44.230235" lon="12.0495933"><ele>28.0</ele><time>2026-04-19T09:40:34.351Z</time></trkpt><trkpt lat="44.2302883" lon="12.049525"><ele>28.0</ele><time>2026-04-19T09:40:36.35Z</time></trkpt><trkpt lat="44.230355" lon="12.0495083"><ele>28.0</ele><time>2026-04-19T09:40:38.35Z</time></trkpt><trkpt lat="44.230425" lon="12.0495417"><ele>28.0</ele><time>2026-04-19T09:40:40.35Z</time></trkpt><trkpt lat="44.2304967" lon="12.0495783"><ele>28.0</ele><time>2026-04-19T09:40:42.351Z</time></trkpt><trkpt lat="44.2305667" lon="12.0496117"><ele>28.000000000000004</ele><time>2026-04-19T09:40:44.35Z</time></trkpt><trkpt lat="44.2306383" lon="12.0496467"><ele>28.0</ele><time>2026-04-19T09:40:46.351Z</time></trkpt><trkpt lat="44.2307117" lon="12.04967"><ele>28.0</ele><time>2026-04-19T09:40:48.351Z</time></trkpt><trkpt lat="44.2307783" lon="12.04966"><ele>28.0</ele><time>2026-04-19T09:40:50.35Z</time></trkpt><trkpt lat="44.2308283" lon="12.04958"><ele>28.000000000000004</ele><time>2026-04-19T09:40:53.351Z</time></trkpt><trkpt lat="44.230855" lon="12.049455"><ele>28.0</ele><time>2026-04-19T09:40:56.35Z</time></trkpt><trkpt lat="44.2308783" lon="12.04936"><ele>27.857142857142858</ele><time>2026-04-19T09:40:58.351Z</time></trkpt><trkpt lat="44.2309" lon="12.0492733"><ele>27.714285714285715</ele><time>2026-04-19T09:41:00.351Z</time></trkpt><trkpt lat="44.2309283" lon="12.0491933"><ele>27.57142857142857</ele><time>2026-04-19T09:41:02.35Z</time></trkpt><trkpt lat="44.2309567" lon="12.04911"><ele>27.42857142857143</ele><time>2026-04-19T09:41:04.351Z</time></trkpt><trkpt lat="44.2309783" lon="12.0490233"><ele>27.285714285714285</ele><time>2026-04-19T09:41:06.351Z</time></trkpt><trkpt lat="44.2310017" lon="12.0489417"><ele>27.142857142857142</ele><time>2026-04-19T09:41:08.351Z</time></trkpt><trkpt lat="44.2310283" lon="12.0488233"><ele>27.0</ele><time>2026-04-19T09:41:11.351Z</time></trkpt><trkpt lat="44.2310517" lon="12.04871"><ele>27.5</ele><time>2026-04-19T09:41:14.351Z</time></trkpt><trkpt lat="44.2310917" lon="12.0485983"><ele>28.0</ele><time>2026-04-19T09:41:17.35Z</time></trkpt><trkpt lat="44.231125" lon="12.0484833"><ele>28.5</ele><time>2026-04-19T09:41:20.351Z</time></trkpt><trkpt lat="44.2311567" lon="12.0483717"><ele>29.0</ele><time>2026-04-19T09:41:23.351Z</time></trkpt><trkpt lat="44.231185" lon="12.04827"><ele>29.5</ele><time>2026-04-19T09:41:26.35Z</time></trkpt><trkpt lat="44.2312117" lon="12.0481717"><ele>30.0</ele><time>2026-04-19T09:41:29.351Z</time></trkpt><trkpt lat="44.23125" lon="12.0480917"><ele>30.0</ele><time>2026-04-19T09:41:32.351Z</time></trkpt><trkpt lat="44.2312033" lon="12.0481533"><ele>30.0</ele><time>2026-04-19T09:41:38.35Z</time></trkpt><trkpt lat="44.2311817" lon="12.048245"><ele>30.0</ele><time>2026-04-19T09:41:41.35Z</time></trkpt><trkpt lat="44.2311567" lon="12.04835"><ele>30.0</ele><time>2026-04-19T09:41:44.351Z</time></trkpt><trkpt lat="44.2311333" lon="12.04846"><ele>30.0</ele><time>2026-04-19T09:41:47.351Z</time></trkpt><trkpt lat="44.231105" lon="12.0485817"><ele>30.0</ele><time>2026-04-19T09:41:50.351Z</time></trkpt><trkpt lat="44.2310817" lon="12.0486867"><ele>30.0</ele><time>2026-04-19T09:41:53.35Z</time></trkpt><trkpt lat="44.2310483" lon="12.048795"><ele>30.0</ele><time>2026-04-19T09:41:56.35Z</time></trkpt><trkpt lat="44.2310183" lon="12.0489017"><ele>30.0</ele><time>2026-04-19T09:41:59.351Z</time></trkpt><trkpt lat="44.2309833" lon="12.0490217"><ele>30.0</ele><time>2026-04-19T09:42:02.351Z</time></trkpt><trkpt lat="44.2309533" lon="12.0491433"><ele>30.0</ele><time>2026-04-19T09:42:05.35Z</time></trkpt><trkpt lat="44.230925" lon="12.0492567"><ele>30.0</ele><time>2026-04-19T09:42:08.351Z</time></trkpt><trkpt lat="44.2308883" lon="12.0493717"><ele>29.714285714285715</ele><time>2026-04-19T09:42:11.35Z</time></trkpt><trkpt lat="44.2308533" lon="12.0494817"><ele>29.428571428571427</ele><time>2026-04-19T09:42:14.351Z</time></trkpt><trkpt lat="44.2308367" lon="12.0495833"><ele>29.142857142857142</ele><time>2026-04-19T09:42:17.351Z</time></trkpt><trkpt lat="44.2307917" lon="12.0496683"><ele>28.857142857142858</ele><time>2026-04-19T09:42:20.35Z</time></trkpt><trkpt lat="44.2307233" lon="12.04969"><ele>28.57142857142857</ele><time>2026-04-19T09:42:23.35Z</time></trkpt><trkpt lat="44.23065" lon="12.0496567"><ele>28.285714285714285</ele><time>2026-04-19T09:42:26.351Z</time></trkpt><trkpt lat="44.2305917" lon="12.0496217"><ele>28.0</ele><time>2026-04-19T09:42:28.351Z</time></trkpt><trkpt lat="44.2305033" lon="12.0495833"><ele>28.0</ele><time>2026-04-19T09:42:31.35Z</time></trkpt><trkpt lat="44.2304433" lon="12.04955"><ele>28.0</ele><time>2026-04-19T09:42:33.351Z</time></trkpt><trkpt lat="44.2303817" lon="12.0495167"><ele>28.0</ele><time>2026-04-19T09:42:35.351Z</time></trkpt><trkpt lat="44.2303033" lon="12.0494783"><ele>28.0</ele><time>2026-04-19T09:42:38.351Z</time></trkpt><trkpt lat="44.230235" lon="12.0494917"><ele>28.0</ele><time>2026-04-19T09:42:41.35Z</time></trkpt><trkpt lat="44.230215" lon="12.0496067"><ele>28.0</ele><time>2026-04-19T09:42:45.351Z</time></trkpt><trkpt lat="44.2301933" lon="12.0497117"><ele>28.0</ele><time>2026-04-19T09:42:48.35Z</time></trkpt><trkpt lat="44.2301633" lon="12.0498183"><ele>28.000000000000004</ele><time>2026-04-19T09:42:51.351Z</time></trkpt><trkpt lat="44.2301483" lon="12.04992"><ele>28.0</ele><time>2026-04-19T09:42:54.351Z</time></trkpt><trkpt lat="44.2301217" lon="12.0500267"><ele>28.0</ele><time>2026-04-19T09:42:57.351Z</time></trkpt><trkpt lat="44.2300933" lon="12.0501383"><ele>28.0</ele><time>2026-04-19T09:43:00.35Z</time></trkpt><trkpt lat="44.23007" lon="12.050245"><ele>28.000000000000004</ele><time>2026-04-19T09:43:03.351Z</time></trkpt><trkpt lat="44.230045" lon="12.0503567"><ele>28.0</ele><time>2026-04-19T09:43:06.35Z</time></trkpt><trkpt lat="44.2300183" lon="12.0504667"><ele>28.000000000000004</ele><time>2026-04-19T09:43:09.35Z</time></trkpt><trkpt lat="44.2299817" lon="12.05055"><ele>28.0</ele><time>2026-04-19T09:43:12.35Z</time></trkpt><trkpt lat="44.2299533" lon="12.050645"><ele>28.0</ele><time>2026-04-19T09:43:16.35Z</time></trkpt><trkpt lat="44.2299917" lon="12.050575"><ele>28.0</ele><time>2026-04-19T09:43:23.351Z</time></trkpt><trkpt lat="44.2299367" lon="12.0506533"><ele>28.000000000000004</ele><time>2026-04-19T09:43:54.351Z</time></trkpt><trkpt lat="44.2299317" lon="12.050745"><ele>28.0</ele><time>2026-04-19T09:43:56.351Z</time></trkpt><trkpt lat="44.2299083" lon="12.0509117"><ele>27.857142857142858</ele><time>2026-04-19T09:43:59.35Z</time></trkpt><trkpt lat="44.2298867" lon="12.0510083"><ele>27.714285714285715</ele><time>2026-04-19T09:44:01.351Z</time></trkpt><trkpt lat="44.2298533" lon="12.0510983"><ele>27.57142857142857</ele><time>2026-04-19T09:44:03.351Z</time></trkpt><trkpt lat="44.229815" lon="12.05119"><ele>27.42857142857143</ele><time>2026-04-19T09:44:05.351Z</time></trkpt><trkpt lat="44.2297833" lon="12.0512833"><ele>27.285714285714285</ele><time>2026-04-19T09:44:07.351Z</time></trkpt><trkpt lat="44.2297533" lon="12.0513617"><ele>27.142857142857142</ele><time>2026-04-19T09:44:09.35Z</time></trkpt><trkpt lat="44.229685" lon="12.0514317"><ele>27.0</ele><time>2026-04-19T09:44:12.35Z</time></trkpt><trkpt lat="44.2295917" lon="12.051435"><ele>27.0</ele><time>2026-04-19T09:44:15.351Z</time></trkpt><trkpt lat="44.2295167" lon="12.0514183"><ele>27.000000000000004</ele><time>2026-04-19T09:44:17.351Z</time></trkpt><trkpt lat="44.22943" lon="12.0513967"><ele>27.000000000000004</ele><time>2026-04-19T09:44:19.351Z</time></trkpt><trkpt lat="44.22929" lon="12.0513517"><ele>27.0</ele><time>2026-04-19T09:44:22.351Z</time></trkpt><trkpt lat="44.229195" lon="12.0513233"><ele>27.0</ele><time>2026-04-19T09:44:24.35Z</time></trkpt><trkpt lat="44.229115" lon="12.0512967"><ele>27.0</ele><time>2026-04-19T09:44:26.35Z</time></trkpt><trkpt lat="44.2290517" lon="12.0512917"><ele>27.0</ele><time>2026-04-19T09:44:28.349Z</time></trkpt><trkpt lat="44.2289783" lon="12.0513783"><ele>27.0</ele><time>2026-04-19T09:44:31.35Z</time></trkpt><trkpt lat="44.2289433" lon="12.0514767"><ele>27.0</ele><time>2026-04-19T09:44:33.35Z</time></trkpt><trkpt lat="44.22891" lon="12.0515667"><ele>27.0</ele><time>2026-04-19T09:44:35.349Z</time></trkpt><trkpt lat="44.2288867" lon="12.0516583"><ele>27.0</ele><time>2026-04-19T09:44:37.35Z</time></trkpt><trkpt lat="44.2288567" lon="12.051745"><ele>27.0</ele><time>2026-04-19T09:44:39.349Z</time></trkpt><trkpt lat="44.22882" lon="12.0518283"><ele>26.5</ele><time>2026-04-19T09:44:41.349Z</time></trkpt><trkpt lat="44.2287833" lon="12.0519083"><ele>26.0</ele><time>2026-04-19T09:44:43.349Z</time></trkpt><trkpt lat="44.22874" lon="12.0520217"><ele>25.5</ele><time>2026-04-19T09:44:46.349Z</time></trkpt><trkpt lat="44.2287033" lon="12.0521417"><ele>25.0</ele><time>2026-04-19T09:44:49.35Z</time></trkpt><trkpt lat="44.2286767" lon="12.0522217"><ele>24.5</ele><time>2026-04-19T09:44:51.35Z</time></trkpt><trkpt lat="44.22865" lon="12.05233"><ele>24.0</ele><time>2026-04-19T09:44:54.35Z</time></trkpt><trkpt lat="44.2286683" lon="12.0524333"><ele>23.999999999999996</ele><time>2026-04-19T09:44:57.35Z</time></trkpt><trkpt lat="44.2286183" lon="12.0525067"><ele>24.0</ele><time>2026-04-19T09:45:04.35Z</time></trkpt><trkpt lat="44.2285567" lon="12.052445"><ele>24.0</ele><time>2026-04-19T09:45:08.35Z</time></trkpt><trkpt lat="44.2286217" lon="12.0524417"><ele>24.0</ele><time>2026-04-19T09:46:39.35Z</time></trkpt><trkpt lat="44.22867" lon="12.05252"><ele>24.0</ele><time>2026-04-19T09:46:43.35Z</time></trkpt><trkpt lat="44.2287017" lon="12.0525983"><ele>23.999999999999996</ele><time>2026-04-19T09:46:45.35Z</time></trkpt><trkpt lat="44.228685" lon="12.0527117"><ele>24.0</ele><time>2026-04-19T09:46:48.349Z</time></trkpt><trkpt lat="44.2286067" lon="12.0527533"><ele>23.999999999999996</ele><time>2026-04-19T09:46:50.349Z</time></trkpt><trkpt lat="44.2285467" lon="12.0528083"><ele>24.0</ele><time>2026-04-19T09:46:52.349Z</time></trkpt><trkpt lat="44.2285067" lon="12.0528767"><ele>24.0</ele><time>2026-04-19T09:46:54.35Z</time></trkpt><trkpt lat="44.2284517" lon="12.0529517"><ele>24.0</ele><time>2026-04-19T09:46:57.349Z</time></trkpt><trkpt lat="44.2283933" lon="12.0530183"><ele>24.0</ele><time>2026-04-19T09:47:00.35Z</time></trkpt><trkpt lat="44.2283317" lon="12.053075"><ele>23.999999999999996</ele><time>2026-04-19T09:47:03.349Z</time></trkpt><trkpt lat="44.2282983" lon="12.0531533"><ele>24.0</ele><time>2026-04-19T09:47:06.35Z</time></trkpt><trkpt lat="44.228235" lon="12.0532283"><ele>24.0</ele><time>2026-04-19T09:47:09.35Z</time></trkpt><trkpt lat="44.2281867" lon="12.05329"><ele>24.0</ele><time>2026-04-19T09:47:11.35Z</time></trkpt><trkpt lat="44.22812" lon="12.053365"><ele>24.0</ele><time>2026-04-19T09:47:14.35Z</time></trkpt><trkpt lat="44.228065" lon="12.0534533"><ele>24.0</ele><time>2026-04-19T09:47:17.35Z</time></trkpt><trkpt lat="44.2280267" lon="12.0535433"><ele>24.0</ele><time>2026-04-19T09:47:20.35Z</time></trkpt><trkpt lat="44.2279733" lon="12.053645"><ele>24.0</ele><time>2026-04-19T09:47:23.35Z</time></trkpt><trkpt lat="44.2279283" lon="12.0537183"><ele>24.166666666666668</ele><time>2026-04-19T09:47:25.35Z</time></trkpt><trkpt lat="44.2278817" lon="12.053795"><ele>24.333333333333336</ele><time>2026-04-19T09:47:27.35Z</time></trkpt><trkpt lat="44.2278383" lon="12.0538683"><ele>24.5</ele><time>2026-04-19T09:47:29.35Z</time></trkpt><trkpt lat="44.227795" lon="12.0539433"><ele>24.666666666666668</ele><time>2026-04-19T09:47:31.35Z</time></trkpt><trkpt lat="44.2277417" lon="12.05403"><ele>24.833333333333336</ele><time>2026-04-19T09:47:33.35Z</time></trkpt><trkpt lat="44.2276833" lon="12.0541267"><ele>25.0</ele><time>2026-04-19T09:47:35.35Z</time></trkpt><trkpt lat="44.2276317" lon="12.0542117"><ele>25.000000000000004</ele><time>2026-04-19T09:47:37.35Z</time></trkpt><trkpt lat="44.22758" lon="12.0542917"><ele>25.0</ele><time>2026-04-19T09:47:39.35Z</time></trkpt><trkpt lat="44.2275267" lon="12.05437"><ele>25.0</ele><time>2026-04-19T09:47:41.349Z</time></trkpt><trkpt lat="44.227475" lon="12.05446"><ele>25.0</ele><time>2026-04-19T09:47:43.35Z</time></trkpt><trkpt lat="44.2274167" lon="12.0545433"><ele>25.000000000000004</ele><time>2026-04-19T09:47:45.349Z</time></trkpt><trkpt lat="44.227365" lon="12.0546433"><ele>25.0</ele><time>2026-04-19T09:47:47.349Z</time></trkpt><trkpt lat="44.2273117" lon="12.054735"><ele>25.166666666666668</ele><time>2026-04-19T09:47:49.349Z</time></trkpt><trkpt lat="44.2272583" lon="12.0548217"><ele>25.333333333333336</ele><time>2026-04-19T09:47:51.35Z</time></trkpt><trkpt lat="44.2272017" lon="12.0549083"><ele>25.5</ele><time>2026-04-19T09:47:53.35Z</time></trkpt><trkpt lat="44.2271417" lon="12.0549917"><ele>25.666666666666664</ele><time>2026-04-19T09:47:55.35Z</time></trkpt><trkpt lat="44.22709" lon="12.055085"><ele>25.833333333333332</ele><time>2026-04-19T09:47:57.349Z</time></trkpt><trkpt lat="44.2270333" lon="12.05517"><ele>26.0</ele><time>2026-04-19T09:47:59.35Z</time></trkpt><trkpt lat="44.2269767" lon="12.0552467"><ele>25.499999999999996</ele><time>2026-04-19T09:48:01.349Z</time></trkpt><trkpt lat="44.2269167" lon="12.0553183"><ele>25.0</ele><time>2026-04-19T09:48:03.349Z</time></trkpt><trkpt lat="44.22686" lon="12.0554083"><ele>24.5</ele><time>2026-04-19T09:48:05.35Z</time></trkpt><trkpt lat="44.2268067" lon="12.0555017"><ele>24.0</ele><time>2026-04-19T09:48:07.35Z</time></trkpt><trkpt lat="44.2267567" lon="12.0555933"><ele>23.5</ele><time>2026-04-19T09:48:09.35Z</time></trkpt><trkpt lat="44.226705" lon="12.0556817"><ele>23.0</ele><time>2026-04-19T09:48:11.35Z</time></trkpt><trkpt lat="44.2266517" lon="12.0557667"><ele>22.833333333333336</ele><time>2026-04-19T09:48:13.35Z</time></trkpt><trkpt lat="44.2266017" lon="12.05585"><ele>22.666666666666668</ele><time>2026-04-19T09:48:15.349Z</time></trkpt><trkpt lat="44.2265467" lon="12.0559367"><ele>22.5</ele><time>2026-04-19T09:48:17.35Z</time></trkpt><trkpt lat="44.22649" lon="12.0560217"><ele>22.333333333333332</ele><time>2026-04-19T09:48:19.349Z</time></trkpt><trkpt lat="44.2264367" lon="12.0561133"><ele>22.166666666666664</ele><time>2026-04-19T09:48:21.35Z</time></trkpt><trkpt lat="44.22638" lon="12.0562"><ele>22.0</ele><time>2026-04-19T09:48:23.35Z</time></trkpt><trkpt lat="44.2263267" lon="12.05628"><ele>22.285714285714285</ele><time>2026-04-19T09:48:25.35Z</time></trkpt><trkpt lat="44.2262733" lon="12.0563667"><ele>22.57142857142857</ele><time>2026-04-19T09:48:27.349Z</time></trkpt><trkpt lat="44.2262267" lon="12.056455"><ele>22.857142857142854</ele><time>2026-04-19T09:48:29.35Z</time></trkpt><trkpt lat="44.22618" lon="12.0565317"><ele>23.142857142857142</ele><time>2026-04-19T09:48:31.35Z</time></trkpt><trkpt lat="44.22614" lon="12.05661"><ele>23.428571428571427</ele><time>2026-04-19T09:48:33.35Z</time></trkpt><trkpt lat="44.2260983" lon="12.0566817"><ele>23.71428571428571</ele><time>2026-04-19T09:48:35.349Z</time></trkpt><trkpt lat="44.2260533" lon="12.05675"><ele>24.0</ele><time>2026-04-19T09:48:37.349Z</time></trkpt><trkpt lat="44.2260083" lon="12.0568267"><ele>23.999999999999996</ele><time>2026-04-19T09:48:39.35Z</time></trkpt><trkpt lat="44.22596" lon="12.056905"><ele>24.0</ele><time>2026-04-19T09:48:41.35Z</time></trkpt><trkpt lat="44.2259083" lon="12.0569833"><ele>24.0</ele><time>2026-04-19T09:48:43.349Z</time></trkpt><trkpt lat="44.2258633" lon="12.0570517"><ele>24.0</ele><time>2026-04-19T09:48:45.349Z</time></trkpt><trkpt lat="44.225815" lon="12.0571267"><ele>24.0</ele><time>2026-04-19T09:48:47.35Z</time></trkpt><trkpt lat="44.225765" lon="12.0572067"><ele>23.999999999999996</ele><time>2026-04-19T09:48:49.349Z</time></trkpt><trkpt lat="44.2257233" lon="12.0572883"><ele>24.0</ele><time>2026-04-19T09:48:51.349Z</time></trkpt><trkpt lat="44.225675" lon="12.0573783"><ele>24.0</ele><time>2026-04-19T09:48:53.35Z</time></trkpt><trkpt lat="44.225635" lon="12.0574733"><ele>24.0</ele><time>2026-04-19T09:48:55.35Z</time></trkpt><trkpt lat="44.2255917" lon="12.057565"><ele>24.0</ele><time>2026-04-19T09:48:57.35Z</time></trkpt><trkpt lat="44.2255367" lon="12.05766"><ele>24.0</ele><time>2026-04-19T09:48:59.35Z</time></trkpt><trkpt lat="44.2254833" lon="12.057775"><ele>24.0</ele><time>2026-04-19T09:49:01.349Z</time></trkpt><trkpt lat="44.2254467" lon="12.0578833"><ele>24.0</ele><time>2026-04-19T09:49:03.35Z</time></trkpt><trkpt lat="44.2253983" lon="12.0579817"><ele>24.0</ele><time>2026-04-19T09:49:05.349Z</time></trkpt><trkpt lat="44.225345" lon="12.0580833"><ele>24.0</ele><time>2026-04-19T09:49:07.349Z</time></trkpt><trkpt lat="44.2252967" lon="12.0581867"><ele>24.0</ele><time>2026-04-19T09:49:09.35Z</time></trkpt><trkpt lat="44.2252533" lon="12.0582883"><ele>24.0</ele><time>2026-04-19T09:49:11.349Z</time></trkpt><trkpt lat="44.2252083" lon="12.05839"><ele>24.0</ele><time>2026-04-19T09:49:13.35Z</time></trkpt><trkpt lat="44.2251633" lon="12.05849"><ele>24.0</ele><time>2026-04-19T09:49:15.35Z</time></trkpt><trkpt lat="44.2251283" lon="12.058595"><ele>23.833333333333332</ele><time>2026-04-19T09:49:17.349Z</time></trkpt><trkpt lat="44.22509" lon="12.0586983"><ele>23.666666666666668</ele><time>2026-04-19T09:49:19.349Z</time></trkpt><trkpt lat="44.225045" lon="12.0587833"><ele>23.5</ele><time>2026-04-19T09:49:21.35Z</time></trkpt><trkpt lat="44.2250017" lon="12.0588767"><ele>23.333333333333336</ele><time>2026-04-19T09:49:23.35Z</time></trkpt><trkpt lat="44.2249567" lon="12.0589783"><ele>23.166666666666668</ele><time>2026-04-19T09:49:25.35Z</time></trkpt><trkpt lat="44.224915" lon="12.05908"><ele>23.0</ele><time>2026-04-19T09:49:27.35Z</time></trkpt><trkpt lat="44.2248717" lon="12.059185"><ele>23.0</ele><time>2026-04-19T09:49:29.349Z</time></trkpt><trkpt lat="44.22483" lon="12.0592867"><ele>23.0</ele><time>2026-04-19T09:49:31.35Z</time></trkpt><trkpt lat="44.2247917" lon="12.059385"><ele>23.0</ele><time>2026-04-19T09:49:33.349Z</time></trkpt><trkpt lat="44.2247617" lon="12.0594817"><ele>23.0</ele><time>2026-04-19T09:49:35.35Z</time></trkpt><trkpt lat="44.2247383" lon="12.0595783"><ele>23.0</ele><time>2026-04-19T09:49:37.35Z</time></trkpt><trkpt lat="44.2247083" lon="12.0596983"><ele>23.0</ele><time>2026-04-19T09:49:39.349Z</time></trkpt><trkpt lat="44.2246733" lon="12.0598067"><ele>22.833333333333336</ele><time>2026-04-19T09:49:41.35Z</time></trkpt><trkpt lat="44.224645" lon="12.059915"><ele>22.666666666666668</ele><time>2026-04-19T09:49:43.349Z</time></trkpt><trkpt lat="44.22462" lon="12.0600217"><ele>22.5</ele><time>2026-04-19T09:49:45.349Z</time></trkpt><trkpt lat="44.224595" lon="12.06012"><ele>22.333333333333332</ele><time>2026-04-19T09:49:47.35Z</time></trkpt><trkpt lat="44.2245717" lon="12.060205"><ele>22.166666666666664</ele><time>2026-04-19T09:49:49.349Z</time></trkpt><trkpt lat="44.2245417" lon="12.0603133"><ele>22.0</ele><time>2026-04-19T09:49:51.35Z</time></trkpt><trkpt lat="44.22451" lon="12.0604167"><ele>21.833333333333332</ele><time>2026-04-19T09:49:53.35Z</time></trkpt><trkpt lat="44.2244917" lon="12.06052"><ele>21.666666666666664</ele><time>2026-04-19T09:49:55.35Z</time></trkpt><trkpt lat="44.2244717" lon="12.0606183"><ele>21.5</ele><time>2026-04-19T09:49:57.35Z</time></trkpt><trkpt lat="44.224445" lon="12.060725"><ele>21.333333333333332</ele><time>2026-04-19T09:49:59.35Z</time></trkpt><trkpt lat="44.22442" lon="12.0608267"><ele>21.166666666666668</ele><time>2026-04-19T09:50:01.349Z</time></trkpt><trkpt lat="44.2243967" lon="12.06092"><ele>21.0</ele><time>2026-04-19T09:50:03.349Z</time></trkpt><trkpt lat="44.2243783" lon="12.0610217"><ele>21.0</ele><time>2026-04-19T09:50:05.35Z</time></trkpt><trkpt lat="44.2243483" lon="12.0611217"><ele>21.0</ele><time>2026-04-19T09:50:07.35Z</time></trkpt><trkpt lat="44.2243167" lon="12.0612117"><ele>21.0</ele><time>2026-04-19T09:50:09.349Z</time></trkpt><trkpt lat="44.2242883" lon="12.061305"><ele>21.0</ele><time>2026-04-19T09:50:11.349Z</time></trkpt><trkpt lat="44.2242567" lon="12.061395"><ele>21.0</ele><time>2026-04-19T09:50:13.349Z</time></trkpt><trkpt lat="44.2242267" lon="12.0614817"><ele>21.0</ele><time>2026-04-19T09:50:15.35Z</time></trkpt><trkpt lat="44.2242017" lon="12.0615683"><ele>21.0</ele><time>2026-04-19T09:50:17.35Z</time></trkpt><trkpt lat="44.2241667" lon="12.0616867"><ele>21.285714285714285</ele><time>2026-04-19T09:50:20.35Z</time></trkpt><trkpt lat="44.2241433" lon="12.06177"><ele>21.57142857142857</ele><time>2026-04-19T09:50:22.35Z</time></trkpt><trkpt lat="44.2241167" lon="12.06185"><ele>21.857142857142858</ele><time>2026-04-19T09:50:24.349Z</time></trkpt><trkpt lat="44.22409" lon="12.0619367"><ele>22.142857142857142</ele><time>2026-04-19T09:50:26.349Z</time></trkpt><trkpt lat="44.2240533" lon="12.062035"><ele>22.428571428571427</ele><time>2026-04-19T09:50:28.35Z</time></trkpt><trkpt lat="44.2240267" lon="12.06213"><ele>22.714285714285715</ele><time>2026-04-19T09:50:30.35Z</time></trkpt><trkpt lat="44.2239917" lon="12.0622183"><ele>23.0</ele><time>2026-04-19T09:50:32.349Z</time></trkpt><trkpt lat="44.2239667" lon="12.0623017"><ele>23.0</ele><time>2026-04-19T09:50:34.35Z</time></trkpt><trkpt lat="44.2239283" lon="12.0624167"><ele>23.0</ele><time>2026-04-19T09:50:37.35Z</time></trkpt><trkpt lat="44.223895" lon="12.062515"><ele>23.0</ele><time>2026-04-19T09:50:40.349Z</time></trkpt><trkpt lat="44.2238583" lon="12.0626"><ele>23.0</ele><time>2026-04-19T09:50:43.35Z</time></trkpt><trkpt lat="44.2237983" lon="12.062655"><ele>23.0</ele><time>2026-04-19T09:50:46.35Z</time></trkpt><trkpt lat="44.2237167" lon="12.062665"><ele>23.0</ele><time>2026-04-19T09:50:49.35Z</time></trkpt><trkpt lat="44.2236567" lon="12.062635"><ele>23.0</ele><time>2026-04-19T09:50:51.349Z</time></trkpt><trkpt lat="44.223595" lon="12.0625917"><ele>23.0</ele><time>2026-04-19T09:50:53.349Z</time></trkpt><trkpt lat="44.223525" lon="12.062535"><ele>23.0</ele><time>2026-04-19T09:50:55.349Z</time></trkpt><trkpt lat="44.2234617" lon="12.0624817"><ele>23.0</ele><time>2026-04-19T09:50:57.35Z</time></trkpt><trkpt lat="44.2234017" lon="12.0624417"><ele>23.0</ele><time>2026-04-19T09:50:59.349Z</time></trkpt><trkpt lat="44.223335" lon="12.0624083"><ele>23.0</ele><time>2026-04-19T09:51:01.35Z</time></trkpt><trkpt lat="44.2232717" lon="12.06236"><ele>23.0</ele><time>2026-04-19T09:51:03.35Z</time></trkpt><trkpt lat="44.223205" lon="12.062315"><ele>23.0</ele><time>2026-04-19T09:51:05.349Z</time></trkpt><trkpt lat="44.2231317" lon="12.0622767"><ele>23.0</ele><time>2026-04-19T09:51:07.349Z</time></trkpt><trkpt lat="44.2230617" lon="12.0622283"><ele>23.0</ele><time>2026-04-19T09:51:09.349Z</time></trkpt><trkpt lat="44.2229967" lon="12.0621683"><ele>23.0</ele><time>2026-04-19T09:51:11.35Z</time></trkpt><trkpt lat="44.2229317" lon="12.0621067"><ele>23.0</ele><time>2026-04-19T09:51:13.35Z</time></trkpt><trkpt lat="44.2228617" lon="12.0620567"><ele>23.0</ele><time>2026-04-19T09:51:15.35Z</time></trkpt><trkpt lat="44.222795" lon="12.06201"><ele>23.0</ele><time>2026-04-19T09:51:17.35Z</time></trkpt><trkpt lat="44.2227367" lon="12.061965"><ele>23.0</ele><time>2026-04-19T09:51:19.349Z</time></trkpt><trkpt lat="44.2226817" lon="12.06192"><ele>23.0</ele><time>2026-04-19T09:51:21.35Z</time></trkpt><trkpt lat="44.2226233" lon="12.0618417"><ele>23.0</ele><time>2026-04-19T09:51:24.35Z</time></trkpt><trkpt lat="44.2225617" lon="12.0617783"><ele>23.0</ele><time>2026-04-19T09:51:27.35Z</time></trkpt><trkpt lat="44.222485" lon="12.0617167"><ele>23.0</ele><time>2026-04-19T09:51:30.35Z</time></trkpt><trkpt lat="44.222415" lon="12.061665"><ele>23.0</ele><time>2026-04-19T09:51:33.349Z</time></trkpt><trkpt lat="44.2223383" lon="12.0616117"><ele>23.0</ele><time>2026-04-19T09:51:36.35Z</time></trkpt><trkpt lat="44.2222567" lon="12.0615617"><ele>23.0</ele><time>2026-04-19T09:51:39.349Z</time></trkpt><trkpt lat="44.222185" lon="12.0615033"><ele>23.0</ele><time>2026-04-19T09:51:42.35Z</time></trkpt><trkpt lat="44.2221" lon="12.0614583"><ele>23.0</ele><time>2026-04-19T09:51:45.349Z</time></trkpt><trkpt lat="44.2220283" lon="12.0614433"><ele>23.0</ele><time>2026-04-19T09:51:47.35Z</time></trkpt><trkpt lat="44.2219633" lon="12.0614633"><ele>23.0</ele><time>2026-04-19T09:51:49.35Z</time></trkpt><trkpt lat="44.2218883" lon="12.0614567"><ele>23.0</ele><time>2026-04-19T09:51:52.349Z</time></trkpt><trkpt lat="44.22184" lon="12.0614"><ele>23.0</ele><time>2026-04-19T09:51:55.35Z</time></trkpt><trkpt lat="44.2217667" lon="12.06136"><ele>23.0</ele><time>2026-04-19T09:51:58.349Z</time></trkpt><trkpt lat="44.2217067" lon="12.06132"><ele>23.0</ele><time>2026-04-19T09:52:00.349Z</time></trkpt><trkpt lat="44.2216467" lon="12.0612383"><ele>23.0</ele><time>2026-04-19T09:52:03.349Z</time></trkpt><trkpt lat="44.2215833" lon="12.0611983"><ele>23.0</ele><time>2026-04-19T09:52:08.349Z</time></trkpt><trkpt lat="44.2215167" lon="12.061145"><ele>23.166666666666668</ele><time>2026-04-19T09:52:11.349Z</time></trkpt><trkpt lat="44.221435" lon="12.0610933"><ele>23.333333333333336</ele><time>2026-04-19T09:52:14.35Z</time></trkpt><trkpt lat="44.2213583" lon="12.061045"><ele>23.5</ele><time>2026-04-19T09:52:17.35Z</time></trkpt><trkpt lat="44.2212817" lon="12.060995"><ele>23.666666666666668</ele><time>2026-04-19T09:52:20.35Z</time></trkpt><trkpt lat="44.2212" lon="12.06095"><ele>23.833333333333332</ele><time>2026-04-19T09:52:23.349Z</time></trkpt><trkpt lat="44.22113" lon="12.06091"><ele>24.0</ele><time>2026-04-19T09:52:26.35Z</time></trkpt><trkpt lat="44.221065" lon="12.0608583"><ele>24.0</ele><time>2026-04-19T09:52:30.35Z</time></trkpt><trkpt lat="44.221" lon="12.0608667"><ele>24.0</ele><time>2026-04-19T09:52:37.35Z</time></trkpt><trkpt lat="44.2209367" lon="12.0608917"><ele>24.0</ele><time>2026-04-19T09:52:42.35Z</time></trkpt><trkpt lat="44.2209017" lon="12.0609767"><ele>24.0</ele><time>2026-04-19T09:52:45.35Z</time></trkpt><trkpt lat="44.22087" lon="12.06107"><ele>24.0</ele><time>2026-04-19T09:52:48.35Z</time></trkpt><trkpt lat="44.2208333" lon="12.0611767"><ele>24.0</ele><time>2026-04-19T09:52:51.35Z</time></trkpt><trkpt lat="44.22079" lon="12.0612933"><ele>23.999999999999996</ele><time>2026-04-19T09:52:54.35Z</time></trkpt><trkpt lat="44.2207517" lon="12.0614117"><ele>24.0</ele><time>2026-04-19T09:52:57.35Z</time></trkpt><trkpt lat="44.2207233" lon="12.0614967"><ele>24.0</ele><time>2026-04-19T09:52:59.349Z</time></trkpt><trkpt lat="44.2206883" lon="12.0615733"><ele>24.0</ele><time>2026-04-19T09:53:01.35Z</time></trkpt><trkpt lat="44.22065" lon="12.0616517"><ele>24.0</ele><time>2026-04-19T09:53:03.349Z</time></trkpt><trkpt lat="44.2206183" lon="12.0617317"><ele>23.999999999999996</ele><time>2026-04-19T09:53:05.349Z</time></trkpt><trkpt lat="44.220585" lon="12.0618217"><ele>24.0</ele><time>2026-04-19T09:53:07.349Z</time></trkpt><trkpt lat="44.2205567" lon="12.06191"><ele>24.0</ele><time>2026-04-19T09:53:09.35Z</time></trkpt><trkpt lat="44.220505" lon="12.0620283"><ele>24.0</ele><time>2026-04-19T09:53:12.35Z</time></trkpt><trkpt lat="44.2204667" lon="12.0621167"><ele>24.0</ele><time>2026-04-19T09:53:14.35Z</time></trkpt><trkpt lat="44.2204433" lon="12.0622067"><ele>24.0</ele><time>2026-04-19T09:53:16.349Z</time></trkpt><trkpt lat="44.2204167" lon="12.0622967"><ele>24.0</ele><time>2026-04-19T09:53:18.35Z</time></trkpt><trkpt lat="44.220395" lon="12.0623933"><ele>24.0</ele><time>2026-04-19T09:53:20.349Z</time></trkpt><trkpt lat="44.220365" lon="12.062485"><ele>23.999999999999996</ele><time>2026-04-19T09:53:22.349Z</time></trkpt><trkpt lat="44.2203267" lon="12.0625833"><ele>24.0</ele><time>2026-04-19T09:53:24.349Z</time></trkpt><trkpt lat="44.2202867" lon="12.062665"><ele>24.0</ele><time>2026-04-19T09:53:26.35Z</time></trkpt><trkpt lat="44.22024" lon="12.062745"><ele>24.0</ele><time>2026-04-19T09:53:28.349Z</time></trkpt><trkpt lat="44.2202017" lon="12.062825"><ele>24.0</ele><time>2026-04-19T09:53:30.349Z</time></trkpt><trkpt lat="44.22017" lon="12.0629133"><ele>23.999999999999996</ele><time>2026-04-19T09:53:32.35Z</time></trkpt><trkpt lat="44.2201383" lon="12.0630083"><ele>24.0</ele><time>2026-04-19T09:53:34.35Z</time></trkpt><trkpt lat="44.220105" lon="12.0631017"><ele>23.999999999999996</ele><time>2026-04-19T09:53:36.35Z</time></trkpt><trkpt lat="44.22006" lon="12.0632017"><ele>24.0</ele><time>2026-04-19T09:53:38.35Z</time></trkpt><trkpt lat="44.220025" lon="12.0632967"><ele>24.0</ele><time>2026-04-19T09:53:40.35Z</time></trkpt><trkpt lat="44.21999" lon="12.0633817"><ele>24.0</ele><time>2026-04-19T09:53:42.35Z</time></trkpt><trkpt lat="44.2199533" lon="12.0634683"><ele>24.0</ele><time>2026-04-19T09:53:44.35Z</time></trkpt><trkpt lat="44.21992" lon="12.0635483"><ele>23.999999999999996</ele><time>2026-04-19T09:53:46.35Z</time></trkpt><trkpt lat="44.2198817" lon="12.0636283"><ele>24.0</ele><time>2026-04-19T09:53:48.349Z</time></trkpt><trkpt lat="44.2198167" lon="12.0636983"><ele>24.0</ele><time>2026-04-19T09:53:51.349Z</time></trkpt><trkpt lat="44.2197267" lon="12.0636483"><ele>24.0</ele><time>2026-04-19T09:53:54.349Z</time></trkpt><trkpt lat="44.219655" lon="12.0636033"><ele>24.0</ele><time>2026-04-19T09:53:56.349Z</time></trkpt><trkpt lat="44.2195733" lon="12.063555"><ele>24.0</ele><time>2026-04-19T09:53:58.35Z</time></trkpt><trkpt lat="44.219495" lon="12.06352"><ele>24.0</ele><time>2026-04-19T09:54:00.35Z</time></trkpt><trkpt lat="44.219415" lon="12.0634833"><ele>24.0</ele><time>2026-04-19T09:54:02.35Z</time></trkpt><trkpt lat="44.2193583" lon="12.0634317"><ele>24.0</ele><time>2026-04-19T09:54:04.35Z</time></trkpt><trkpt lat="44.219285" lon="12.06338"><ele>24.0</ele><time>2026-04-19T09:54:06.349Z</time></trkpt><trkpt lat="44.219215" lon="12.06333"><ele>24.0</ele><time>2026-04-19T09:54:08.349Z</time></trkpt><trkpt lat="44.21915" lon="12.063275"><ele>24.0</ele><time>2026-04-19T09:54:10.35Z</time></trkpt><trkpt lat="44.2190883" lon="12.0632233"><ele>24.0</ele><time>2026-04-19T09:54:12.35Z</time></trkpt><trkpt lat="44.2190217" lon="12.063175"><ele>24.0</ele><time>2026-04-19T09:54:14.35Z</time></trkpt><trkpt lat="44.2189483" lon="12.063125"><ele>24.0</ele><time>2026-04-19T09:54:16.349Z</time></trkpt><trkpt lat="44.2188767" lon="12.0630733"><ele>24.0</ele><time>2026-04-19T09:54:18.35Z</time></trkpt><trkpt lat="44.218805" lon="12.0630067"><ele>24.0</ele><time>2026-04-19T09:54:20.35Z</time></trkpt><trkpt lat="44.2187367" lon="12.0629317"><ele>24.0</ele><time>2026-04-19T09:54:22.349Z</time></trkpt><trkpt lat="44.2186633" lon="12.0628883"><ele>24.0</ele><time>2026-04-19T09:54:24.35Z</time></trkpt><trkpt lat="44.2185917" lon="12.0628483"><ele>24.0</ele><time>2026-04-19T09:54:26.349Z</time></trkpt><trkpt lat="44.218505" lon="12.0628467"><ele>23.999999999999996</ele><time>2026-04-19T09:54:29.35Z</time></trkpt><trkpt lat="44.2184717" lon="12.062935"><ele>24.0</ele><time>2026-04-19T09:54:32.349Z</time></trkpt><trkpt lat="44.2184533" lon="12.063045"><ele>24.0</ele><time>2026-04-19T09:54:34.349Z</time></trkpt><trkpt lat="44.2184283" lon="12.06314"><ele>24.0</ele><time>2026-04-19T09:54:36.348Z</time></trkpt><trkpt lat="44.218395" lon="12.0632317"><ele>24.0</ele><time>2026-04-19T09:54:38.349Z</time></trkpt><trkpt lat="44.21837" lon="12.0633133"><ele>23.999999999999996</ele><time>2026-04-19T09:54:40.349Z</time></trkpt><trkpt lat="44.2183417" lon="12.063405"><ele>24.0</ele><time>2026-04-19T09:54:42.349Z</time></trkpt><trkpt lat="44.2183117" lon="12.0634883"><ele>23.999999999999996</ele><time>2026-04-19T09:54:44.349Z</time></trkpt><trkpt lat="44.218275" lon="12.0635817"><ele>24.0</ele><time>2026-04-19T09:54:46.349Z</time></trkpt><trkpt lat="44.2182383" lon="12.0636683"><ele>24.0</ele><time>2026-04-19T09:54:48.349Z</time></trkpt><trkpt lat="44.218205" lon="12.0637567"><ele>24.0</ele><time>2026-04-19T09:54:50.348Z</time></trkpt><trkpt lat="44.2181667" lon="12.0638417"><ele>24.0</ele><time>2026-04-19T09:54:52.349Z</time></trkpt><trkpt lat="44.218135" lon="12.0639267"><ele>23.999999999999996</ele><time>2026-04-19T09:54:54.349Z</time></trkpt><trkpt lat="44.21811" lon="12.064015"><ele>24.0</ele><time>2026-04-19T09:54:56.348Z</time></trkpt><trkpt lat="44.21808" lon="12.064135"><ele>23.857142857142854</ele><time>2026-04-19T09:54:59.348Z</time></trkpt><trkpt lat="44.2180433" lon="12.0642117"><ele>23.714285714285715</ele><time>2026-04-19T09:55:02.349Z</time></trkpt><trkpt lat="44.2180067" lon="12.0643133"><ele>23.57142857142857</ele><time>2026-04-19T09:55:06.349Z</time></trkpt><trkpt lat="44.2179333" lon="12.06435"><ele>23.428571428571427</ele><time>2026-04-19T09:55:10.349Z</time></trkpt><trkpt lat="44.2178567" lon="12.0643117"><ele>23.285714285714285</ele><time>2026-04-19T09:55:13.349Z</time></trkpt><trkpt lat="44.2177933" lon="12.0642867"><ele>23.142857142857142</ele><time>2026-04-19T09:55:16.348Z</time></trkpt><trkpt lat="44.217735" lon="12.0643333"><ele>23.0</ele><time>2026-04-19T09:55:21.348Z</time></trkpt><trkpt lat="44.21766" lon="12.0643317"><ele>23.0</ele><time>2026-04-19T09:55:29.349Z</time></trkpt><trkpt lat="44.2175833" lon="12.064305"><ele>23.0</ele><time>2026-04-19T09:55:33.349Z</time></trkpt><trkpt lat="44.2175183" lon="12.0642883"><ele>23.0</ele><time>2026-04-19T09:55:36.349Z</time></trkpt><trkpt lat="44.217445" lon="12.0642583"><ele>23.0</ele><time>2026-04-19T09:55:40.349Z</time></trkpt><trkpt lat="44.217385" lon="12.064185"><ele>23.0</ele><time>2026-04-19T09:55:44.348Z</time></trkpt><trkpt lat="44.2173583" lon="12.06409"><ele>23.0</ele><time>2026-04-19T09:55:47.349Z</time></trkpt><trkpt lat="44.217295" lon="12.0640383"><ele>23.0</ele><time>2026-04-19T09:55:50.349Z</time></trkpt><trkpt lat="44.217225" lon="12.0640633"><ele>23.0</ele><time>2026-04-19T09:55:55.349Z</time></trkpt><trkpt lat="44.217175" lon="12.0641317"><ele>23.0</ele><time>2026-04-19T09:56:01.349Z</time></trkpt><trkpt lat="44.2171183" lon="12.0642"><ele>23.0</ele><time>2026-04-19T09:56:05.349Z</time></trkpt><trkpt lat="44.2170367" lon="12.06427"><ele>23.0</ele><time>2026-04-19T09:56:37.348Z</time></trkpt><trkpt lat="44.2169767" lon="12.0643267"><ele>23.0</ele><time>2026-04-19T09:56:41.348Z</time></trkpt><trkpt lat="44.2168983" lon="12.0643033"><ele>23.0</ele><time>2026-04-19T09:56:45.349Z</time></trkpt><trkpt lat="44.2168417" lon="12.0642433"><ele>23.0</ele><time>2026-04-19T09:56:49.349Z</time></trkpt><trkpt lat="44.2167917" lon="12.0641817"><ele>23.0</ele><time>2026-04-19T09:56:53.349Z</time></trkpt><trkpt lat="44.2167367" lon="12.064125"><ele>23.0</ele><time>2026-04-19T09:56:58.349Z</time></trkpt><trkpt lat="44.2166817" lon="12.064065"><ele>23.0</ele><time>2026-04-19T09:57:02.349Z</time></trkpt><trkpt lat="44.2166183" lon="12.06402"><ele>23.0</ele><time>2026-04-19T09:57:05.348Z</time></trkpt><trkpt lat="44.2165567" lon="12.06396"><ele>23.0</ele><time>2026-04-19T09:57:09.349Z</time></trkpt><trkpt lat="44.2165083" lon="12.0638933"><ele>23.0</ele><time>2026-04-19T09:57:13.349Z</time></trkpt><trkpt lat="44.2164583" lon="12.0638283"><ele>23.166666666666668</ele><time>2026-04-19T09:57:17.349Z</time></trkpt><trkpt lat="44.2164167" lon="12.0637617"><ele>23.333333333333336</ele><time>2026-04-19T09:57:20.349Z</time></trkpt><trkpt lat="44.2164033" lon="12.0636517"><ele>23.5</ele><time>2026-04-19T09:57:23.348Z</time></trkpt><trkpt lat="44.2163783" lon="12.0635283"><ele>23.666666666666668</ele><time>2026-04-19T09:57:26.348Z</time></trkpt><trkpt lat="44.2163283" lon="12.0634333"><ele>23.833333333333332</ele><time>2026-04-19T09:57:29.348Z</time></trkpt><trkpt lat="44.2162583" lon="12.063355"><ele>24.0</ele><time>2026-04-19T09:57:32.348Z</time></trkpt><trkpt lat="44.2161833" lon="12.0632867"><ele>24.166666666666668</ele><time>2026-04-19T09:57:35.348Z</time></trkpt><trkpt lat="44.216105" lon="12.0632117"><ele>24.333333333333336</ele><time>2026-04-19T09:57:38.349Z</time></trkpt><trkpt lat="44.216045" lon="12.0631617"><ele>24.5</ele><time>2026-04-19T09:57:40.348Z</time></trkpt><trkpt lat="44.2159733" lon="12.063105"><ele>24.666666666666668</ele><time>2026-04-19T09:57:43.348Z</time></trkpt><trkpt lat="44.21591" lon="12.06305"><ele>24.833333333333336</ele><time>2026-04-19T09:57:46.348Z</time></trkpt><trkpt lat="44.2158467" lon="12.0630617"><ele>25.0</ele><time>2026-04-19T09:57:50.348Z</time></trkpt><trkpt lat="44.21579" lon="12.06311"><ele>25.000000000000004</ele><time>2026-04-19T09:57:53.348Z</time></trkpt><trkpt lat="44.2157717" lon="12.0632083"><ele>25.0</ele><time>2026-04-19T09:57:58.349Z</time></trkpt><trkpt lat="44.2157583" lon="12.0633033"><ele>25.0</ele><time>2026-04-19T09:58:07.349Z</time></trkpt><trkpt lat="44.215705" lon="12.0633583"><ele>25.0</ele><time>2026-04-19T09:58:11.348Z</time></trkpt><trkpt lat="44.2156417" lon="12.0634233"><ele>25.000000000000004</ele><time>2026-04-19T09:58:14.348Z</time></trkpt><trkpt lat="44.2155933" lon="12.0635317"><ele>25.0</ele><time>2026-04-19T09:58:17.348Z</time></trkpt><trkpt lat="44.2155417" lon="12.0636283"><ele>25.000000000000004</ele><time>2026-04-19T09:58:20.348Z</time></trkpt><trkpt lat="44.2154917" lon="12.0637567"><ele>25.0</ele><time>2026-04-19T09:58:24.349Z</time></trkpt><trkpt lat="44.21547" lon="12.0638533"><ele>25.0</ele><time>2026-04-19T09:58:27.349Z</time></trkpt><trkpt lat="44.215435" lon="12.0639383"><ele>25.0</ele><time>2026-04-19T09:58:30.349Z</time></trkpt><trkpt lat="44.2153517" lon="12.06399"><ele>25.000000000000004</ele><time>2026-04-19T09:58:33.349Z</time></trkpt><trkpt lat="44.215285" lon="12.064015"><ele>25.0</ele><time>2026-04-19T09:58:35.349Z</time></trkpt><trkpt lat="44.2152167" lon="12.0640283"><ele>25.000000000000004</ele><time>2026-04-19T09:58:37.349Z</time></trkpt><trkpt lat="44.21513" lon="12.0640417"><ele>25.0</ele><time>2026-04-19T09:58:40.349Z</time></trkpt><trkpt lat="44.2150583" lon="12.0640533"><ele>25.0</ele><time>2026-04-19T09:58:42.348Z</time></trkpt><trkpt lat="44.2149767" lon="12.06406"><ele>25.0</ele><time>2026-04-19T09:58:44.348Z</time></trkpt><trkpt lat="44.214895" lon="12.0640683"><ele>25.000000000000004</ele><time>2026-04-19T09:58:46.348Z</time></trkpt><trkpt lat="44.214815" lon="12.064075"><ele>25.0</ele><time>2026-04-19T09:58:48.348Z</time></trkpt><trkpt lat="44.214745" lon="12.0640817"><ele>25.000000000000004</ele><time>2026-04-19T09:58:50.348Z</time></trkpt><trkpt lat="44.21467" lon="12.0640817"><ele>25.0</ele><time>2026-04-19T09:58:52.349Z</time></trkpt><trkpt lat="44.2146033" lon="12.06408"><ele>25.0</ele><time>2026-04-19T09:58:54.348Z</time></trkpt><trkpt lat="44.2145367" lon="12.06409"><ele>25.0</ele><time>2026-04-19T09:58:56.348Z</time></trkpt><trkpt lat="44.2144683" lon="12.0640967"><ele>25.0</ele><time>2026-04-19T09:58:58.349Z</time></trkpt><trkpt lat="44.2144017" lon="12.0641117"><ele>25.000000000000004</ele><time>2026-04-19T09:59:00.348Z</time></trkpt><trkpt lat="44.21433" lon="12.06412"><ele>25.0</ele><time>2026-04-19T09:59:02.348Z</time></trkpt><trkpt lat="44.2142533" lon="12.0641233"><ele>25.000000000000004</ele><time>2026-04-19T09:59:04.348Z</time></trkpt><trkpt lat="44.21418" lon="12.0641267"><ele>25.0</ele><time>2026-04-19T09:59:06.349Z</time></trkpt><trkpt lat="44.2141183" lon="12.06415"><ele>25.0</ele><time>2026-04-19T09:59:08.348Z</time></trkpt><trkpt lat="44.2140467" lon="12.0642283"><ele>25.0</ele><time>2026-04-19T09:59:11.349Z</time></trkpt><trkpt lat="44.2140017" lon="12.0643067"><ele>25.0</ele><time>2026-04-19T09:59:13.349Z</time></trkpt><trkpt lat="44.2139633" lon="12.0643817"><ele>25.000000000000004</ele><time>2026-04-19T09:59:15.348Z</time></trkpt><trkpt lat="44.213935" lon="12.0644633"><ele>25.0</ele><time>2026-04-19T09:59:17.348Z</time></trkpt><trkpt lat="44.21386" lon="12.06453"><ele>25.000000000000004</ele><time>2026-04-19T09:59:20.348Z</time></trkpt><trkpt lat="44.2137717" lon="12.0645183"><ele>25.0</ele><time>2026-04-19T09:59:23.348Z</time></trkpt><trkpt lat="44.2137133" lon="12.0644767"><ele>25.0</ele><time>2026-04-19T09:59:25.348Z</time></trkpt><trkpt lat="44.2136467" lon="12.064425"><ele>25.0</ele><time>2026-04-19T09:59:27.348Z</time></trkpt><trkpt lat="44.2135767" lon="12.0643833"><ele>25.0</ele><time>2026-04-19T09:59:29.348Z</time></trkpt><trkpt lat="44.2135133" lon="12.06434"><ele>25.000000000000004</ele><time>2026-04-19T09:59:31.348Z</time></trkpt><trkpt lat="44.2134583" lon="12.0642933"><ele>25.0</ele><time>2026-04-19T09:59:33.348Z</time></trkpt><trkpt lat="44.2134" lon="12.0642483"><ele>25.000000000000004</ele><time>2026-04-19T09:59:35.349Z</time></trkpt><trkpt lat="44.213345" lon="12.0641967"><ele>25.0</ele><time>2026-04-19T09:59:37.349Z</time></trkpt><trkpt lat="44.213285" lon="12.0641617"><ele>25.0</ele><time>2026-04-19T09:59:39.348Z</time></trkpt><trkpt lat="44.2132233" lon="12.0641283"><ele>25.0</ele><time>2026-04-19T09:59:41.349Z</time></trkpt><trkpt lat="44.2131583" lon="12.0640983"><ele>25.0</ele><time>2026-04-19T09:59:43.349Z</time></trkpt><trkpt lat="44.2130967" lon="12.0640767"><ele>25.000000000000004</ele><time>2026-04-19T09:59:45.349Z</time></trkpt><trkpt lat="44.213035" lon="12.064055"><ele>25.0</ele><time>2026-04-19T09:59:47.349Z</time></trkpt><trkpt lat="44.2129733" lon="12.06403"><ele>25.000000000000004</ele><time>2026-04-19T09:59:49.349Z</time></trkpt><trkpt lat="44.2129" lon="12.06397"><ele>25.0</ele><time>2026-04-19T09:59:52.349Z</time></trkpt><trkpt lat="44.2128417" lon="12.0639333"><ele>25.0</ele><time>2026-04-19T09:59:54.348Z</time></trkpt><trkpt lat="44.21278" lon="12.0638967"><ele>25.0</ele><time>2026-04-19T09:59:56.349Z</time></trkpt><trkpt lat="44.212715" lon="12.0638867"><ele>25.0</ele><time>2026-04-19T09:59:58.349Z</time></trkpt><trkpt lat="44.21263" lon="12.0639267"><ele>25.000000000000004</ele><time>2026-04-19T10:00:01.348Z</time></trkpt><trkpt lat="44.21258" lon="12.0639833"><ele>25.0</ele><time>2026-04-19T10:00:03.349Z</time></trkpt><trkpt lat="44.2125417" lon="12.0640567"><ele>25.000000000000004</ele><time>2026-04-19T10:00:05.348Z</time></trkpt><trkpt lat="44.2124883" lon="12.06416"><ele>25.0</ele><time>2026-04-19T10:00:08.349Z</time></trkpt><trkpt lat="44.21242" lon="12.0642417"><ele>25.0</ele><time>2026-04-19T10:00:11.349Z</time></trkpt><trkpt lat="44.2123683" lon="12.0643467"><ele>25.0</ele><time>2026-04-19T10:00:14.348Z</time></trkpt><trkpt lat="44.2123167" lon="12.0644533"><ele>25.000000000000004</ele><time>2026-04-19T10:00:17.349Z</time></trkpt><trkpt lat="44.2122767" lon="12.0645367"><ele>25.0</ele><time>2026-04-19T10:00:19.348Z</time></trkpt><trkpt lat="44.2122317" lon="12.064625"><ele>25.000000000000004</ele><time>2026-04-19T10:00:21.348Z</time></trkpt><trkpt lat="44.21219" lon="12.064705"><ele>25.0</ele><time>2026-04-19T10:00:23.349Z</time></trkpt><trkpt lat="44.21215" lon="12.064775"><ele>25.0</ele><time>2026-04-19T10:00:25.348Z</time></trkpt><trkpt lat="44.2120983" lon="12.0648833"><ele>25.0</ele><time>2026-04-19T10:00:28.348Z</time></trkpt><trkpt lat="44.212065" lon="12.06496"><ele>25.0</ele><time>2026-04-19T10:00:30.349Z</time></trkpt><trkpt lat="44.2120367" lon="12.0650483"><ele>25.000000000000004</ele><time>2026-04-19T10:00:32.349Z</time></trkpt><trkpt lat="44.2120067" lon="12.0651433"><ele>25.0</ele><time>2026-04-19T10:00:34.348Z</time></trkpt><trkpt lat="44.211975" lon="12.0652367"><ele>25.000000000000004</ele><time>2026-04-19T10:00:36.348Z</time></trkpt><trkpt lat="44.21194" lon="12.0653283"><ele>25.0</ele><time>2026-04-19T10:00:38.349Z</time></trkpt><trkpt lat="44.21191" lon="12.0654183"><ele>25.0</ele><time>2026-04-19T10:00:40.349Z</time></trkpt><trkpt lat="44.2118783" lon="12.0655083"><ele>25.0</ele><time>2026-04-19T10:00:42.349Z</time></trkpt><trkpt lat="44.211845" lon="12.065595"><ele>25.0</ele><time>2026-04-19T10:00:44.349Z</time></trkpt><trkpt lat="44.2118117" lon="12.0656733"><ele>25.000000000000004</ele><time>2026-04-19T10:00:46.349Z</time></trkpt><trkpt lat="44.2117683" lon="12.0657883"><ele>25.0</ele><time>2026-04-19T10:00:49.348Z</time></trkpt><trkpt lat="44.2117267" lon="12.06589"><ele>25.000000000000004</ele><time>2026-04-19T10:00:52.348Z</time></trkpt><trkpt lat="44.2116833" lon="12.0660067"><ele>25.0</ele><time>2026-04-19T10:00:55.348Z</time></trkpt><trkpt lat="44.2116433" lon="12.06608"><ele>25.0</ele><time>2026-04-19T10:00:57.349Z</time></trkpt><trkpt lat="44.211605" lon="12.0661583"><ele>25.0</ele><time>2026-04-19T10:00:59.349Z</time></trkpt><trkpt lat="44.2115733" lon="12.0662367"><ele>25.0</ele><time>2026-04-19T10:01:01.349Z</time></trkpt><trkpt lat="44.211535" lon="12.0663233"><ele>25.000000000000004</ele><time>2026-04-19T10:01:03.348Z</time></trkpt><trkpt lat="44.2114933" lon="12.0664067"><ele>25.0</ele><time>2026-04-19T10:01:05.348Z</time></trkpt><trkpt lat="44.2114583" lon="12.0664933"><ele>24.571428571428573</ele><time>2026-04-19T10:01:07.348Z</time></trkpt><trkpt lat="44.2114233" lon="12.0665817"><ele>24.142857142857142</ele><time>2026-04-19T10:01:09.349Z</time></trkpt><trkpt lat="44.21139" lon="12.0666683"><ele>23.714285714285715</ele><time>2026-04-19T10:01:11.349Z</time></trkpt><trkpt lat="44.2113583" lon="12.066745"><ele>23.285714285714285</ele><time>2026-04-19T10:01:13.348Z</time></trkpt><trkpt lat="44.2113183" lon="12.0668583"><ele>22.857142857142858</ele><time>2026-04-19T10:01:16.349Z</time></trkpt><trkpt lat="44.2112867" lon="12.0669367"><ele>22.42857142857143</ele><time>2026-04-19T10:01:18.348Z</time></trkpt><trkpt lat="44.211255" lon="12.0670217"><ele>22.0</ele><time>2026-04-19T10:01:20.349Z</time></trkpt><trkpt lat="44.2112267" lon="12.0671067"><ele>22.0</ele><time>2026-04-19T10:01:22.349Z</time></trkpt><trkpt lat="44.2111867" lon="12.0671917"><ele>22.0</ele><time>2026-04-19T10:01:24.348Z</time></trkpt><trkpt lat="44.2111433" lon="12.0672833"><ele>22.0</ele><time>2026-04-19T10:01:26.348Z</time></trkpt><trkpt lat="44.211105" lon="12.0673767"><ele>22.0</ele><time>2026-04-19T10:01:28.349Z</time></trkpt><trkpt lat="44.211065" lon="12.067465"><ele>22.0</ele><time>2026-04-19T10:01:30.348Z</time></trkpt><trkpt lat="44.2110233" lon="12.0675517"><ele>22.0</ele><time>2026-04-19T10:01:32.349Z</time></trkpt><trkpt lat="44.210985" lon="12.06763"><ele>22.0</ele><time>2026-04-19T10:01:34.348Z</time></trkpt><trkpt lat="44.2109617" lon="12.0677183"><ele>22.571428571428573</ele><time>2026-04-19T10:01:36.349Z</time></trkpt><trkpt lat="44.2109367" lon="12.0678133"><ele>23.142857142857142</ele><time>2026-04-19T10:01:38.348Z</time></trkpt><trkpt lat="44.2109067" lon="12.067905"><ele>23.714285714285715</ele><time>2026-04-19T10:01:40.349Z</time></trkpt><trkpt lat="44.21087" lon="12.0679917"><ele>24.285714285714285</ele><time>2026-04-19T10:01:42.348Z</time></trkpt><trkpt lat="44.210835" lon="12.0680817"><ele>24.857142857142858</ele><time>2026-04-19T10:01:44.349Z</time></trkpt><trkpt lat="44.2107933" lon="12.06817"><ele>25.428571428571427</ele><time>2026-04-19T10:01:46.349Z</time></trkpt><trkpt lat="44.2107533" lon="12.06826"><ele>26.0</ele><time>2026-04-19T10:01:48.348Z</time></trkpt><trkpt lat="44.2107167" lon="12.0683433"><ele>26.142857142857142</ele><time>2026-04-19T10:01:50.348Z</time></trkpt><trkpt lat="44.2106717" lon="12.0684233"><ele>26.28571428571429</ele><time>2026-04-19T10:01:52.349Z</time></trkpt><trkpt lat="44.210635" lon="12.0685083"><ele>26.42857142857143</ele><time>2026-04-19T10:01:54.349Z</time></trkpt><trkpt lat="44.210605" lon="12.06859"><ele>26.57142857142857</ele><time>2026-04-19T10:01:56.349Z</time></trkpt><trkpt lat="44.2105683" lon="12.0686717"><ele>26.714285714285715</ele><time>2026-04-19T10:01:58.348Z</time></trkpt><trkpt lat="44.2105267" lon="12.0687833"><ele>26.857142857142858</ele><time>2026-04-19T10:02:01.349Z</time></trkpt><trkpt lat="44.210485" lon="12.0688683"><ele>27.0</ele><time>2026-04-19T10:02:03.348Z</time></trkpt><trkpt lat="44.2104467" lon="12.0689683"><ele>27.0</ele><time>2026-04-19T10:02:05.349Z</time></trkpt><trkpt lat="44.21041" lon="12.06905"><ele>27.000000000000004</ele><time>2026-04-19T10:02:07.348Z</time></trkpt><trkpt lat="44.2103767" lon="12.0691333"><ele>27.000000000000004</ele><time>2026-04-19T10:02:09.348Z</time></trkpt><trkpt lat="44.2103367" lon="12.0692117"><ele>27.0</ele><time>2026-04-19T10:02:11.349Z</time></trkpt><trkpt lat="44.2103" lon="12.0690983"><ele>27.0</ele><time>2026-04-19T10:02:14.532Z</time></trkpt><trkpt lat="44.2102283" lon="12.06939"><ele>26.5</ele><time>2026-04-19T10:02:16.857Z</time></trkpt><trkpt lat="44.2102283" lon="12.0695333"><ele>26.0</ele><time>2026-04-19T10:02:20.357Z</time></trkpt><trkpt lat="44.2102583" lon="12.0696583"><ele>25.5</ele><time>2026-04-19T10:02:23.357Z</time></trkpt><trkpt lat="44.2102983" lon="12.0697267"><ele>25.0</ele><time>2026-04-19T10:02:25.357Z</time></trkpt><trkpt lat="44.210365" lon="12.0698033"><ele>24.5</ele><time>2026-04-19T10:02:28.357Z</time></trkpt><trkpt lat="44.2103383" lon="12.0698883"><ele>24.0</ele><time>2026-04-19T10:02:31.357Z</time></trkpt><trkpt lat="44.2103067" lon="12.0699867"><ele>23.71428571428571</ele><time>2026-04-19T10:02:35.356Z</time></trkpt><trkpt lat="44.2102817" lon="12.0700717"><ele>23.428571428571427</ele><time>2026-04-19T10:02:38.356Z</time></trkpt><trkpt lat="44.2102483" lon="12.0701533"><ele>23.142857142857142</ele><time>2026-04-19T10:02:48.357Z</time></trkpt><trkpt lat="44.210225" lon="12.07025"><ele>22.857142857142854</ele><time>2026-04-19T10:02:52.357Z</time></trkpt><trkpt lat="44.210155" lon="12.07025"><ele>22.57142857142857</ele><time>2026-04-19T10:02:56.356Z</time></trkpt><trkpt lat="44.210075" lon="12.070245"><ele>22.285714285714285</ele><time>2026-04-19T10:03:00.357Z</time></trkpt><trkpt lat="44.2100067" lon="12.0702533"><ele>22.0</ele><time>2026-04-19T10:03:03.356Z</time></trkpt><trkpt lat="44.20994" lon="12.0702817"><ele>22.0</ele><time>2026-04-19T10:03:06.356Z</time></trkpt><trkpt lat="44.2098783" lon="12.0703517"><ele>22.0</ele><time>2026-04-19T10:03:09.357Z</time></trkpt><trkpt lat="44.209845" lon="12.0704383"><ele>22.0</ele><time>2026-04-19T10:03:12.356Z</time></trkpt><trkpt lat="44.2098133" lon="12.07052"><ele>22.0</ele><time>2026-04-19T10:03:15.356Z</time></trkpt><trkpt lat="44.2097667" lon="12.070605"><ele>22.0</ele><time>2026-04-19T10:03:18.357Z</time></trkpt><trkpt lat="44.2097383" lon="12.0706867"><ele>22.0</ele><time>2026-04-19T10:03:21.357Z</time></trkpt><trkpt lat="44.2097067" lon="12.07077"><ele>22.0</ele><time>2026-04-19T10:03:24.356Z</time></trkpt><trkpt lat="44.209665" lon="12.07086"><ele>22.0</ele><time>2026-04-19T10:03:27.357Z</time></trkpt><trkpt lat="44.20962" lon="12.070955"><ele>22.0</ele><time>2026-04-19T10:03:30.356Z</time></trkpt><trkpt lat="44.2095783" lon="12.0710567"><ele>22.0</ele><time>2026-04-19T10:03:33.357Z</time></trkpt><trkpt lat="44.2095383" lon="12.0711433"><ele>22.0</ele><time>2026-04-19T10:03:36.357Z</time></trkpt><trkpt lat="44.2094983" lon="12.0712417"><ele>22.0</ele><time>2026-04-19T10:03:39.356Z</time></trkpt><trkpt lat="44.20946" lon="12.07135"><ele>22.0</ele><time>2026-04-19T10:03:42.357Z</time></trkpt><trkpt lat="44.20941" lon="12.0714567"><ele>22.0</ele><time>2026-04-19T10:03:45.357Z</time></trkpt><trkpt lat="44.209365" lon="12.071565"><ele>22.0</ele><time>2026-04-19T10:03:48.357Z</time></trkpt><trkpt lat="44.2093317" lon="12.0716583"><ele>22.0</ele><time>2026-04-19T10:03:50.356Z</time></trkpt><trkpt lat="44.2092983" lon="12.07175"><ele>22.0</ele><time>2026-04-19T10:03:52.356Z</time></trkpt><trkpt lat="44.2092667" lon="12.0718367"><ele>22.0</ele><time>2026-04-19T10:03:54.357Z</time></trkpt><trkpt lat="44.2092317" lon="12.0719267"><ele>22.0</ele><time>2026-04-19T10:03:56.357Z</time></trkpt><trkpt lat="44.2091967" lon="12.072015"><ele>22.0</ele><time>2026-04-19T10:03:58.357Z</time></trkpt><trkpt lat="44.2091617" lon="12.0720983"><ele>22.0</ele><time>2026-04-19T10:04:00.357Z</time></trkpt><trkpt lat="44.209125" lon="12.072185"><ele>22.0</ele><time>2026-04-19T10:04:02.356Z</time></trkpt><trkpt lat="44.2090883" lon="12.0722733"><ele>22.0</ele><time>2026-04-19T10:04:04.357Z</time></trkpt><trkpt lat="44.2090583" lon="12.0723683"><ele>22.0</ele><time>2026-04-19T10:04:06.356Z</time></trkpt><trkpt lat="44.2090233" lon="12.0724583"><ele>22.0</ele><time>2026-04-19T10:04:08.357Z</time></trkpt><trkpt lat="44.2089833" lon="12.0725467"><ele>22.0</ele><time>2026-04-19T10:04:10.356Z</time></trkpt><trkpt lat="44.2089467" lon="12.072635"><ele>22.42857142857143</ele><time>2026-04-19T10:04:12.356Z</time></trkpt><trkpt lat="44.2089133" lon="12.0727217"><ele>22.857142857142858</ele><time>2026-04-19T10:04:14.357Z</time></trkpt><trkpt lat="44.2088783" lon="12.0728083"><ele>23.285714285714285</ele><time>2026-04-19T10:04:16.356Z</time></trkpt><trkpt lat="44.20884" lon="12.0728883"><ele>23.714285714285715</ele><time>2026-04-19T10:04:18.357Z</time></trkpt><trkpt lat="44.2088083" lon="12.0729767"><ele>24.142857142857142</ele><time>2026-04-19T10:04:20.357Z</time></trkpt><trkpt lat="44.20877" lon="12.0730683"><ele>24.571428571428573</ele><time>2026-04-19T10:04:22.357Z</time></trkpt><trkpt lat="44.2087317" lon="12.0731583"><ele>25.0</ele><time>2026-04-19T10:04:24.357Z</time></trkpt><trkpt lat="44.2086983" lon="12.0732517"><ele>24.857142857142858</ele><time>2026-04-19T10:04:26.356Z</time></trkpt><trkpt lat="44.20866" lon="12.0733433"><ele>24.714285714285715</ele><time>2026-04-19T10:04:28.356Z</time></trkpt><trkpt lat="44.2086067" lon="12.073435"><ele>24.57142857142857</ele><time>2026-04-19T10:04:30.357Z</time></trkpt><trkpt lat="44.2085683" lon="12.073525"><ele>24.42857142857143</ele><time>2026-04-19T10:04:32.357Z</time></trkpt><trkpt lat="44.2085367" lon="12.0736083"><ele>24.285714285714285</ele><time>2026-04-19T10:04:34.356Z</time></trkpt><trkpt lat="44.2085" lon="12.0736917"><ele>24.142857142857142</ele><time>2026-04-19T10:04:36.356Z</time></trkpt><trkpt lat="44.2084717" lon="12.07378"><ele>24.0</ele><time>2026-04-19T10:04:38.357Z</time></trkpt><trkpt lat="44.20844" lon="12.0738617"><ele>23.999999999999996</ele><time>2026-04-19T10:04:40.357Z</time></trkpt><trkpt lat="44.2084033" lon="12.0739483"><ele>24.0</ele><time>2026-04-19T10:04:42.356Z</time></trkpt><trkpt lat="44.2083617" lon="12.0740367"><ele>24.0</ele><time>2026-04-19T10:04:44.356Z</time></trkpt><trkpt lat="44.2083217" lon="12.07412"><ele>24.0</ele><time>2026-04-19T10:04:46.357Z</time></trkpt><trkpt lat="44.208285" lon="12.0742"><ele>24.0</ele><time>2026-04-19T10:04:48.357Z</time></trkpt><trkpt lat="44.2082517" lon="12.0742833"><ele>23.999999999999996</ele><time>2026-04-19T10:04:50.357Z</time></trkpt><trkpt lat="44.20821" lon="12.0743717"><ele>24.0</ele><time>2026-04-19T10:04:52.357Z</time></trkpt><trkpt lat="44.2081733" lon="12.07446"><ele>23.999999999999996</ele><time>2026-04-19T10:04:54.356Z</time></trkpt><trkpt lat="44.2081333" lon="12.0745483"><ele>24.0</ele><time>2026-04-19T10:04:56.357Z</time></trkpt><trkpt lat="44.208095" lon="12.0746317"><ele>24.0</ele><time>2026-04-19T10:04:58.356Z</time></trkpt><trkpt lat="44.2080467" lon="12.074725"><ele>24.0</ele><time>2026-04-19T10:05:00.356Z</time></trkpt><trkpt lat="44.20801" lon="12.0748117"><ele>24.0</ele><time>2026-04-19T10:05:02.357Z</time></trkpt><trkpt lat="44.2079817" lon="12.0748967"><ele>23.999999999999996</ele><time>2026-04-19T10:05:04.357Z</time></trkpt><trkpt lat="44.2079533" lon="12.07498"><ele>24.0</ele><time>2026-04-19T10:05:06.356Z</time></trkpt><trkpt lat="44.2079183" lon="12.0750717"><ele>23.999999999999996</ele><time>2026-04-19T10:05:08.357Z</time></trkpt><trkpt lat="44.207885" lon="12.0751483"><ele>24.0</ele><time>2026-04-19T10:05:10.357Z</time></trkpt><trkpt lat="44.20785" lon="12.0752367"><ele>24.0</ele><time>2026-04-19T10:05:12.356Z</time></trkpt><trkpt lat="44.20782" lon="12.0753183"><ele>24.0</ele><time>2026-04-19T10:05:14.357Z</time></trkpt><trkpt lat="44.20779" lon="12.0754067"><ele>24.0</ele><time>2026-04-19T10:05:16.357Z</time></trkpt><trkpt lat="44.2077517" lon="12.075495"><ele>23.999999999999996</ele><time>2026-04-19T10:05:18.356Z</time></trkpt><trkpt lat="44.2077167" lon="12.0755783"><ele>24.0</ele><time>2026-04-19T10:05:20.357Z</time></trkpt><trkpt lat="44.207685" lon="12.07566"><ele>24.0</ele><time>2026-04-19T10:05:22.356Z</time></trkpt><trkpt lat="44.2076517" lon="12.0757417"><ele>24.0</ele><time>2026-04-19T10:05:24.357Z</time></trkpt><trkpt lat="44.2076167" lon="12.0758233"><ele>24.0</ele><time>2026-04-19T10:05:26.356Z</time></trkpt><trkpt lat="44.20757" lon="12.0759317"><ele>24.0</ele><time>2026-04-19T10:05:29.357Z</time></trkpt><trkpt lat="44.2075233" lon="12.0760483"><ele>24.0</ele><time>2026-04-19T10:05:32.357Z</time></trkpt><trkpt lat="44.207485" lon="12.0761333"><ele>24.0</ele><time>2026-04-19T10:05:34.357Z</time></trkpt><trkpt lat="44.2074467" lon="12.076225"><ele>23.999999999999996</ele><time>2026-04-19T10:05:36.357Z</time></trkpt><trkpt lat="44.2074117" lon="12.0763233"><ele>24.0</ele><time>2026-04-19T10:05:38.357Z</time></trkpt><trkpt lat="44.2073817" lon="12.0764067"><ele>24.0</ele><time>2026-04-19T10:05:40.357Z</time></trkpt><trkpt lat="44.2073467" lon="12.0764917"><ele>24.0</ele><time>2026-04-19T10:05:42.357Z</time></trkpt><trkpt lat="44.2073117" lon="12.076575"><ele>24.0</ele><time>2026-04-19T10:05:44.357Z</time></trkpt><trkpt lat="44.2072733" lon="12.07665"><ele>23.999999999999996</ele><time>2026-04-19T10:05:46.356Z</time></trkpt><trkpt lat="44.2072367" lon="12.0767317"><ele>24.0</ele><time>2026-04-19T10:05:48.357Z</time></trkpt><trkpt lat="44.2071933" lon="12.07682"><ele>24.142857142857142</ele><time>2026-04-19T10:05:50.357Z</time></trkpt><trkpt lat="44.2071717" lon="12.0769283"><ele>24.285714285714285</ele><time>2026-04-19T10:05:52.356Z</time></trkpt><trkpt lat="44.2071683" lon="12.0770333"><ele>24.42857142857143</ele><time>2026-04-19T10:05:54.357Z</time></trkpt><trkpt lat="44.2071783" lon="12.077135"><ele>24.57142857142857</ele><time>2026-04-19T10:05:56.356Z</time></trkpt><trkpt lat="44.2071933" lon="12.0772267"><ele>24.714285714285715</ele><time>2026-04-19T10:05:58.356Z</time></trkpt><trkpt lat="44.2072083" lon="12.077335"><ele>24.857142857142858</ele><time>2026-04-19T10:06:01.357Z</time></trkpt><trkpt lat="44.2072" lon="12.077435"><ele>25.0</ele><time>2026-04-19T10:06:04.357Z</time></trkpt><trkpt lat="44.20712" lon="12.0774783"><ele>25.142857142857146</ele><time>2026-04-19T10:06:07.356Z</time></trkpt><trkpt lat="44.2070533" lon="12.0775133"><ele>25.285714285714285</ele><time>2026-04-19T10:06:09.357Z</time></trkpt><trkpt lat="44.2069867" lon="12.0775617"><ele>25.42857142857143</ele><time>2026-04-19T10:06:11.357Z</time></trkpt><trkpt lat="44.2069217" lon="12.0776117"><ele>25.571428571428573</ele><time>2026-04-19T10:06:13.356Z</time></trkpt><trkpt lat="44.2068667" lon="12.077675"><ele>25.714285714285715</ele><time>2026-04-19T10:06:15.357Z</time></trkpt><trkpt lat="44.2068217" lon="12.0777483"><ele>25.857142857142858</ele><time>2026-04-19T10:06:17.357Z</time></trkpt><trkpt lat="44.2067833" lon="12.0778317"><ele>26.0</ele><time>2026-04-19T10:06:19.356Z</time></trkpt><trkpt lat="44.2067433" lon="12.0779133"><ele>26.0</ele><time>2026-04-19T10:06:21.357Z</time></trkpt><trkpt lat="44.2067017" lon="12.078"><ele>26.0</ele><time>2026-04-19T10:06:23.356Z</time></trkpt><trkpt lat="44.2066633" lon="12.0780833"><ele>26.0</ele><time>2026-04-19T10:06:25.357Z</time></trkpt><trkpt lat="44.2066183" lon="12.07817"><ele>26.0</ele><time>2026-04-19T10:06:27.357Z</time></trkpt><trkpt lat="44.206575" lon="12.078265"><ele>26.0</ele><time>2026-04-19T10:06:29.357Z</time></trkpt><trkpt lat="44.2065433" lon="12.0783533"><ele>26.0</ele><time>2026-04-19T10:06:31.356Z</time></trkpt><trkpt lat="44.206515" lon="12.0784467"><ele>26.0</ele><time>2026-04-19T10:06:33.357Z</time></trkpt><trkpt lat="44.206485" lon="12.0785383"><ele>25.999999999999996</ele><time>2026-04-19T10:06:35.356Z</time></trkpt><trkpt lat="44.2064533" lon="12.0786283"><ele>26.0</ele><time>2026-04-19T10:06:37.357Z</time></trkpt><trkpt lat="44.20642" lon="12.0787083"><ele>26.0</ele><time>2026-04-19T10:06:39.357Z</time></trkpt><trkpt lat="44.2063833" lon="12.0787933"><ele>26.0</ele><time>2026-04-19T10:06:41.356Z</time></trkpt><trkpt lat="44.2063467" lon="12.07888"><ele>25.999999999999996</ele><time>2026-04-19T10:06:43.357Z</time></trkpt><trkpt lat="44.2062967" lon="12.078985"><ele>26.0</ele><time>2026-04-19T10:06:46.356Z</time></trkpt><trkpt lat="44.2062567" lon="12.07908"><ele>25.833333333333332</ele><time>2026-04-19T10:06:48.357Z</time></trkpt><trkpt lat="44.2062167" lon="12.0791733"><ele>25.666666666666664</ele><time>2026-04-19T10:06:50.357Z</time></trkpt><trkpt lat="44.2061733" lon="12.0792767"><ele>25.5</ele><time>2026-04-19T10:06:52.356Z</time></trkpt><trkpt lat="44.2061317" lon="12.07935"><ele>25.333333333333336</ele><time>2026-04-19T10:06:54.356Z</time></trkpt><trkpt lat="44.2060733" lon="12.079495"><ele>25.166666666666668</ele><time>2026-04-19T10:06:57.356Z</time></trkpt><trkpt lat="44.2060383" lon="12.07959"><ele>25.0</ele><time>2026-04-19T10:06:59.357Z</time></trkpt><trkpt lat="44.2060017" lon="12.0796783"><ele>25.000000000000004</ele><time>2026-04-19T10:07:01.356Z</time></trkpt><trkpt lat="44.205965" lon="12.0797633"><ele>25.0</ele><time>2026-04-19T10:07:03.357Z</time></trkpt><trkpt lat="44.2059267" lon="12.079855"><ele>25.0</ele><time>2026-04-19T10:07:05.356Z</time></trkpt><trkpt lat="44.2058833" lon="12.0799467"><ele>25.0</ele><time>2026-04-19T10:07:07.357Z</time></trkpt><trkpt lat="44.2058483" lon="12.080035"><ele>25.0</ele><time>2026-04-19T10:07:09.356Z</time></trkpt><trkpt lat="44.20582" lon="12.0801233"><ele>25.000000000000004</ele><time>2026-04-19T10:07:11.357Z</time></trkpt><trkpt lat="44.205785" lon="12.0802117"><ele>25.0</ele><time>2026-04-19T10:07:13.357Z</time></trkpt><trkpt lat="44.205745" lon="12.0802983"><ele>25.000000000000004</ele><time>2026-04-19T10:07:15.355Z</time></trkpt><trkpt lat="44.205695" lon="12.080385"><ele>25.0</ele><time>2026-04-19T10:07:17.356Z</time></trkpt><trkpt lat="44.2056567" lon="12.0804867"><ele>25.0</ele><time>2026-04-19T10:07:20.356Z</time></trkpt><trkpt lat="44.205615" lon="12.0806"><ele>25.0</ele><time>2026-04-19T10:07:22.355Z</time></trkpt><trkpt lat="44.20557" lon="12.0807167"><ele>25.000000000000004</ele><time>2026-04-19T10:07:25.356Z</time></trkpt><trkpt lat="44.2055333" lon="12.080805"><ele>25.0</ele><time>2026-04-19T10:07:27.355Z</time></trkpt><trkpt lat="44.2055017" lon="12.0808967"><ele>25.142857142857146</ele><time>2026-04-19T10:07:29.356Z</time></trkpt><trkpt lat="44.2054683" lon="12.0809917"><ele>25.285714285714285</ele><time>2026-04-19T10:07:31.356Z</time></trkpt><trkpt lat="44.2054283" lon="12.0810717"><ele>25.42857142857143</ele><time>2026-04-19T10:07:33.355Z</time></trkpt><trkpt lat="44.2053917" lon="12.0811617"><ele>25.571428571428573</ele><time>2026-04-19T10:07:35.356Z</time></trkpt><trkpt lat="44.2053467" lon="12.0812517"><ele>25.714285714285715</ele><time>2026-04-19T10:07:37.356Z</time></trkpt><trkpt lat="44.2053" lon="12.0813367"><ele>25.857142857142858</ele><time>2026-04-19T10:07:39.355Z</time></trkpt><trkpt lat="44.2052533" lon="12.0814167"><ele>26.0</ele><time>2026-04-19T10:07:41.356Z</time></trkpt><trkpt lat="44.2052117" lon="12.0815017"><ele>25.999999999999996</ele><time>2026-04-19T10:07:43.356Z</time></trkpt><trkpt lat="44.20517" lon="12.0815883"><ele>26.0</ele><time>2026-04-19T10:07:45.356Z</time></trkpt><trkpt lat="44.2051317" lon="12.0816767"><ele>26.0</ele><time>2026-04-19T10:07:47.356Z</time></trkpt><trkpt lat="44.2051017" lon="12.0817683"><ele>26.0</ele><time>2026-04-19T10:07:49.355Z</time></trkpt><trkpt lat="44.20507" lon="12.08187"><ele>25.999999999999996</ele><time>2026-04-19T10:07:51.356Z</time></trkpt><trkpt lat="44.20504" lon="12.0819667"><ele>26.0</ele><time>2026-04-19T10:07:53.356Z</time></trkpt><trkpt lat="44.2050183" lon="12.0820783"><ele>26.0</ele><time>2026-04-19T10:07:55.356Z</time></trkpt><trkpt lat="44.2049917" lon="12.08217"><ele>26.0</ele><time>2026-04-19T10:07:57.356Z</time></trkpt><trkpt lat="44.2049633" lon="12.0822633"><ele>26.0</ele><time>2026-04-19T10:07:59.356Z</time></trkpt><trkpt lat="44.204925" lon="12.0823567"><ele>26.0</ele><time>2026-04-19T10:08:01.355Z</time></trkpt><trkpt lat="44.2048917" lon="12.0824433"><ele>26.0</ele><time>2026-04-19T10:08:03.356Z</time></trkpt><trkpt lat="44.2048467" lon="12.0825333"><ele>26.0</ele><time>2026-04-19T10:08:05.355Z</time></trkpt><trkpt lat="44.20481" lon="12.0826317"><ele>26.0</ele><time>2026-04-19T10:08:07.355Z</time></trkpt><trkpt lat="44.20478" lon="12.0827267"><ele>26.0</ele><time>2026-04-19T10:08:09.356Z</time></trkpt><trkpt lat="44.2047517" lon="12.0828117"><ele>26.0</ele><time>2026-04-19T10:08:11.356Z</time></trkpt><trkpt lat="44.2047183" lon="12.0828867"><ele>26.0</ele><time>2026-04-19T10:08:13.355Z</time></trkpt><trkpt lat="44.204685" lon="12.0829633"><ele>26.0</ele><time>2026-04-19T10:08:15.356Z</time></trkpt><trkpt lat="44.2046417" lon="12.0830633"><ele>26.0</ele><time>2026-04-19T10:08:18.355Z</time></trkpt><trkpt lat="44.2046133" lon="12.0831467"><ele>26.0</ele><time>2026-04-19T10:08:20.356Z</time></trkpt><trkpt lat="44.204595" lon="12.0832383"><ele>26.0</ele><time>2026-04-19T10:08:22.355Z</time></trkpt><trkpt lat="44.2045933" lon="12.0833383"><ele>26.0</ele><time>2026-04-19T10:08:24.355Z</time></trkpt><trkpt lat="44.20461" lon="12.083425"><ele>26.0</ele><time>2026-04-19T10:08:26.356Z</time></trkpt><trkpt lat="44.204635" lon="12.0835083"><ele>26.0</ele><time>2026-04-19T10:08:28.355Z</time></trkpt><trkpt lat="44.20466" lon="12.0835967"><ele>26.0</ele><time>2026-04-19T10:08:30.356Z</time></trkpt><trkpt lat="44.2047017" lon="12.083705"><ele>26.0</ele><time>2026-04-19T10:08:33.355Z</time></trkpt><trkpt lat="44.2046533" lon="12.0837867"><ele>26.0</ele><time>2026-04-19T10:08:36.355Z</time></trkpt><trkpt lat="44.2046133" lon="12.08386"><ele>26.0</ele><time>2026-04-19T10:08:40.356Z</time></trkpt><trkpt lat="44.20453" lon="12.083895"><ele>26.0</ele><time>2026-04-19T10:08:44.356Z</time></trkpt><trkpt lat="44.2044383" lon="12.0838983"><ele>26.0</ele><time>2026-04-19T10:08:47.355Z</time></trkpt><trkpt lat="44.2043767" lon="12.0839167"><ele>26.0</ele><time>2026-04-19T10:08:49.356Z</time></trkpt><trkpt lat="44.204315" lon="12.0839433"><ele>26.0</ele><time>2026-04-19T10:08:51.356Z</time></trkpt><trkpt lat="44.204255" lon="12.0839833"><ele>26.0</ele><time>2026-04-19T10:08:53.356Z</time></trkpt><trkpt lat="44.2042067" lon="12.08405"><ele>26.0</ele><time>2026-04-19T10:08:55.355Z</time></trkpt><trkpt lat="44.2041617" lon="12.0841367"><ele>26.0</ele><time>2026-04-19T10:08:57.355Z</time></trkpt><trkpt lat="44.2041183" lon="12.08423"><ele>25.999999999999996</ele><time>2026-04-19T10:08:59.356Z</time></trkpt><trkpt lat="44.2040767" lon="12.0843167"><ele>26.0</ele><time>2026-04-19T10:09:01.356Z</time></trkpt><trkpt lat="44.20403" lon="12.0844083"><ele>26.0</ele><time>2026-04-19T10:09:03.355Z</time></trkpt><trkpt lat="44.2039917" lon="12.084515"><ele>26.0</ele><time>2026-04-19T10:09:05.356Z</time></trkpt><trkpt lat="44.2039517" lon="12.08461"><ele>25.999999999999996</ele><time>2026-04-19T10:09:07.355Z</time></trkpt><trkpt lat="44.2039083" lon="12.0846833"><ele>26.0</ele><time>2026-04-19T10:09:09.356Z</time></trkpt><trkpt lat="44.20387" lon="12.0847567"><ele>25.833333333333332</ele><time>2026-04-19T10:09:11.356Z</time></trkpt><trkpt lat="44.2038233" lon="12.0848483"><ele>25.666666666666664</ele><time>2026-04-19T10:09:13.356Z</time></trkpt><trkpt lat="44.203775" lon="12.08495"><ele>25.5</ele><time>2026-04-19T10:09:15.356Z</time></trkpt><trkpt lat="44.2037367" lon="12.085055"><ele>25.333333333333336</ele><time>2026-04-19T10:09:17.356Z</time></trkpt><trkpt lat="44.2036983" lon="12.0851483"><ele>25.166666666666668</ele><time>2026-04-19T10:09:19.356Z</time></trkpt><trkpt lat="44.2036483" lon="12.0852233"><ele>25.0</ele><time>2026-04-19T10:09:21.356Z</time></trkpt><trkpt lat="44.203615" lon="12.0853083"><ele>24.666666666666668</ele><time>2026-04-19T10:09:23.356Z</time></trkpt><trkpt lat="44.2035917" lon="12.0854067"><ele>24.333333333333336</ele><time>2026-04-19T10:09:25.355Z</time></trkpt><trkpt lat="44.2035667" lon="12.0855033"><ele>24.0</ele><time>2026-04-19T10:09:27.356Z</time></trkpt><trkpt lat="44.2035317" lon="12.0855983"><ele>23.666666666666668</ele><time>2026-04-19T10:09:29.356Z</time></trkpt><trkpt lat="44.2034933" lon="12.0856917"><ele>23.333333333333336</ele><time>2026-04-19T10:09:31.355Z</time></trkpt><trkpt lat="44.2034583" lon="12.0857867"><ele>23.0</ele><time>2026-04-19T10:09:33.356Z</time></trkpt><trkpt lat="44.2034217" lon="12.0858833"><ele>22.5</ele><time>2026-04-19T10:09:35.356Z</time></trkpt><trkpt lat="44.2033833" lon="12.08598"><ele>22.0</ele><time>2026-04-19T10:09:37.356Z</time></trkpt><trkpt lat="44.2033483" lon="12.086075"><ele>21.5</ele><time>2026-04-19T10:09:39.356Z</time></trkpt><trkpt lat="44.2033133" lon="12.08617"><ele>21.0</ele><time>2026-04-19T10:09:41.356Z</time></trkpt><trkpt lat="44.2032783" lon="12.086265"><ele>20.5</ele><time>2026-04-19T10:09:43.355Z</time></trkpt><trkpt lat="44.2032417" lon="12.0863617"><ele>20.0</ele><time>2026-04-19T10:09:45.355Z</time></trkpt><trkpt lat="44.203198" lon="12.0864586"><ele>20.0</ele><time>2026-04-19T10:09:47.312Z</time></trkpt><trkpt lat="44.2031601" lon="12.0865522"><ele>20.0</ele><time>2026-04-19T10:09:49.294Z</time></trkpt><trkpt lat="44.2031227" lon="12.0866554"><ele>20.0</ele><time>2026-04-19T10:09:51.426Z</time></trkpt><trkpt lat="44.2030853" lon="12.0867508"><ele>20.0</ele><time>2026-04-19T10:09:53.391Z</time></trkpt><trkpt lat="44.2030423" lon="12.0868439"><ele>20.0</ele><time>2026-04-19T10:09:55.388Z</time></trkpt><trkpt lat="44.2029978" lon="12.0869412"><ele>20.0</ele><time>2026-04-19T10:09:57.422Z</time></trkpt><trkpt lat="44.2029609" lon="12.0870432"><ele>19.666666666666668</ele><time>2026-04-19T10:09:59.356Z</time></trkpt><trkpt lat="44.202919" lon="12.0871443"><ele>19.333333333333336</ele><time>2026-04-19T10:10:01.384Z</time></trkpt><trkpt lat="44.202879" lon="12.0872293"><ele>19.0</ele><time>2026-04-19T10:10:03.211Z</time></trkpt><trkpt lat="44.2028333" lon="12.0873363"><ele>18.666666666666668</ele><time>2026-04-19T10:10:05.431Z</time></trkpt><trkpt lat="44.2027983" lon="12.087435"><ele>18.333333333333332</ele><time>2026-04-19T10:10:07.355Z</time></trkpt><trkpt lat="44.202755" lon="12.0875417"><ele>18.0</ele><time>2026-04-19T10:10:09.356Z</time></trkpt><trkpt lat="44.20271" lon="12.0876433"><ele>18.833333333333332</ele><time>2026-04-19T10:10:11.356Z</time></trkpt><trkpt lat="44.2026683" lon="12.0877383"><ele>19.666666666666668</ele><time>2026-04-19T10:10:13.355Z</time></trkpt><trkpt lat="44.2026367" lon="12.087835"><ele>20.5</ele><time>2026-04-19T10:10:15.355Z</time></trkpt><trkpt lat="44.2026067" lon="12.0879267"><ele>21.333333333333336</ele><time>2026-04-19T10:10:17.356Z</time></trkpt><trkpt lat="44.20258" lon="12.088025"><ele>22.166666666666668</ele><time>2026-04-19T10:10:19.356Z</time></trkpt><trkpt lat="44.2025567" lon="12.08813"><ele>23.0</ele><time>2026-04-19T10:10:21.356Z</time></trkpt><trkpt lat="44.2025183" lon="12.0882267"><ele>23.142857142857142</ele><time>2026-04-19T10:10:23.356Z</time></trkpt><trkpt lat="44.2024917" lon="12.0883183"><ele>23.285714285714285</ele><time>2026-04-19T10:10:25.356Z</time></trkpt><trkpt lat="44.2024667" lon="12.0884117"><ele>23.428571428571427</ele><time>2026-04-19T10:10:27.355Z</time></trkpt><trkpt lat="44.2024517" lon="12.0885067"><ele>23.57142857142857</ele><time>2026-04-19T10:10:29.356Z</time></trkpt><trkpt lat="44.2024333" lon="12.0886017"><ele>23.714285714285715</ele><time>2026-04-19T10:10:31.355Z</time></trkpt><trkpt lat="44.2024167" lon="12.0887"><ele>23.857142857142854</ele><time>2026-04-19T10:10:33.355Z</time></trkpt><trkpt lat="44.202395" lon="12.088795"><ele>24.0</ele><time>2026-04-19T10:10:35.356Z</time></trkpt><trkpt lat="44.202375" lon="12.0888883"><ele>24.0</ele><time>2026-04-19T10:10:37.355Z</time></trkpt><trkpt lat="44.2023517" lon="12.0889867"><ele>24.0</ele><time>2026-04-19T10:10:39.356Z</time></trkpt><trkpt lat="44.2023283" lon="12.0890967"><ele>24.0</ele><time>2026-04-19T10:10:41.356Z</time></trkpt><trkpt lat="44.2022983" lon="12.0892133"><ele>24.0</ele><time>2026-04-19T10:10:43.355Z</time></trkpt><trkpt lat="44.2022667" lon="12.089335"><ele>24.0</ele><time>2026-04-19T10:10:45.355Z</time></trkpt><trkpt lat="44.2022467" lon="12.0894517"><ele>24.0</ele><time>2026-04-19T10:10:47.355Z</time></trkpt><trkpt lat="44.2022183" lon="12.0895567"><ele>22.833333333333332</ele><time>2026-04-19T10:10:49.356Z</time></trkpt><trkpt lat="44.202195" lon="12.0896617"><ele>21.666666666666668</ele><time>2026-04-19T10:10:51.356Z</time></trkpt><trkpt lat="44.202165" lon="12.089765"><ele>20.5</ele><time>2026-04-19T10:10:53.355Z</time></trkpt><trkpt lat="44.2021317" lon="12.0898717"><ele>19.333333333333336</ele><time>2026-04-19T10:10:55.356Z</time></trkpt><trkpt lat="44.202095" lon="12.0899683"><ele>18.166666666666668</ele><time>2026-04-19T10:10:57.355Z</time></trkpt><trkpt lat="44.20206" lon="12.0900617"><ele>17.0</ele><time>2026-04-19T10:10:59.355Z</time></trkpt><trkpt lat="44.2020233" lon="12.0901533"><ele>17.0</ele><time>2026-04-19T10:11:01.356Z</time></trkpt><trkpt lat="44.20199" lon="12.090245"><ele>17.0</ele><time>2026-04-19T10:11:03.356Z</time></trkpt><trkpt lat="44.2019533" lon="12.0903433"><ele>17.0</ele><time>2026-04-19T10:11:05.356Z</time></trkpt><trkpt lat="44.2019167" lon="12.09044"><ele>17.0</ele><time>2026-04-19T10:11:07.356Z</time></trkpt><trkpt lat="44.2018783" lon="12.0905367"><ele>17.0</ele><time>2026-04-19T10:11:09.355Z</time></trkpt><trkpt lat="44.2018333" lon="12.0906317"><ele>17.0</ele><time>2026-04-19T10:11:11.356Z</time></trkpt><trkpt lat="44.201785" lon="12.090725"><ele>17.5</ele><time>2026-04-19T10:11:13.355Z</time></trkpt><trkpt lat="44.2017383" lon="12.0908167"><ele>18.0</ele><time>2026-04-19T10:11:15.356Z</time></trkpt><trkpt lat="44.2016917" lon="12.0909017"><ele>18.5</ele><time>2026-04-19T10:11:17.355Z</time></trkpt><trkpt lat="44.2016467" lon="12.09099"><ele>19.0</ele><time>2026-04-19T10:11:19.356Z</time></trkpt><trkpt lat="44.201595" lon="12.09108"><ele>19.5</ele><time>2026-04-19T10:11:21.356Z</time></trkpt><trkpt lat="44.2015467" lon="12.091165"><ele>20.0</ele><time>2026-04-19T10:11:23.355Z</time></trkpt><trkpt lat="44.2014967" lon="12.0912517"><ele>19.833333333333336</ele><time>2026-04-19T10:11:25.355Z</time></trkpt><trkpt lat="44.2014567" lon="12.0913467"><ele>19.666666666666668</ele><time>2026-04-19T10:11:27.355Z</time></trkpt><trkpt lat="44.2014367" lon="12.091455"><ele>19.5</ele><time>2026-04-19T10:11:29.355Z</time></trkpt><trkpt lat="44.2014317" lon="12.09156"><ele>19.333333333333332</ele><time>2026-04-19T10:11:31.355Z</time></trkpt><trkpt lat="44.2014317" lon="12.0916667"><ele>19.166666666666664</ele><time>2026-04-19T10:11:33.355Z</time></trkpt><trkpt lat="44.2014167" lon="12.0917667"><ele>19.0</ele><time>2026-04-19T10:11:35.356Z</time></trkpt><trkpt lat="44.2013833" lon="12.0918517"><ele>19.0</ele><time>2026-04-19T10:11:37.355Z</time></trkpt><trkpt lat="44.2013283" lon="12.0919217"><ele>19.0</ele><time>2026-04-19T10:11:39.356Z</time></trkpt><trkpt lat="44.2012667" lon="12.0919833"><ele>19.0</ele><time>2026-04-19T10:11:41.355Z</time></trkpt><trkpt lat="44.2012067" lon="12.0920533"><ele>19.0</ele><time>2026-04-19T10:11:43.356Z</time></trkpt><trkpt lat="44.201155" lon="12.0921333"><ele>19.0</ele><time>2026-04-19T10:11:45.356Z</time></trkpt><trkpt lat="44.201115" lon="12.0922267"><ele>19.0</ele><time>2026-04-19T10:11:47.356Z</time></trkpt><trkpt lat="44.20108" lon="12.0923267"><ele>19.0</ele><time>2026-04-19T10:11:49.356Z</time></trkpt><trkpt lat="44.2010267" lon="12.0924117"><ele>19.0</ele><time>2026-04-19T10:11:51.356Z</time></trkpt><trkpt lat="44.2009517" lon="12.0924733"><ele>19.0</ele><time>2026-04-19T10:11:53.356Z</time></trkpt><trkpt lat="44.2008767" lon="12.0925283"><ele>19.0</ele><time>2026-04-19T10:11:55.356Z</time></trkpt><trkpt lat="44.2008117" lon="12.0925917"><ele>19.0</ele><time>2026-04-19T10:11:57.356Z</time></trkpt><trkpt lat="44.200765" lon="12.0926733"><ele>19.0</ele><time>2026-04-19T10:11:59.356Z</time></trkpt><trkpt lat="44.2007267" lon="12.09277"><ele>19.5</ele><time>2026-04-19T10:12:01.355Z</time></trkpt><trkpt lat="44.200685" lon="12.0928617"><ele>20.0</ele><time>2026-04-19T10:12:03.356Z</time></trkpt><trkpt lat="44.200635" lon="12.09295"><ele>20.5</ele><time>2026-04-19T10:12:05.356Z</time></trkpt><trkpt lat="44.2005733" lon="12.093025"><ele>21.0</ele><time>2026-04-19T10:12:07.356Z</time></trkpt><trkpt lat="44.20051" lon="12.0930983"><ele>21.5</ele><time>2026-04-19T10:12:09.355Z</time></trkpt><trkpt lat="44.2004617" lon="12.09319"><ele>22.0</ele><time>2026-04-19T10:12:11.356Z</time></trkpt><trkpt lat="44.2004333" lon="12.0932883"><ele>22.5</ele><time>2026-04-19T10:12:13.355Z</time></trkpt><trkpt lat="44.2004133" lon="12.093385"><ele>23.0</ele><time>2026-04-19T10:12:15.355Z</time></trkpt><trkpt lat="44.20039" lon="12.09349"><ele>23.5</ele><time>2026-04-19T10:12:17.356Z</time></trkpt><trkpt lat="44.2003617" lon="12.0935933"><ele>24.0</ele><time>2026-04-19T10:12:19.355Z</time></trkpt><trkpt lat="44.2003283" lon="12.09369"><ele>24.500000000000004</ele><time>2026-04-19T10:12:21.355Z</time></trkpt><trkpt lat="44.2002917" lon="12.0937883"><ele>25.0</ele><time>2026-04-19T10:12:23.356Z</time></trkpt><trkpt lat="44.2002517" lon="12.093885"><ele>25.000000000000004</ele><time>2026-04-19T10:12:25.356Z</time></trkpt><trkpt lat="44.2002183" lon="12.093985"><ele>25.0</ele><time>2026-04-19T10:12:27.356Z</time></trkpt><trkpt lat="44.20019" lon="12.0940833"><ele>25.0</ele><time>2026-04-19T10:12:29.356Z</time></trkpt><trkpt lat="44.2001633" lon="12.0941983"><ele>25.0</ele><time>2026-04-19T10:12:31.356Z</time></trkpt><trkpt lat="44.20015" lon="12.094325"><ele>25.000000000000004</ele><time>2026-04-19T10:12:33.356Z</time></trkpt><trkpt lat="44.2001517" lon="12.0944467"><ele>25.0</ele><time>2026-04-19T10:12:35.356Z</time></trkpt><trkpt lat="44.2001617" lon="12.094565"><ele>25.000000000000004</ele><time>2026-04-19T10:12:37.356Z</time></trkpt><trkpt lat="44.20019" lon="12.094685"><ele>25.0</ele><time>2026-04-19T10:12:39.355Z</time></trkpt><trkpt lat="44.2002267" lon="12.0947917"><ele>25.0</ele><time>2026-04-19T10:12:41.356Z</time></trkpt><trkpt lat="44.200265" lon="12.094885"><ele>25.0</ele><time>2026-04-19T10:12:43.355Z</time></trkpt><trkpt lat="44.200305" lon="12.0949717"><ele>25.000000000000004</ele><time>2026-04-19T10:12:45.356Z</time></trkpt><trkpt lat="44.2003433" lon="12.0950417"><ele>25.0</ele><time>2026-04-19T10:12:47.356Z</time></trkpt><trkpt lat="44.2003283" lon="12.0951333"><ele>25.000000000000004</ele><time>2026-04-19T10:12:49.355Z</time></trkpt><trkpt lat="44.2002933" lon="12.09524"><ele>25.0</ele><time>2026-04-19T10:12:52.356Z</time></trkpt><trkpt lat="44.2002417" lon="12.0953283"><ele>25.0</ele><time>2026-04-19T10:12:55.355Z</time></trkpt><trkpt lat="44.2001533" lon="12.095315"><ele>25.0</ele><time>2026-04-19T10:12:58.356Z</time></trkpt><trkpt lat="44.2000883" lon="12.0953033"><ele>25.000000000000004</ele><time>2026-04-19T10:13:00.356Z</time></trkpt><trkpt lat="44.1999983" lon="12.0953367"><ele>25.0</ele><time>2026-04-19T10:13:03.355Z</time></trkpt><trkpt lat="44.19994" lon="12.0953733"><ele>25.000000000000004</ele><time>2026-04-19T10:13:05.355Z</time></trkpt><trkpt lat="44.1998767" lon="12.0954"><ele>25.0</ele><time>2026-04-19T10:13:07.356Z</time></trkpt><trkpt lat="44.199785" lon="12.09541"><ele>25.0</ele><time>2026-04-19T10:13:10.355Z</time></trkpt><trkpt lat="44.1997183" lon="12.095415"><ele>25.0</ele><time>2026-04-19T10:13:12.355Z</time></trkpt><trkpt lat="44.1996483" lon="12.0954317"><ele>25.0</ele><time>2026-04-19T10:13:14.356Z</time></trkpt><trkpt lat="44.199585" lon="12.09546"><ele>25.000000000000004</ele><time>2026-04-19T10:13:16.355Z</time></trkpt><trkpt lat="44.199525" lon="12.095495"><ele>25.0</ele><time>2026-04-19T10:13:18.355Z</time></trkpt><trkpt lat="44.1994617" lon="12.0955433"><ele>25.142857142857146</ele><time>2026-04-19T10:13:20.356Z</time></trkpt><trkpt lat="44.1994033" lon="12.0956"><ele>25.285714285714285</ele><time>2026-04-19T10:13:22.356Z</time></trkpt><trkpt lat="44.1993467" lon="12.0956667"><ele>25.42857142857143</ele><time>2026-04-19T10:13:24.355Z</time></trkpt><trkpt lat="44.1992983" lon="12.0957433"><ele>25.571428571428573</ele><time>2026-04-19T10:13:26.356Z</time></trkpt><trkpt lat="44.1992533" lon="12.0958183"><ele>25.714285714285715</ele><time>2026-04-19T10:13:28.355Z</time></trkpt><trkpt lat="44.1992167" lon="12.0959017"><ele>25.857142857142858</ele><time>2026-04-19T10:13:30.356Z</time></trkpt><trkpt lat="44.199185" lon="12.0959933"><ele>26.0</ele><time>2026-04-19T10:13:32.356Z</time></trkpt><trkpt lat="44.1991517" lon="12.096085"><ele>25.833333333333332</ele><time>2026-04-19T10:13:34.356Z</time></trkpt><trkpt lat="44.1991183" lon="12.0961783"><ele>25.666666666666664</ele><time>2026-04-19T10:13:36.355Z</time></trkpt><trkpt lat="44.1990883" lon="12.09627"><ele>25.5</ele><time>2026-04-19T10:13:38.355Z</time></trkpt><trkpt lat="44.1990483" lon="12.0963683"><ele>25.333333333333336</ele><time>2026-04-19T10:13:40.356Z</time></trkpt><trkpt lat="44.1990017" lon="12.096475"><ele>25.166666666666668</ele><time>2026-04-19T10:13:42.355Z</time></trkpt><trkpt lat="44.1989617" lon="12.0965617"><ele>25.0</ele><time>2026-04-19T10:13:44.355Z</time></trkpt><trkpt lat="44.1989383" lon="12.0966433"><ele>25.000000000000004</ele><time>2026-04-19T10:13:46.355Z</time></trkpt><trkpt lat="44.1989117" lon="12.096725"><ele>25.0</ele><time>2026-04-19T10:13:48.356Z</time></trkpt><trkpt lat="44.1988767" lon="12.0968"><ele>25.0</ele><time>2026-04-19T10:13:50.356Z</time></trkpt><trkpt lat="44.19884" lon="12.0968817"><ele>25.0</ele><time>2026-04-19T10:13:52.356Z</time></trkpt><trkpt lat="44.1987983" lon="12.096965"><ele>25.0</ele><time>2026-04-19T10:13:54.356Z</time></trkpt><trkpt lat="44.198765" lon="12.0970567"><ele>25.000000000000004</ele><time>2026-04-19T10:13:56.355Z</time></trkpt><trkpt lat="44.1987283" lon="12.0971467"><ele>25.0</ele><time>2026-04-19T10:13:58.356Z</time></trkpt><trkpt lat="44.198695" lon="12.097235"><ele>25.000000000000004</ele><time>2026-04-19T10:14:00.355Z</time></trkpt><trkpt lat="44.19866" lon="12.0973167"><ele>25.0</ele><time>2026-04-19T10:14:02.356Z</time></trkpt><trkpt lat="44.1986233" lon="12.097405"><ele>25.0</ele><time>2026-04-19T10:14:04.355Z</time></trkpt><trkpt lat="44.1985817" lon="12.097505"><ele>25.0</ele><time>2026-04-19T10:14:06.356Z</time></trkpt><trkpt lat="44.1985383" lon="12.0976"><ele>25.000000000000004</ele><time>2026-04-19T10:14:08.356Z</time></trkpt><trkpt lat="44.1985017" lon="12.0976967"><ele>25.0</ele><time>2026-04-19T10:14:10.355Z</time></trkpt><trkpt lat="44.19846" lon="12.0977917"><ele>25.000000000000004</ele><time>2026-04-19T10:14:12.355Z</time></trkpt><trkpt lat="44.1984183" lon="12.097885"><ele>25.0</ele><time>2026-04-19T10:14:14.355Z</time></trkpt><trkpt lat="44.1983833" lon="12.0979767"><ele>25.0</ele><time>2026-04-19T10:14:16.356Z</time></trkpt><trkpt lat="44.198335" lon="12.0980667"><ele>25.0</ele><time>2026-04-19T10:14:18.356Z</time></trkpt><trkpt lat="44.1982783" lon="12.0981567"><ele>25.000000000000004</ele><time>2026-04-19T10:14:20.355Z</time></trkpt><trkpt lat="44.19824" lon="12.0982483"><ele>25.0</ele><time>2026-04-19T10:14:22.355Z</time></trkpt><trkpt lat="44.1982033" lon="12.0983367"><ele>25.142857142857146</ele><time>2026-04-19T10:14:24.356Z</time></trkpt><trkpt lat="44.19816" lon="12.09843"><ele>25.285714285714285</ele><time>2026-04-19T10:14:26.356Z</time></trkpt><trkpt lat="44.1981217" lon="12.0985217"><ele>25.42857142857143</ele><time>2026-04-19T10:14:28.355Z</time></trkpt><trkpt lat="44.1980833" lon="12.0986083"><ele>25.571428571428573</ele><time>2026-04-19T10:14:30.356Z</time></trkpt><trkpt lat="44.1980467" lon="12.0986867"><ele>25.714285714285715</ele><time>2026-04-19T10:14:32.355Z</time></trkpt><trkpt lat="44.1980117" lon="12.0987667"><ele>25.857142857142858</ele><time>2026-04-19T10:14:34.356Z</time></trkpt><trkpt lat="44.19798" lon="12.0988533"><ele>26.0</ele><time>2026-04-19T10:14:36.355Z</time></trkpt><trkpt lat="44.1979417" lon="12.09894"><ele>25.999999999999996</ele><time>2026-04-19T10:14:38.355Z</time></trkpt><trkpt lat="44.19791" lon="12.0990317"><ele>26.0</ele><time>2026-04-19T10:14:40.356Z</time></trkpt><trkpt lat="44.1978833" lon="12.09913"><ele>26.0</ele><time>2026-04-19T10:14:42.355Z</time></trkpt><trkpt lat="44.19786" lon="12.0992283"><ele>26.0</ele><time>2026-04-19T10:14:44.355Z</time></trkpt><trkpt lat="44.197835" lon="12.0993283"><ele>25.999999999999996</ele><time>2026-04-19T10:14:46.356Z</time></trkpt><trkpt lat="44.1978" lon="12.0994217"><ele>26.0</ele><time>2026-04-19T10:14:48.355Z</time></trkpt><trkpt lat="44.1977617" lon="12.0995133"><ele>25.999999999999996</ele><time>2026-04-19T10:14:50.356Z</time></trkpt><trkpt lat="44.197715" lon="12.0995933"><ele>26.0</ele><time>2026-04-19T10:14:52.355Z</time></trkpt><trkpt lat="44.19767" lon="12.099685"><ele>26.0</ele><time>2026-04-19T10:14:54.356Z</time></trkpt><trkpt lat="44.1976267" lon="12.0997833"><ele>26.0</ele><time>2026-04-19T10:14:56.356Z</time></trkpt><trkpt lat="44.1975833" lon="12.09988"><ele>25.999999999999996</ele><time>2026-04-19T10:14:58.356Z</time></trkpt><trkpt lat="44.19754" lon="12.0999783"><ele>26.0</ele><time>2026-04-19T10:15:00.355Z</time></trkpt><trkpt lat="44.1974983" lon="12.100075"><ele>25.999999999999996</ele><time>2026-04-19T10:15:02.356Z</time></trkpt><trkpt lat="44.19746" lon="12.1001667"><ele>26.0</ele><time>2026-04-19T10:15:04.355Z</time></trkpt><trkpt lat="44.19742" lon="12.1002617"><ele>26.0</ele><time>2026-04-19T10:15:06.356Z</time></trkpt><trkpt lat="44.1973683" lon="12.1003433"><ele>26.0</ele><time>2026-04-19T10:15:08.356Z</time></trkpt><trkpt lat="44.1973183" lon="12.1004233"><ele>25.999999999999996</ele><time>2026-04-19T10:15:10.356Z</time></trkpt><trkpt lat="44.1972767" lon="12.100515"><ele>26.0</ele><time>2026-04-19T10:15:12.356Z</time></trkpt><trkpt lat="44.1972417" lon="12.100605"><ele>25.999999999999996</ele><time>2026-04-19T10:15:14.356Z</time></trkpt><trkpt lat="44.197205" lon="12.1007017"><ele>26.0</ele><time>2026-04-19T10:15:16.356Z</time></trkpt><trkpt lat="44.1971683" lon="12.1007967"><ele>26.0</ele><time>2026-04-19T10:15:18.356Z</time></trkpt><trkpt lat="44.1971317" lon="12.100895"><ele>26.0</ele><time>2026-04-19T10:15:20.356Z</time></trkpt><trkpt lat="44.1970933" lon="12.1009917"><ele>25.999999999999996</ele><time>2026-04-19T10:15:22.356Z</time></trkpt><trkpt lat="44.197055" lon="12.10109"><ele>26.0</ele><time>2026-04-19T10:15:24.356Z</time></trkpt><trkpt lat="44.1970167" lon="12.1011833"><ele>26.166666666666664</ele><time>2026-04-19T10:15:26.356Z</time></trkpt><trkpt lat="44.1969783" lon="12.101285"><ele>26.333333333333332</ele><time>2026-04-19T10:15:28.356Z</time></trkpt><trkpt lat="44.1969383" lon="12.1013833"><ele>26.5</ele><time>2026-04-19T10:15:30.356Z</time></trkpt><trkpt lat="44.1969" lon="12.101475"><ele>26.666666666666664</ele><time>2026-04-19T10:15:32.356Z</time></trkpt><trkpt lat="44.1968583" lon="12.1015683"><ele>26.833333333333332</ele><time>2026-04-19T10:15:34.355Z</time></trkpt><trkpt lat="44.19682" lon="12.1016683"><ele>27.0</ele><time>2026-04-19T10:15:36.355Z</time></trkpt><trkpt lat="44.1967833" lon="12.1017667"><ele>27.0</ele><time>2026-04-19T10:15:38.356Z</time></trkpt><trkpt lat="44.196745" lon="12.101865"><ele>27.0</ele><time>2026-04-19T10:15:40.356Z</time></trkpt><trkpt lat="44.1967117" lon="12.1019617"><ele>27.0</ele><time>2026-04-19T10:15:42.356Z</time></trkpt><trkpt lat="44.1966783" lon="12.1020483"><ele>27.0</ele><time>2026-04-19T10:15:44.356Z</time></trkpt><trkpt lat="44.1966433" lon="12.1021483"><ele>27.0</ele><time>2026-04-19T10:15:46.355Z</time></trkpt><trkpt lat="44.19661" lon="12.102245"><ele>27.0</ele><time>2026-04-19T10:15:48.356Z</time></trkpt><trkpt lat="44.1965767" lon="12.10234"><ele>27.0</ele><time>2026-04-19T10:15:50.355Z</time></trkpt><trkpt lat="44.19654" lon="12.10244"><ele>27.0</ele><time>2026-04-19T10:15:52.356Z</time></trkpt><trkpt lat="44.1965017" lon="12.1025433"><ele>27.0</ele><time>2026-04-19T10:15:54.356Z</time></trkpt><trkpt lat="44.1964667" lon="12.1026517"><ele>27.0</ele><time>2026-04-19T10:15:56.356Z</time></trkpt><trkpt lat="44.1964317" lon="12.1027567"><ele>27.0</ele><time>2026-04-19T10:15:58.355Z</time></trkpt><trkpt lat="44.196395" lon="12.10286"><ele>27.0</ele><time>2026-04-19T10:16:00.356Z</time></trkpt><trkpt lat="44.196355" lon="12.10296"><ele>27.0</ele><time>2026-04-19T10:16:02.356Z</time></trkpt><trkpt lat="44.196315" lon="12.1030583"><ele>27.0</ele><time>2026-04-19T10:16:04.356Z</time></trkpt><trkpt lat="44.1962733" lon="12.1031633"><ele>27.0</ele><time>2026-04-19T10:16:06.355Z</time></trkpt><trkpt lat="44.19623" lon="12.1032683"><ele>27.0</ele><time>2026-04-19T10:16:08.355Z</time></trkpt><trkpt lat="44.1961817" lon="12.1033683"><ele>27.0</ele><time>2026-04-19T10:16:10.356Z</time></trkpt><trkpt lat="44.19614" lon="12.1034783"><ele>27.0</ele><time>2026-04-19T10:16:12.355Z</time></trkpt><trkpt lat="44.196095" lon="12.1035867"><ele>27.0</ele><time>2026-04-19T10:16:14.356Z</time></trkpt><trkpt lat="44.1960417" lon="12.1037"><ele>27.0</ele><time>2026-04-19T10:16:16.356Z</time></trkpt><trkpt lat="44.195995" lon="12.10381"><ele>27.0</ele><time>2026-04-19T10:16:18.356Z</time></trkpt><trkpt lat="44.1959483" lon="12.103915"><ele>27.0</ele><time>2026-04-19T10:16:20.356Z</time></trkpt><trkpt lat="44.1959083" lon="12.1040117"><ele>27.0</ele><time>2026-04-19T10:16:22.355Z</time></trkpt><trkpt lat="44.1958683" lon="12.1041083"><ele>27.0</ele><time>2026-04-19T10:16:24.356Z</time></trkpt><trkpt lat="44.1958233" lon="12.10421"><ele>27.166666666666668</ele><time>2026-04-19T10:16:26.355Z</time></trkpt><trkpt lat="44.1957883" lon="12.1043233"><ele>27.333333333333336</ele><time>2026-04-19T10:16:28.356Z</time></trkpt><trkpt lat="44.1957467" lon="12.104425"><ele>27.5</ele><time>2026-04-19T10:16:30.356Z</time></trkpt><trkpt lat="44.195705" lon="12.10452"><ele>27.666666666666668</ele><time>2026-04-19T10:16:32.356Z</time></trkpt><trkpt lat="44.1956633" lon="12.1046117"><ele>27.833333333333336</ele><time>2026-04-19T10:16:34.355Z</time></trkpt><trkpt lat="44.1956183" lon="12.104695"><ele>28.0</ele><time>2026-04-19T10:16:36.355Z</time></trkpt><trkpt lat="44.1955733" lon="12.1047883"><ele>27.833333333333336</ele><time>2026-04-19T10:16:38.356Z</time></trkpt><trkpt lat="44.1955383" lon="12.1049017"><ele>27.666666666666668</ele><time>2026-04-19T10:16:40.355Z</time></trkpt><trkpt lat="44.1955017" lon="12.1050133"><ele>27.5</ele><time>2026-04-19T10:16:42.356Z</time></trkpt><trkpt lat="44.1954617" lon="12.105125"><ele>27.333333333333336</ele><time>2026-04-19T10:16:44.355Z</time></trkpt><trkpt lat="44.1954167" lon="12.1052283"><ele>27.166666666666668</ele><time>2026-04-19T10:16:46.356Z</time></trkpt><trkpt lat="44.195375" lon="12.1053333"><ele>27.0</ele><time>2026-04-19T10:16:48.355Z</time></trkpt><trkpt lat="44.1953317" lon="12.1054333"><ele>27.0</ele><time>2026-04-19T10:16:50.356Z</time></trkpt><trkpt lat="44.1952917" lon="12.1055283"><ele>27.0</ele><time>2026-04-19T10:16:52.356Z</time></trkpt><trkpt lat="44.1952533" lon="12.10562"><ele>27.0</ele><time>2026-04-19T10:16:54.355Z</time></trkpt><trkpt lat="44.19522" lon="12.105705"><ele>27.0</ele><time>2026-04-19T10:16:56.356Z</time></trkpt><trkpt lat="44.195185" lon="12.1057933"><ele>27.0</ele><time>2026-04-19T10:16:58.355Z</time></trkpt><trkpt lat="44.19515" lon="12.1058867"><ele>27.0</ele><time>2026-04-19T10:17:00.356Z</time></trkpt><trkpt lat="44.1951117" lon="12.1059783"><ele>27.0</ele><time>2026-04-19T10:17:02.356Z</time></trkpt><trkpt lat="44.1950733" lon="12.106065"><ele>26.833333333333332</ele><time>2026-04-19T10:17:04.355Z</time></trkpt><trkpt lat="44.1950367" lon="12.106155"><ele>26.666666666666664</ele><time>2026-04-19T10:17:06.356Z</time></trkpt><trkpt lat="44.1949967" lon="12.1062467"><ele>26.5</ele><time>2026-04-19T10:17:08.356Z</time></trkpt><trkpt lat="44.1949533" lon="12.1063383"><ele>26.333333333333332</ele><time>2026-04-19T10:17:10.355Z</time></trkpt><trkpt lat="44.194915" lon="12.10643"><ele>26.166666666666664</ele><time>2026-04-19T10:17:12.356Z</time></trkpt><trkpt lat="44.19488" lon="12.10652"><ele>26.0</ele><time>2026-04-19T10:17:14.355Z</time></trkpt><trkpt lat="44.1948433" lon="12.1066117"><ele>26.166666666666664</ele><time>2026-04-19T10:17:16.356Z</time></trkpt><trkpt lat="44.1948033" lon="12.1067033"><ele>26.333333333333332</ele><time>2026-04-19T10:17:18.356Z</time></trkpt><trkpt lat="44.194765" lon="12.106795"><ele>26.5</ele><time>2026-04-19T10:17:20.356Z</time></trkpt><trkpt lat="44.194725" lon="12.106895"><ele>26.666666666666664</ele><time>2026-04-19T10:17:22.356Z</time></trkpt><trkpt lat="44.1946867" lon="12.10699"><ele>26.833333333333332</ele><time>2026-04-19T10:17:24.356Z</time></trkpt><trkpt lat="44.1946467" lon="12.107085"><ele>27.0</ele><time>2026-04-19T10:17:26.355Z</time></trkpt><trkpt lat="44.194605" lon="12.1071783"><ele>27.0</ele><time>2026-04-19T10:17:28.356Z</time></trkpt><trkpt lat="44.194565" lon="12.10727"><ele>27.0</ele><time>2026-04-19T10:17:30.356Z</time></trkpt><trkpt lat="44.1945283" lon="12.1073633"><ele>27.0</ele><time>2026-04-19T10:17:32.355Z</time></trkpt><trkpt lat="44.1944967" lon="12.10746"><ele>27.0</ele><time>2026-04-19T10:17:34.356Z</time></trkpt><trkpt lat="44.194465" lon="12.10756"><ele>27.0</ele><time>2026-04-19T10:17:36.356Z</time></trkpt><trkpt lat="44.1944267" lon="12.1076517"><ele>27.0</ele><time>2026-04-19T10:17:38.355Z</time></trkpt><trkpt lat="44.194395" lon="12.1077483"><ele>27.0</ele><time>2026-04-19T10:17:40.356Z</time></trkpt><trkpt lat="44.19436" lon="12.1078483"><ele>27.0</ele><time>2026-04-19T10:17:42.356Z</time></trkpt><trkpt lat="44.194315" lon="12.1079467"><ele>27.0</ele><time>2026-04-19T10:17:44.356Z</time></trkpt><trkpt lat="44.19428" lon="12.1080367"><ele>27.0</ele><time>2026-04-19T10:17:46.356Z</time></trkpt><trkpt lat="44.1942383" lon="12.10814"><ele>27.0</ele><time>2026-04-19T10:17:48.355Z</time></trkpt><trkpt lat="44.1941983" lon="12.108245"><ele>27.0</ele><time>2026-04-19T10:17:50.355Z</time></trkpt><trkpt lat="44.1941617" lon="12.1083383"><ele>27.166666666666668</ele><time>2026-04-19T10:17:52.355Z</time></trkpt><trkpt lat="44.1941167" lon="12.1084267"><ele>27.333333333333336</ele><time>2026-04-19T10:17:54.356Z</time></trkpt><trkpt lat="44.1940667" lon="12.10851"><ele>27.5</ele><time>2026-04-19T10:17:56.355Z</time></trkpt><trkpt lat="44.1940283" lon="12.1086"><ele>27.666666666666668</ele><time>2026-04-19T10:17:58.356Z</time></trkpt><trkpt lat="44.1939933" lon="12.1087"><ele>27.833333333333336</ele><time>2026-04-19T10:18:00.355Z</time></trkpt><trkpt lat="44.1939567" lon="12.10879"><ele>28.0</ele><time>2026-04-19T10:18:02.356Z</time></trkpt><trkpt lat="44.1939283" lon="12.1088833"><ele>27.714285714285715</ele><time>2026-04-19T10:18:04.356Z</time></trkpt><trkpt lat="44.1939" lon="12.1089783"><ele>27.42857142857143</ele><time>2026-04-19T10:18:06.356Z</time></trkpt><trkpt lat="44.19387" lon="12.1090733"><ele>27.142857142857142</ele><time>2026-04-19T10:18:08.356Z</time></trkpt><trkpt lat="44.19384" lon="12.1091717"><ele>26.857142857142858</ele><time>2026-04-19T10:18:10.356Z</time></trkpt><trkpt lat="44.19381" lon="12.1092667"><ele>26.571428571428573</ele><time>2026-04-19T10:18:12.356Z</time></trkpt><trkpt lat="44.19378" lon="12.1093633"><ele>26.285714285714285</ele><time>2026-04-19T10:18:14.356Z</time></trkpt><trkpt lat="44.1937633" lon="12.1094617"><ele>26.0</ele><time>2026-04-19T10:18:16.356Z</time></trkpt><trkpt lat="44.1937417" lon="12.1095567"><ele>25.999999999999996</ele><time>2026-04-19T10:18:18.356Z</time></trkpt><trkpt lat="44.1937033" lon="12.1096433"><ele>26.0</ele><time>2026-04-19T10:18:20.356Z</time></trkpt><trkpt lat="44.193655" lon="12.109725"><ele>26.0</ele><time>2026-04-19T10:18:22.355Z</time></trkpt><trkpt lat="44.1936083" lon="12.1098033"><ele>26.0</ele><time>2026-04-19T10:18:24.356Z</time></trkpt><trkpt lat="44.1935583" lon="12.10991"><ele>25.999999999999996</ele><time>2026-04-19T10:18:27.356Z</time></trkpt><trkpt lat="44.193545" lon="12.110015"><ele>26.0</ele><time>2026-04-19T10:18:30.356Z</time></trkpt><trkpt lat="44.1934867" lon="12.1099467"><ele>25.999999999999996</ele><time>2026-04-19T10:18:43.355Z</time></trkpt><trkpt lat="44.1934317" lon="12.1099017"><ele>26.0</ele><time>2026-04-19T10:18:46.356Z</time></trkpt><trkpt lat="44.1933517" lon="12.10988"><ele>26.0</ele><time>2026-04-19T10:18:49.356Z</time></trkpt><trkpt lat="44.1932617" lon="12.1098333"><ele>26.0</ele><time>2026-04-19T10:18:52.355Z</time></trkpt><trkpt lat="44.193195" lon="12.109795"><ele>25.999999999999996</ele><time>2026-04-19T10:18:54.356Z</time></trkpt><trkpt lat="44.193125" lon="12.1097583"><ele>26.0</ele><time>2026-04-19T10:18:56.356Z</time></trkpt><trkpt lat="44.1930567" lon="12.1097117"><ele>25.999999999999996</ele><time>2026-04-19T10:18:58.355Z</time></trkpt><trkpt lat="44.1929817" lon="12.1096567"><ele>26.0</ele><time>2026-04-19T10:19:00.355Z</time></trkpt><trkpt lat="44.1929083" lon="12.1096"><ele>26.0</ele><time>2026-04-19T10:19:02.356Z</time></trkpt><trkpt lat="44.1928383" lon="12.10955"><ele>26.0</ele><time>2026-04-19T10:19:04.355Z</time></trkpt><trkpt lat="44.19277" lon="12.109495"><ele>25.999999999999996</ele><time>2026-04-19T10:19:06.355Z</time></trkpt><trkpt lat="44.1927017" lon="12.1094517"><ele>26.0</ele><time>2026-04-19T10:19:08.356Z</time></trkpt><trkpt lat="44.1925933" lon="12.109375"><ele>25.999999999999996</ele><time>2026-04-19T10:19:11.356Z</time></trkpt><trkpt lat="44.1925217" lon="12.1093233"><ele>26.0</ele><time>2026-04-19T10:19:13.355Z</time></trkpt><trkpt lat="44.192455" lon="12.1092733"><ele>26.0</ele><time>2026-04-19T10:19:15.356Z</time></trkpt><trkpt lat="44.1923817" lon="12.1092233"><ele>26.0</ele><time>2026-04-19T10:19:17.356Z</time></trkpt><trkpt lat="44.1923033" lon="12.1091717"><ele>25.999999999999996</ele><time>2026-04-19T10:19:19.356Z</time></trkpt><trkpt lat="44.192225" lon="12.1091183"><ele>26.0</ele><time>2026-04-19T10:19:21.356Z</time></trkpt><trkpt lat="44.192155" lon="12.10906"><ele>25.999999999999996</ele><time>2026-04-19T10:19:23.356Z</time></trkpt><trkpt lat="44.1920767" lon="12.1089983"><ele>26.0</ele><time>2026-04-19T10:19:25.356Z</time></trkpt><trkpt lat="44.1920017" lon="12.108945"><ele>26.0</ele><time>2026-04-19T10:19:27.356Z</time></trkpt><trkpt lat="44.1919233" lon="12.10889"><ele>26.0</ele><time>2026-04-19T10:19:29.355Z</time></trkpt><trkpt lat="44.1918483" lon="12.108835"><ele>25.999999999999996</ele><time>2026-04-19T10:19:31.356Z</time></trkpt><trkpt lat="44.19177" lon="12.10878"><ele>26.0</ele><time>2026-04-19T10:19:33.355Z</time></trkpt><trkpt lat="44.191695" lon="12.1087283"><ele>25.999999999999996</ele><time>2026-04-19T10:19:35.355Z</time></trkpt><trkpt lat="44.1916183" lon="12.1086717"><ele>26.0</ele><time>2026-04-19T10:19:37.355Z</time></trkpt><trkpt lat="44.191545" lon="12.1086167"><ele>26.0</ele><time>2026-04-19T10:19:39.356Z</time></trkpt><trkpt lat="44.191475" lon="12.1085683"><ele>26.0</ele><time>2026-04-19T10:19:41.355Z</time></trkpt><trkpt lat="44.191405" lon="12.108515"><ele>25.999999999999996</ele><time>2026-04-19T10:19:43.356Z</time></trkpt><trkpt lat="44.1913383" lon="12.1084683"><ele>26.0</ele><time>2026-04-19T10:19:45.356Z</time></trkpt><trkpt lat="44.19127" lon="12.1084167"><ele>26.166666666666664</ele><time>2026-04-19T10:19:47.356Z</time></trkpt><trkpt lat="44.1912017" lon="12.10837"><ele>26.333333333333332</ele><time>2026-04-19T10:19:49.355Z</time></trkpt><trkpt lat="44.19113" lon="12.1083167"><ele>26.5</ele><time>2026-04-19T10:19:51.356Z</time></trkpt><trkpt lat="44.19106" lon="12.1082667"><ele>26.666666666666664</ele><time>2026-04-19T10:19:53.356Z</time></trkpt><trkpt lat="44.1909933" lon="12.1082217"><ele>26.833333333333332</ele><time>2026-04-19T10:19:55.356Z</time></trkpt><trkpt lat="44.1909217" lon="12.10817"><ele>27.0</ele><time>2026-04-19T10:19:57.356Z</time></trkpt><trkpt lat="44.19085" lon="12.1081267"><ele>27.166666666666668</ele><time>2026-04-19T10:19:59.355Z</time></trkpt><trkpt lat="44.1907767" lon="12.1080767"><ele>27.333333333333336</ele><time>2026-04-19T10:20:01.356Z</time></trkpt><trkpt lat="44.190705" lon="12.1080267"><ele>27.5</ele><time>2026-04-19T10:20:03.356Z</time></trkpt><trkpt lat="44.1906333" lon="12.107975"><ele>27.666666666666668</ele><time>2026-04-19T10:20:05.355Z</time></trkpt><trkpt lat="44.1905617" lon="12.107925"><ele>27.833333333333336</ele><time>2026-04-19T10:20:07.355Z</time></trkpt><trkpt lat="44.19049" lon="12.1078683"><ele>28.0</ele><time>2026-04-19T10:20:09.356Z</time></trkpt><trkpt lat="44.1904283" lon="12.107805"><ele>28.000000000000004</ele><time>2026-04-19T10:20:11.355Z</time></trkpt><trkpt lat="44.190355" lon="12.1077567"><ele>28.0</ele><time>2026-04-19T10:20:13.355Z</time></trkpt><trkpt lat="44.19028" lon="12.107705"><ele>28.0</ele><time>2026-04-19T10:20:15.355Z</time></trkpt><trkpt lat="44.190205" lon="12.10765"><ele>28.0</ele><time>2026-04-19T10:20:17.355Z</time></trkpt><trkpt lat="44.1901333" lon="12.1075933"><ele>28.000000000000004</ele><time>2026-04-19T10:20:19.355Z</time></trkpt><trkpt lat="44.19006" lon="12.1075367"><ele>28.0</ele><time>2026-04-19T10:20:21.356Z</time></trkpt><trkpt lat="44.1899867" lon="12.10748"><ele>28.000000000000004</ele><time>2026-04-19T10:20:23.356Z</time></trkpt><trkpt lat="44.1899133" lon="12.107425"><ele>28.0</ele><time>2026-04-19T10:20:25.355Z</time></trkpt><trkpt lat="44.1898367" lon="12.107365"><ele>28.0</ele><time>2026-04-19T10:20:27.355Z</time></trkpt><trkpt lat="44.1897633" lon="12.1073117"><ele>28.0</ele><time>2026-04-19T10:20:29.356Z</time></trkpt><trkpt lat="44.1896917" lon="12.107265"><ele>28.000000000000004</ele><time>2026-04-19T10:20:31.356Z</time></trkpt><trkpt lat="44.1896217" lon="12.107235"><ele>28.0</ele><time>2026-04-19T10:20:33.355Z</time></trkpt><trkpt lat="44.1895467" lon="12.1072283"><ele>28.000000000000004</ele><time>2026-04-19T10:20:35.356Z</time></trkpt><trkpt lat="44.1894817" lon="12.1072717"><ele>28.0</ele><time>2026-04-19T10:20:37.356Z</time></trkpt><trkpt lat="44.18943" lon="12.1073467"><ele>28.0</ele><time>2026-04-19T10:20:39.355Z</time></trkpt><trkpt lat="44.189385" lon="12.10744"><ele>28.0</ele><time>2026-04-19T10:20:41.356Z</time></trkpt><trkpt lat="44.189325" lon="12.1075117"><ele>28.000000000000004</ele><time>2026-04-19T10:20:43.355Z</time></trkpt><trkpt lat="44.1892483" lon="12.1075333"><ele>28.0</ele><time>2026-04-19T10:20:45.356Z</time></trkpt><trkpt lat="44.1891783" lon="12.1075033"><ele>28.000000000000004</ele><time>2026-04-19T10:20:47.356Z</time></trkpt><trkpt lat="44.18911" lon="12.1074517"><ele>28.0</ele><time>2026-04-19T10:20:49.356Z</time></trkpt><trkpt lat="44.189035" lon="12.1074017"><ele>28.0</ele><time>2026-04-19T10:20:51.356Z</time></trkpt><trkpt lat="44.1889567" lon="12.1073517"><ele>28.0</ele><time>2026-04-19T10:20:53.356Z</time></trkpt><trkpt lat="44.18888" lon="12.1072917"><ele>28.000000000000004</ele><time>2026-04-19T10:20:55.355Z</time></trkpt><trkpt lat="44.1888067" lon="12.1072267"><ele>28.0</ele><time>2026-04-19T10:20:57.356Z</time></trkpt><trkpt lat="44.1887283" lon="12.1071617"><ele>27.833333333333336</ele><time>2026-04-19T10:20:59.356Z</time></trkpt><trkpt lat="44.1886517" lon="12.107105"><ele>27.666666666666668</ele><time>2026-04-19T10:21:01.356Z</time></trkpt><trkpt lat="44.1885767" lon="12.10705"><ele>27.5</ele><time>2026-04-19T10:21:03.355Z</time></trkpt><trkpt lat="44.188505" lon="12.1069983"><ele>27.333333333333336</ele><time>2026-04-19T10:21:05.356Z</time></trkpt><trkpt lat="44.1884383" lon="12.10694"><ele>27.166666666666668</ele><time>2026-04-19T10:21:07.355Z</time></trkpt><trkpt lat="44.1883783" lon="12.106885"><ele>27.0</ele><time>2026-04-19T10:21:09.356Z</time></trkpt><trkpt lat="44.1883183" lon="12.10684"><ele>27.0</ele><time>2026-04-19T10:21:11.355Z</time></trkpt><trkpt lat="44.1882517" lon="12.1067883"><ele>27.0</ele><time>2026-04-19T10:21:14.356Z</time></trkpt><trkpt lat="44.1883033" lon="12.10686"><ele>27.0</ele><time>2026-04-19T10:21:21.355Z</time></trkpt><trkpt lat="44.188245" lon="12.1067867"><ele>27.0</ele><time>2026-04-19T10:22:14.355Z</time></trkpt><trkpt lat="44.1881683" lon="12.1067317"><ele>27.0</ele><time>2026-04-19T10:22:18.354Z</time></trkpt><trkpt lat="44.1881033" lon="12.1066783"><ele>27.0</ele><time>2026-04-19T10:22:21.355Z</time></trkpt><trkpt lat="44.1880317" lon="12.10662"><ele>27.142857142857142</ele><time>2026-04-19T10:22:24.354Z</time></trkpt><trkpt lat="44.187955" lon="12.1065683"><ele>27.285714285714285</ele><time>2026-04-19T10:22:27.355Z</time></trkpt><trkpt lat="44.187875" lon="12.1065"><ele>27.42857142857143</ele><time>2026-04-19T10:22:30.354Z</time></trkpt><trkpt lat="44.18782" lon="12.1064567"><ele>27.57142857142857</ele><time>2026-04-19T10:22:32.354Z</time></trkpt><trkpt lat="44.1877633" lon="12.1064133"><ele>27.714285714285715</ele><time>2026-04-19T10:22:34.355Z</time></trkpt><trkpt lat="44.1877083" lon="12.10637"><ele>27.857142857142858</ele><time>2026-04-19T10:22:36.355Z</time></trkpt><trkpt lat="44.18765" lon="12.1063267"><ele>28.0</ele><time>2026-04-19T10:22:38.354Z</time></trkpt><trkpt lat="44.1875883" lon="12.1062917"><ele>28.000000000000004</ele><time>2026-04-19T10:22:40.354Z</time></trkpt><trkpt lat="44.187525" lon="12.106255"><ele>28.0</ele><time>2026-04-19T10:22:42.355Z</time></trkpt><trkpt lat="44.1874617" lon="12.1062433"><ele>28.0</ele><time>2026-04-19T10:22:44.355Z</time></trkpt><trkpt lat="44.1873783" lon="12.1062967"><ele>28.0</ele><time>2026-04-19T10:22:47.355Z</time></trkpt><trkpt lat="44.187335" lon="12.1063833"><ele>28.000000000000004</ele><time>2026-04-19T10:22:49.355Z</time></trkpt><trkpt lat="44.187295" lon="12.10647"><ele>28.0</ele><time>2026-04-19T10:22:51.354Z</time></trkpt><trkpt lat="44.187255" lon="12.106565"><ele>27.857142857142858</ele><time>2026-04-19T10:22:53.355Z</time></trkpt><trkpt lat="44.187215" lon="12.1066483"><ele>27.714285714285715</ele><time>2026-04-19T10:22:55.354Z</time></trkpt><trkpt lat="44.1871783" lon="12.1067367"><ele>27.57142857142857</ele><time>2026-04-19T10:22:57.355Z</time></trkpt><trkpt lat="44.1871383" lon="12.1068267"><ele>27.42857142857143</ele><time>2026-04-19T10:22:59.355Z</time></trkpt><trkpt lat="44.1870933" lon="12.1069133"><ele>27.285714285714285</ele><time>2026-04-19T10:23:01.355Z</time></trkpt><trkpt lat="44.1870533" lon="12.1070017"><ele>27.142857142857142</ele><time>2026-04-19T10:23:03.355Z</time></trkpt><trkpt lat="44.1870133" lon="12.10709"><ele>27.0</ele><time>2026-04-19T10:23:05.354Z</time></trkpt><trkpt lat="44.1869733" lon="12.1071833"><ele>27.0</ele><time>2026-04-19T10:23:07.355Z</time></trkpt><trkpt lat="44.1869383" lon="12.10727"><ele>27.0</ele><time>2026-04-19T10:23:09.355Z</time></trkpt><trkpt lat="44.1868983" lon="12.1073617"><ele>27.0</ele><time>2026-04-19T10:23:11.354Z</time></trkpt><trkpt lat="44.18686" lon="12.10746"><ele>27.0</ele><time>2026-04-19T10:23:13.355Z</time></trkpt><trkpt lat="44.1868183" lon="12.1075533"><ele>27.0</ele><time>2026-04-19T10:23:15.354Z</time></trkpt><trkpt lat="44.1867733" lon="12.1076467"><ele>27.0</ele><time>2026-04-19T10:23:17.354Z</time></trkpt><trkpt lat="44.186735" lon="12.107735"><ele>27.0</ele><time>2026-04-19T10:23:19.355Z</time></trkpt><trkpt lat="44.1866917" lon="12.1078283"><ele>27.0</ele><time>2026-04-19T10:23:21.354Z</time></trkpt><trkpt lat="44.1866517" lon="12.107925"><ele>27.0</ele><time>2026-04-19T10:23:23.355Z</time></trkpt><trkpt lat="44.1866133" lon="12.108015"><ele>27.0</ele><time>2026-04-19T10:23:25.355Z</time></trkpt><trkpt lat="44.1865767" lon="12.108105"><ele>27.0</ele><time>2026-04-19T10:23:27.355Z</time></trkpt><trkpt lat="44.186535" lon="12.1081983"><ele>27.0</ele><time>2026-04-19T10:23:29.355Z</time></trkpt><trkpt lat="44.18649" lon="12.1082917"><ele>27.166666666666668</ele><time>2026-04-19T10:23:31.354Z</time></trkpt><trkpt lat="44.1864517" lon="12.108385"><ele>27.333333333333336</ele><time>2026-04-19T10:23:33.354Z</time></trkpt><trkpt lat="44.1864083" lon="12.1084783"><ele>27.5</ele><time>2026-04-19T10:23:35.355Z</time></trkpt><trkpt lat="44.1863633" lon="12.1085717"><ele>27.666666666666668</ele><time>2026-04-19T10:23:37.355Z</time></trkpt><trkpt lat="44.1863233" lon="12.1086667"><ele>27.833333333333336</ele><time>2026-04-19T10:23:39.354Z</time></trkpt><trkpt lat="44.1862817" lon="12.10876"><ele>28.0</ele><time>2026-04-19T10:23:41.355Z</time></trkpt><trkpt lat="44.1862367" lon="12.1088567"><ele>28.000000000000004</ele><time>2026-04-19T10:23:43.354Z</time></trkpt><trkpt lat="44.1861883" lon="12.1089533"><ele>28.0</ele><time>2026-04-19T10:23:45.355Z</time></trkpt><trkpt lat="44.186145" lon="12.1090433"><ele>28.0</ele><time>2026-04-19T10:23:47.355Z</time></trkpt><trkpt lat="44.1861033" lon="12.10913"><ele>28.0</ele><time>2026-04-19T10:23:49.355Z</time></trkpt><trkpt lat="44.18606" lon="12.1092167"><ele>28.000000000000004</ele><time>2026-04-19T10:23:51.355Z</time></trkpt><trkpt lat="44.1860133" lon="12.1093"><ele>28.0</ele><time>2026-04-19T10:23:53.354Z</time></trkpt><trkpt lat="44.1859667" lon="12.1093933"><ele>28.000000000000004</ele><time>2026-04-19T10:23:55.355Z</time></trkpt><trkpt lat="44.185915" lon="12.10948"><ele>28.0</ele><time>2026-04-19T10:23:57.355Z</time></trkpt><trkpt lat="44.1858567" lon="12.109555"><ele>28.0</ele><time>2026-04-19T10:23:59.355Z</time></trkpt><trkpt lat="44.1858" lon="12.1096333"><ele>28.0</ele><time>2026-04-19T10:24:01.355Z</time></trkpt><trkpt lat="44.1857467" lon="12.1097033"><ele>28.000000000000004</ele><time>2026-04-19T10:24:03.355Z</time></trkpt><trkpt lat="44.1856917" lon="12.1097817"><ele>28.0</ele><time>2026-04-19T10:24:05.354Z</time></trkpt><trkpt lat="44.1856367" lon="12.10986"><ele>27.833333333333336</ele><time>2026-04-19T10:24:07.355Z</time></trkpt><trkpt lat="44.18558" lon="12.1099367"><ele>27.666666666666668</ele><time>2026-04-19T10:24:09.355Z</time></trkpt><trkpt lat="44.18553" lon="12.1100133"><ele>27.5</ele><time>2026-04-19T10:24:11.355Z</time></trkpt><trkpt lat="44.1854833" lon="12.110095"><ele>27.333333333333336</ele><time>2026-04-19T10:24:13.354Z</time></trkpt><trkpt lat="44.1854317" lon="12.1101783"><ele>27.166666666666668</ele><time>2026-04-19T10:24:15.355Z</time></trkpt><trkpt lat="44.185385" lon="12.11027"><ele>27.0</ele><time>2026-04-19T10:24:17.355Z</time></trkpt><trkpt lat="44.1853417" lon="12.110365"><ele>27.0</ele><time>2026-04-19T10:24:19.354Z</time></trkpt><trkpt lat="44.1853033" lon="12.1104533"><ele>27.0</ele><time>2026-04-19T10:24:21.355Z</time></trkpt><trkpt lat="44.1852667" lon="12.1105533"><ele>27.0</ele><time>2026-04-19T10:24:23.355Z</time></trkpt><trkpt lat="44.18523" lon="12.11065"><ele>27.0</ele><time>2026-04-19T10:24:25.355Z</time></trkpt><trkpt lat="44.1851867" lon="12.1107617"><ele>27.0</ele><time>2026-04-19T10:24:27.355Z</time></trkpt><trkpt lat="44.1851483" lon="12.1108667"><ele>27.0</ele><time>2026-04-19T10:24:29.354Z</time></trkpt><trkpt lat="44.185105" lon="12.11098"><ele>27.0</ele><time>2026-04-19T10:24:31.355Z</time></trkpt><trkpt lat="44.1850667" lon="12.1110833"><ele>27.0</ele><time>2026-04-19T10:24:33.355Z</time></trkpt><trkpt lat="44.1850317" lon="12.1111883"><ele>27.0</ele><time>2026-04-19T10:24:35.354Z</time></trkpt><trkpt lat="44.1849917" lon="12.1112867"><ele>27.0</ele><time>2026-04-19T10:24:37.355Z</time></trkpt><trkpt lat="44.18495" lon="12.1113933"><ele>27.0</ele><time>2026-04-19T10:24:39.355Z</time></trkpt><trkpt lat="44.1849067" lon="12.1115217"><ele>27.0</ele><time>2026-04-19T10:24:41.354Z</time></trkpt><trkpt lat="44.1848517" lon="12.1116533"><ele>27.200000000000003</ele><time>2026-04-19T10:24:43.354Z</time></trkpt><trkpt lat="44.1847983" lon="12.1117883"><ele>27.400000000000002</ele><time>2026-04-19T10:24:45.354Z</time></trkpt><trkpt lat="44.1847517" lon="12.11191"><ele>27.599999999999998</ele><time>2026-04-19T10:24:47.355Z</time></trkpt><trkpt lat="44.1847" lon="12.1120483"><ele>27.799999999999997</ele><time>2026-04-19T10:24:49.355Z</time></trkpt><trkpt lat="44.184645" lon="12.1121783"><ele>28.0</ele><time>2026-04-19T10:24:51.355Z</time></trkpt><trkpt lat="44.1846133" lon="12.1122733"><ele>28.000000000000004</ele><time>2026-04-19T10:24:53.355Z</time></trkpt><trkpt lat="44.1845617" lon="12.1123617"><ele>28.0</ele><time>2026-04-19T10:24:55.355Z</time></trkpt><trkpt lat="44.18452" lon="12.1124667"><ele>28.0</ele><time>2026-04-19T10:24:57.354Z</time></trkpt><trkpt lat="44.1844767" lon="12.1125583"><ele>28.0</ele><time>2026-04-19T10:24:59.355Z</time></trkpt><trkpt lat="44.1844317" lon="12.11263"><ele>28.000000000000004</ele><time>2026-04-19T10:25:01.354Z</time></trkpt><trkpt lat="44.1843783" lon="12.1127033"><ele>28.0</ele><time>2026-04-19T10:25:03.355Z</time></trkpt><trkpt lat="44.1843267" lon="12.1127783"><ele>27.857142857142858</ele><time>2026-04-19T10:25:05.355Z</time></trkpt><trkpt lat="44.1842817" lon="12.11286"><ele>27.714285714285715</ele><time>2026-04-19T10:25:07.355Z</time></trkpt><trkpt lat="44.184235" lon="12.11294"><ele>27.57142857142857</ele><time>2026-04-19T10:25:09.355Z</time></trkpt><trkpt lat="44.18417" lon="12.112985"><ele>27.42857142857143</ele><time>2026-04-19T10:25:11.355Z</time></trkpt><trkpt lat="44.1841033" lon="12.112955"><ele>27.285714285714285</ele><time>2026-04-19T10:25:13.355Z</time></trkpt><trkpt lat="44.1840467" lon="12.1129133"><ele>27.142857142857142</ele><time>2026-04-19T10:25:15.355Z</time></trkpt><trkpt lat="44.18397" lon="12.1128683"><ele>27.0</ele><time>2026-04-19T10:25:18.355Z</time></trkpt><trkpt lat="44.183925" lon="12.1129467"><ele>27.0</ele><time>2026-04-19T10:25:21.354Z</time></trkpt><trkpt lat="44.18398" lon="12.1130467"><ele>27.0</ele><time>2026-04-19T10:25:24.354Z</time></trkpt><trkpt lat="44.1840217" lon="12.11312"><ele>27.0</ele><time>2026-04-19T10:25:26.355Z</time></trkpt><trkpt lat="44.18406" lon="12.1132"><ele>27.0</ele><time>2026-04-19T10:25:28.354Z</time></trkpt><trkpt lat="44.18411" lon="12.11327"><ele>27.0</ele><time>2026-04-19T10:25:30.355Z</time></trkpt><trkpt lat="44.18417" lon="12.11332"><ele>27.0</ele><time>2026-04-19T10:25:32.354Z</time></trkpt><trkpt lat="44.1842367" lon="12.1133217"><ele>27.0</ele><time>2026-04-19T10:25:34.354Z</time></trkpt><trkpt lat="44.184295" lon="12.1132833"><ele>27.333333333333332</ele><time>2026-04-19T10:25:36.354Z</time></trkpt><trkpt lat="44.18439" lon="12.113285"><ele>27.666666666666664</ele><time>2026-04-19T10:25:39.355Z</time></trkpt><trkpt lat="44.1844617" lon="12.1133367"><ele>28.0</ele><time>2026-04-19T10:25:41.355Z</time></trkpt><trkpt lat="44.1845317" lon="12.113385"><ele>28.333333333333332</ele><time>2026-04-19T10:25:43.354Z</time></trkpt><trkpt lat="44.1846017" lon="12.1134333"><ele>28.666666666666664</ele><time>2026-04-19T10:25:45.355Z</time></trkpt><trkpt lat="44.1846683" lon="12.1134867"><ele>29.0</ele><time>2026-04-19T10:25:47.355Z</time></trkpt><trkpt lat="44.1847333" lon="12.1135417"><ele>29.000000000000004</ele><time>2026-04-19T10:25:49.354Z</time></trkpt><trkpt lat="44.1847967" lon="12.113595"><ele>29.0</ele><time>2026-04-19T10:25:51.355Z</time></trkpt><trkpt lat="44.18486" lon="12.1136467"><ele>29.000000000000004</ele><time>2026-04-19T10:25:53.355Z</time></trkpt><trkpt lat="44.1849233" lon="12.1136967"><ele>29.000000000000004</ele><time>2026-04-19T10:25:55.354Z</time></trkpt><trkpt lat="44.1849817" lon="12.1137467"><ele>29.0</ele><time>2026-04-19T10:25:57.354Z</time></trkpt><trkpt lat="44.1850283" lon="12.1138517"><ele>29.000000000000004</ele><time>2026-04-19T10:26:00.355Z</time></trkpt><trkpt lat="44.1850167" lon="12.1139417"><ele>29.000000000000004</ele><time>2026-04-19T10:26:02.354Z</time></trkpt><trkpt lat="44.184985" lon="12.114025"><ele>28.833333333333332</ele><time>2026-04-19T10:26:04.355Z</time></trkpt><trkpt lat="44.1849633" lon="12.1141133"><ele>28.666666666666664</ele><time>2026-04-19T10:26:06.355Z</time></trkpt><trkpt lat="44.1849383" lon="12.114205"><ele>28.5</ele><time>2026-04-19T10:26:08.355Z</time></trkpt><trkpt lat="44.1849183" lon="12.1142917"><ele>28.333333333333336</ele><time>2026-04-19T10:26:10.355Z</time></trkpt><trkpt lat="44.1849317" lon="12.11441"><ele>28.166666666666668</ele><time>2026-04-19T10:26:13.355Z</time></trkpt><trkpt lat="44.1848967" lon="12.11452"><ele>28.0</ele><time>2026-04-19T10:26:16.355Z</time></trkpt><trkpt lat="44.1848733" lon="12.11463"><ele>28.0</ele><time>2026-04-19T10:26:19.355Z</time></trkpt><trkpt lat="44.1849" lon="12.1147467"><ele>28.0</ele><time>2026-04-19T10:26:22.355Z</time></trkpt><trkpt lat="44.1849317" lon="12.1148483"><ele>28.0</ele><time>2026-04-19T10:26:25.354Z</time></trkpt><trkpt lat="44.1849833" lon="12.1149133"><ele>29.0</ele><time>2026-04-19T10:26:31.355Z</time></trkpt></trkseg></trk></gpx>